<?xml version="1.0" encoding="UTF-8" standalone="no" ?>
<gpx xmlns="http://www.topografix.com/GPX/1/1" xmlns:xsi="http://www.w3.org/2001/XMLSchema-instance" xsi:schemaLocation="http://www.topografix.com/GPX/1/1 http://www.topografix.com/GPX/1/1/gpx.xsd" version="1.1" creator="VisuGPX - https://www.visugpx.com">
  <metadata>
    <name>Sorques17/03/2022</name>
    <desc><![CDATA[Une boucle en grande Partie en forêt entre Sorques et Montigny sur Loing.]]></desc>
  </metadata>
  <trk>
    <name><![CDATA[Sorques17/03/2022]]></name>
    <trkseg>
      <trkpt lat="48.35064" lon="2.76505">
        <ele>92</ele>
        <time>2022-03-17T12:52:53Z</time>
      </trkpt>
      <trkpt lat="48.35062" lon="2.76505">
        <ele>92.400001525879</ele>
        <time>2022-03-17T12:52:58Z</time>
      </trkpt>
      <trkpt lat="48.35062" lon="2.76505">
        <ele>92.400001525879</ele>
        <time>2022-03-17T12:53:03Z</time>
      </trkpt>
      <trkpt lat="48.35062" lon="2.76504">
        <ele>92.400001525879</ele>
        <time>2022-03-17T12:53:08Z</time>
      </trkpt>
      <trkpt lat="48.35062" lon="2.76504">
        <ele>92.400001525879</ele>
        <time>2022-03-17T12:53:13Z</time>
      </trkpt>
      <trkpt lat="48.35062" lon="2.76503">
        <ele>92.199996948242</ele>
        <time>2022-03-17T12:53:18Z</time>
      </trkpt>
      <trkpt lat="48.35062" lon="2.765">
        <ele>92.400001525879</ele>
        <time>2022-03-17T12:53:23Z</time>
      </trkpt>
      <trkpt lat="48.35062" lon="2.76498">
        <ele>92.400001525879</ele>
        <time>2022-03-17T12:53:28Z</time>
      </trkpt>
      <trkpt lat="48.35063" lon="2.76493">
        <ele>92.599998474121</ele>
        <time>2022-03-17T12:53:33Z</time>
      </trkpt>
      <trkpt lat="48.35062" lon="2.76492">
        <ele>92.599998474121</ele>
        <time>2022-03-17T12:53:38Z</time>
      </trkpt>
      <trkpt lat="48.3506" lon="2.76491">
        <ele>92.599998474121</ele>
        <time>2022-03-17T12:53:43Z</time>
      </trkpt>
      <trkpt lat="48.35057" lon="2.76484">
        <ele>92.800003051758</ele>
        <time>2022-03-17T12:53:48Z</time>
      </trkpt>
      <trkpt lat="48.35052" lon="2.76483">
        <ele>92.800003051758</ele>
        <time>2022-03-17T12:53:53Z</time>
      </trkpt>
      <trkpt lat="48.35044" lon="2.76482">
        <ele>92.599998474121</ele>
        <time>2022-03-17T12:53:58Z</time>
      </trkpt>
      <trkpt lat="48.35039" lon="2.76479">
        <ele>92.599998474121</ele>
        <time>2022-03-17T12:54:03Z</time>
      </trkpt>
      <trkpt lat="48.35032" lon="2.76474">
        <ele>92.800003051758</ele>
        <time>2022-03-17T12:54:08Z</time>
      </trkpt>
      <trkpt lat="48.35025" lon="2.76472">
        <ele>92.800003051758</ele>
        <time>2022-03-17T12:54:13Z</time>
      </trkpt>
      <trkpt lat="48.35019" lon="2.7647">
        <ele>93</ele>
        <time>2022-03-17T12:54:18Z</time>
      </trkpt>
      <trkpt lat="48.35014" lon="2.7647">
        <ele>93.199996948242</ele>
        <time>2022-03-17T12:54:23Z</time>
      </trkpt>
      <trkpt lat="48.35013" lon="2.76466">
        <ele>93.199996948242</ele>
        <time>2022-03-17T12:54:28Z</time>
      </trkpt>
      <trkpt lat="48.35011" lon="2.76461">
        <ele>93.599998474121</ele>
        <time>2022-03-17T12:54:33Z</time>
      </trkpt>
      <trkpt lat="48.35009" lon="2.76458">
        <ele>93.800003051758</ele>
        <time>2022-03-17T12:54:38Z</time>
      </trkpt>
      <trkpt lat="48.35005" lon="2.76455">
        <ele>94.199996948242</ele>
        <time>2022-03-17T12:54:43Z</time>
      </trkpt>
      <trkpt lat="48.35" lon="2.76451">
        <ele>94.400001525879</ele>
        <time>2022-03-17T12:54:48Z</time>
      </trkpt>
      <trkpt lat="48.34992" lon="2.76448">
        <ele>94.800003051758</ele>
        <time>2022-03-17T12:54:53Z</time>
      </trkpt>
      <trkpt lat="48.34986" lon="2.76448">
        <ele>95</ele>
        <time>2022-03-17T12:54:58Z</time>
      </trkpt>
      <trkpt lat="48.34973" lon="2.76445">
        <ele>95.599998474121</ele>
        <time>2022-03-17T12:55:03Z</time>
      </trkpt>
      <trkpt lat="48.34964" lon="2.76442">
        <ele>96.199996948242</ele>
        <time>2022-03-17T12:55:08Z</time>
      </trkpt>
      <trkpt lat="48.34959" lon="2.76439">
        <ele>96.199996948242</ele>
        <time>2022-03-17T12:55:13Z</time>
      </trkpt>
      <trkpt lat="48.34956" lon="2.7643">
        <ele>97</ele>
        <time>2022-03-17T12:55:18Z</time>
      </trkpt>
      <trkpt lat="48.34955" lon="2.76428">
        <ele>97.599998474121</ele>
        <time>2022-03-17T12:55:23Z</time>
      </trkpt>
      <trkpt lat="48.34954" lon="2.76428">
        <ele>98</ele>
        <time>2022-03-17T12:55:28Z</time>
      </trkpt>
      <trkpt lat="48.34954" lon="2.76428">
        <ele>98</ele>
        <time>2022-03-17T12:55:33Z</time>
      </trkpt>
      <trkpt lat="48.34955" lon="2.76429">
        <ele>98</ele>
        <time>2022-03-17T12:55:38Z</time>
      </trkpt>
      <trkpt lat="48.34956" lon="2.76431">
        <ele>97.599998474121</ele>
        <time>2022-03-17T12:55:43Z</time>
      </trkpt>
      <trkpt lat="48.34956" lon="2.7643">
        <ele>97.599998474121</ele>
        <time>2022-03-17T12:55:48Z</time>
      </trkpt>
      <trkpt lat="48.3495" lon="2.76423">
        <ele>97.599998474121</ele>
        <time>2022-03-17T12:55:53Z</time>
      </trkpt>
      <trkpt lat="48.34946" lon="2.76419">
        <ele>98.199996948242</ele>
        <time>2022-03-17T12:55:58Z</time>
      </trkpt>
      <trkpt lat="48.34943" lon="2.76418">
        <ele>98.599998474121</ele>
        <time>2022-03-17T12:56:03Z</time>
      </trkpt>
      <trkpt lat="48.3494" lon="2.76416">
        <ele>99.400001525879</ele>
        <time>2022-03-17T12:56:08Z</time>
      </trkpt>
      <trkpt lat="48.34938" lon="2.76414">
        <ele>99.599998474121</ele>
        <time>2022-03-17T12:56:13Z</time>
      </trkpt>
      <trkpt lat="48.34937" lon="2.76412">
        <ele>99.800003051758</ele>
        <time>2022-03-17T12:56:18Z</time>
      </trkpt>
      <trkpt lat="48.34933" lon="2.76409">
        <ele>100</ele>
        <time>2022-03-17T12:56:23Z</time>
      </trkpt>
      <trkpt lat="48.34933" lon="2.76406">
        <ele>100</ele>
        <time>2022-03-17T12:56:28Z</time>
      </trkpt>
      <trkpt lat="48.3493" lon="2.76402">
        <ele>100</ele>
        <time>2022-03-17T12:56:33Z</time>
      </trkpt>
      <trkpt lat="48.34926" lon="2.764">
        <ele>99.800003051758</ele>
        <time>2022-03-17T12:56:38Z</time>
      </trkpt>
      <trkpt lat="48.34919" lon="2.76399">
        <ele>99.400001525879</ele>
        <time>2022-03-17T12:56:43Z</time>
      </trkpt>
      <trkpt lat="48.34913" lon="2.76397">
        <ele>99.199996948242</ele>
        <time>2022-03-17T12:56:48Z</time>
      </trkpt>
      <trkpt lat="48.34909" lon="2.76396">
        <ele>98.400001525879</ele>
        <time>2022-03-17T12:56:53Z</time>
      </trkpt>
      <trkpt lat="48.34907" lon="2.76394">
        <ele>98</ele>
        <time>2022-03-17T12:56:58Z</time>
      </trkpt>
      <trkpt lat="48.34905" lon="2.76392">
        <ele>97.599998474121</ele>
        <time>2022-03-17T12:57:03Z</time>
      </trkpt>
      <trkpt lat="48.34901" lon="2.7639">
        <ele>97</ele>
        <time>2022-03-17T12:57:08Z</time>
      </trkpt>
      <trkpt lat="48.34886" lon="2.76391">
        <ele>96.400001525879</ele>
        <time>2022-03-17T12:57:13Z</time>
      </trkpt>
      <trkpt lat="48.34874" lon="2.76392">
        <ele>96.199996948242</ele>
        <time>2022-03-17T12:57:18Z</time>
      </trkpt>
      <trkpt lat="48.34869" lon="2.76391">
        <ele>95.599998474121</ele>
        <time>2022-03-17T12:57:23Z</time>
      </trkpt>
      <trkpt lat="48.34864" lon="2.7639">
        <ele>95.400001525879</ele>
        <time>2022-03-17T12:57:28Z</time>
      </trkpt>
      <trkpt lat="48.34859" lon="2.7639">
        <ele>95.400001525879</ele>
        <time>2022-03-17T12:57:33Z</time>
      </trkpt>
      <trkpt lat="48.34855" lon="2.7639">
        <ele>95.400001525879</ele>
        <time>2022-03-17T12:57:38Z</time>
      </trkpt>
      <trkpt lat="48.34849" lon="2.76392">
        <ele>95.400001525879</ele>
        <time>2022-03-17T12:57:43Z</time>
      </trkpt>
      <trkpt lat="48.34848" lon="2.7639">
        <ele>95.400001525879</ele>
        <time>2022-03-17T12:57:48Z</time>
      </trkpt>
      <trkpt lat="48.34846" lon="2.76389">
        <ele>95.400001525879</ele>
        <time>2022-03-17T12:57:53Z</time>
      </trkpt>
      <trkpt lat="48.34839" lon="2.76386">
        <ele>95.400001525879</ele>
        <time>2022-03-17T12:57:58Z</time>
      </trkpt>
      <trkpt lat="48.34835" lon="2.76384">
        <ele>95.800003051758</ele>
        <time>2022-03-17T12:58:03Z</time>
      </trkpt>
      <trkpt lat="48.34831" lon="2.76383">
        <ele>95.800003051758</ele>
        <time>2022-03-17T12:58:08Z</time>
      </trkpt>
      <trkpt lat="48.34827" lon="2.76383">
        <ele>95.800003051758</ele>
        <time>2022-03-17T12:58:13Z</time>
      </trkpt>
      <trkpt lat="48.34823" lon="2.7638">
        <ele>96</ele>
        <time>2022-03-17T12:58:18Z</time>
      </trkpt>
      <trkpt lat="48.34821" lon="2.76376">
        <ele>96.199996948242</ele>
        <time>2022-03-17T12:58:23Z</time>
      </trkpt>
      <trkpt lat="48.34816" lon="2.76375">
        <ele>96.400001525879</ele>
        <time>2022-03-17T12:58:28Z</time>
      </trkpt>
      <trkpt lat="48.34816" lon="2.76372">
        <ele>96.400001525879</ele>
        <time>2022-03-17T12:58:33Z</time>
      </trkpt>
      <trkpt lat="48.34811" lon="2.76371">
        <ele>96.199996948242</ele>
        <time>2022-03-17T12:58:38Z</time>
      </trkpt>
      <trkpt lat="48.34807" lon="2.7637">
        <ele>96.199996948242</ele>
        <time>2022-03-17T12:58:43Z</time>
      </trkpt>
      <trkpt lat="48.34799" lon="2.76369">
        <ele>96.199996948242</ele>
        <time>2022-03-17T12:58:48Z</time>
      </trkpt>
      <trkpt lat="48.3479" lon="2.76364">
        <ele>96.400001525879</ele>
        <time>2022-03-17T12:58:53Z</time>
      </trkpt>
      <trkpt lat="48.34789" lon="2.76362">
        <ele>96.400001525879</ele>
        <time>2022-03-17T12:58:58Z</time>
      </trkpt>
      <trkpt lat="48.34789" lon="2.7636">
        <ele>96.599998474121</ele>
        <time>2022-03-17T12:59:03Z</time>
      </trkpt>
      <trkpt lat="48.34789" lon="2.76358">
        <ele>96.599998474121</ele>
        <time>2022-03-17T12:59:08Z</time>
      </trkpt>
      <trkpt lat="48.34787" lon="2.76354">
        <ele>96.599998474121</ele>
        <time>2022-03-17T12:59:13Z</time>
      </trkpt>
      <trkpt lat="48.34779" lon="2.76347">
        <ele>96.599998474121</ele>
        <time>2022-03-17T12:59:18Z</time>
      </trkpt>
      <trkpt lat="48.3477" lon="2.76342">
        <ele>96.800003051758</ele>
        <time>2022-03-17T12:59:23Z</time>
      </trkpt>
      <trkpt lat="48.34763" lon="2.76338">
        <ele>97</ele>
        <time>2022-03-17T12:59:28Z</time>
      </trkpt>
      <trkpt lat="48.34756" lon="2.76336">
        <ele>97</ele>
        <time>2022-03-17T12:59:33Z</time>
      </trkpt>
      <trkpt lat="48.34754" lon="2.76335">
        <ele>97</ele>
        <time>2022-03-17T12:59:38Z</time>
      </trkpt>
      <trkpt lat="48.34749" lon="2.76333">
        <ele>97</ele>
        <time>2022-03-17T12:59:43Z</time>
      </trkpt>
      <trkpt lat="48.34746" lon="2.7633">
        <ele>96.800003051758</ele>
        <time>2022-03-17T12:59:48Z</time>
      </trkpt>
      <trkpt lat="48.34742" lon="2.76331">
        <ele>96.599998474121</ele>
        <time>2022-03-17T12:59:53Z</time>
      </trkpt>
      <trkpt lat="48.34735" lon="2.7633">
        <ele>96.400001525879</ele>
        <time>2022-03-17T12:59:58Z</time>
      </trkpt>
      <trkpt lat="48.34733" lon="2.76324">
        <ele>96.400001525879</ele>
        <time>2022-03-17T13:00:03Z</time>
      </trkpt>
      <trkpt lat="48.34729" lon="2.76323">
        <ele>96.400001525879</ele>
        <time>2022-03-17T13:00:08Z</time>
      </trkpt>
      <trkpt lat="48.3472" lon="2.76323">
        <ele>96.599998474121</ele>
        <time>2022-03-17T13:00:13Z</time>
      </trkpt>
      <trkpt lat="48.34713" lon="2.76323">
        <ele>96.599998474121</ele>
        <time>2022-03-17T13:00:18Z</time>
      </trkpt>
      <trkpt lat="48.34705" lon="2.76324">
        <ele>96.800003051758</ele>
        <time>2022-03-17T13:00:23Z</time>
      </trkpt>
      <trkpt lat="48.34697" lon="2.76326">
        <ele>96.599998474121</ele>
        <time>2022-03-17T13:00:28Z</time>
      </trkpt>
      <trkpt lat="48.34691" lon="2.76326">
        <ele>96.599998474121</ele>
        <time>2022-03-17T13:00:33Z</time>
      </trkpt>
      <trkpt lat="48.34685" lon="2.76326">
        <ele>96.400001525879</ele>
        <time>2022-03-17T13:00:38Z</time>
      </trkpt>
      <trkpt lat="48.34677" lon="2.76327">
        <ele>96.599998474121</ele>
        <time>2022-03-17T13:00:43Z</time>
      </trkpt>
      <trkpt lat="48.3467" lon="2.76326">
        <ele>96.599998474121</ele>
        <time>2022-03-17T13:00:48Z</time>
      </trkpt>
      <trkpt lat="48.34665" lon="2.76325">
        <ele>96.199996948242</ele>
        <time>2022-03-17T13:00:53Z</time>
      </trkpt>
      <trkpt lat="48.34663" lon="2.7632">
        <ele>96</ele>
        <time>2022-03-17T13:00:58Z</time>
      </trkpt>
      <trkpt lat="48.34662" lon="2.76319">
        <ele>96</ele>
        <time>2022-03-17T13:01:03Z</time>
      </trkpt>
      <trkpt lat="48.34658" lon="2.76319">
        <ele>96</ele>
        <time>2022-03-17T13:01:08Z</time>
      </trkpt>
      <trkpt lat="48.34647" lon="2.76321">
        <ele>96.199996948242</ele>
        <time>2022-03-17T13:01:13Z</time>
      </trkpt>
      <trkpt lat="48.34641" lon="2.76318">
        <ele>96.400001525879</ele>
        <time>2022-03-17T13:01:18Z</time>
      </trkpt>
      <trkpt lat="48.34636" lon="2.76315">
        <ele>96.400001525879</ele>
        <time>2022-03-17T13:01:23Z</time>
      </trkpt>
      <trkpt lat="48.34627" lon="2.76313">
        <ele>96.599998474121</ele>
        <time>2022-03-17T13:01:28Z</time>
      </trkpt>
      <trkpt lat="48.34623" lon="2.7631">
        <ele>96.599998474121</ele>
        <time>2022-03-17T13:01:33Z</time>
      </trkpt>
      <trkpt lat="48.34617" lon="2.76309">
        <ele>96.599998474121</ele>
        <time>2022-03-17T13:01:38Z</time>
      </trkpt>
      <trkpt lat="48.34613" lon="2.76308">
        <ele>96.599998474121</ele>
        <time>2022-03-17T13:01:43Z</time>
      </trkpt>
      <trkpt lat="48.34608" lon="2.76307">
        <ele>96.599998474121</ele>
        <time>2022-03-17T13:01:48Z</time>
      </trkpt>
      <trkpt lat="48.34604" lon="2.76304">
        <ele>96.599998474121</ele>
        <time>2022-03-17T13:01:53Z</time>
      </trkpt>
      <trkpt lat="48.34598" lon="2.76302">
        <ele>96.800003051758</ele>
        <time>2022-03-17T13:01:58Z</time>
      </trkpt>
      <trkpt lat="48.34597" lon="2.76301">
        <ele>97</ele>
        <time>2022-03-17T13:02:03Z</time>
      </trkpt>
      <trkpt lat="48.34595" lon="2.763">
        <ele>97.400001525879</ele>
        <time>2022-03-17T13:02:08Z</time>
      </trkpt>
      <trkpt lat="48.34594" lon="2.76297">
        <ele>97.400001525879</ele>
        <time>2022-03-17T13:02:13Z</time>
      </trkpt>
      <trkpt lat="48.34589" lon="2.7629">
        <ele>97.199996948242</ele>
        <time>2022-03-17T13:02:18Z</time>
      </trkpt>
      <trkpt lat="48.34585" lon="2.76287">
        <ele>97.199996948242</ele>
        <time>2022-03-17T13:02:23Z</time>
      </trkpt>
      <trkpt lat="48.34581" lon="2.76286">
        <ele>97</ele>
        <time>2022-03-17T13:02:28Z</time>
      </trkpt>
      <trkpt lat="48.34579" lon="2.76279">
        <ele>96.800003051758</ele>
        <time>2022-03-17T13:02:33Z</time>
      </trkpt>
      <trkpt lat="48.34574" lon="2.76273">
        <ele>96.800003051758</ele>
        <time>2022-03-17T13:02:38Z</time>
      </trkpt>
      <trkpt lat="48.34571" lon="2.76271">
        <ele>96.800003051758</ele>
        <time>2022-03-17T13:02:43Z</time>
      </trkpt>
      <trkpt lat="48.34569" lon="2.7627">
        <ele>96.800003051758</ele>
        <time>2022-03-17T13:02:48Z</time>
      </trkpt>
      <trkpt lat="48.34564" lon="2.76268">
        <ele>97.199996948242</ele>
        <time>2022-03-17T13:02:53Z</time>
      </trkpt>
      <trkpt lat="48.34557" lon="2.76266">
        <ele>97.400001525879</ele>
        <time>2022-03-17T13:02:58Z</time>
      </trkpt>
      <trkpt lat="48.34554" lon="2.76264">
        <ele>97.599998474121</ele>
        <time>2022-03-17T13:03:03Z</time>
      </trkpt>
      <trkpt lat="48.34548" lon="2.76259">
        <ele>97.599998474121</ele>
        <time>2022-03-17T13:03:08Z</time>
      </trkpt>
      <trkpt lat="48.34538" lon="2.76252">
        <ele>97.599998474121</ele>
        <time>2022-03-17T13:03:13Z</time>
      </trkpt>
      <trkpt lat="48.3453" lon="2.76249">
        <ele>97.599998474121</ele>
        <time>2022-03-17T13:03:18Z</time>
      </trkpt>
      <trkpt lat="48.34525" lon="2.76244">
        <ele>97.599998474121</ele>
        <time>2022-03-17T13:03:23Z</time>
      </trkpt>
      <trkpt lat="48.3452" lon="2.76239">
        <ele>97.599998474121</ele>
        <time>2022-03-17T13:03:28Z</time>
      </trkpt>
      <trkpt lat="48.34512" lon="2.76234">
        <ele>97.599998474121</ele>
        <time>2022-03-17T13:03:33Z</time>
      </trkpt>
      <trkpt lat="48.34506" lon="2.7623">
        <ele>97.599998474121</ele>
        <time>2022-03-17T13:03:38Z</time>
      </trkpt>
      <trkpt lat="48.34503" lon="2.76226">
        <ele>97.599998474121</ele>
        <time>2022-03-17T13:03:43Z</time>
      </trkpt>
      <trkpt lat="48.34501" lon="2.76222">
        <ele>98</ele>
        <time>2022-03-17T13:03:48Z</time>
      </trkpt>
      <trkpt lat="48.34491" lon="2.76217">
        <ele>98.199996948242</ele>
        <time>2022-03-17T13:03:53Z</time>
      </trkpt>
      <trkpt lat="48.34484" lon="2.76211">
        <ele>98.400001525879</ele>
        <time>2022-03-17T13:03:58Z</time>
      </trkpt>
      <trkpt lat="48.34483" lon="2.76209">
        <ele>98.199996948242</ele>
        <time>2022-03-17T13:04:03Z</time>
      </trkpt>
      <trkpt lat="48.34481" lon="2.76205">
        <ele>98.400001525879</ele>
        <time>2022-03-17T13:04:08Z</time>
      </trkpt>
      <trkpt lat="48.34477" lon="2.762">
        <ele>98.400001525879</ele>
        <time>2022-03-17T13:04:13Z</time>
      </trkpt>
      <trkpt lat="48.34473" lon="2.76192">
        <ele>98.199996948242</ele>
        <time>2022-03-17T13:04:18Z</time>
      </trkpt>
      <trkpt lat="48.34464" lon="2.76189">
        <ele>98.199996948242</ele>
        <time>2022-03-17T13:04:23Z</time>
      </trkpt>
      <trkpt lat="48.34453" lon="2.76189">
        <ele>98</ele>
        <time>2022-03-17T13:04:28Z</time>
      </trkpt>
      <trkpt lat="48.34445" lon="2.76185">
        <ele>98</ele>
        <time>2022-03-17T13:04:33Z</time>
      </trkpt>
      <trkpt lat="48.34441" lon="2.76182">
        <ele>98.199996948242</ele>
        <time>2022-03-17T13:04:38Z</time>
      </trkpt>
      <trkpt lat="48.34435" lon="2.76178">
        <ele>98.199996948242</ele>
        <time>2022-03-17T13:04:43Z</time>
      </trkpt>
      <trkpt lat="48.34431" lon="2.76174">
        <ele>98.599998474121</ele>
        <time>2022-03-17T13:04:48Z</time>
      </trkpt>
      <trkpt lat="48.34429" lon="2.7617">
        <ele>98.599998474121</ele>
        <time>2022-03-17T13:04:53Z</time>
      </trkpt>
      <trkpt lat="48.34428" lon="2.76165">
        <ele>98.800003051758</ele>
        <time>2022-03-17T13:04:58Z</time>
      </trkpt>
      <trkpt lat="48.34427" lon="2.76161">
        <ele>98.800003051758</ele>
        <time>2022-03-17T13:05:03Z</time>
      </trkpt>
      <trkpt lat="48.34429" lon="2.76156">
        <ele>98.800003051758</ele>
        <time>2022-03-17T13:05:08Z</time>
      </trkpt>
      <trkpt lat="48.34428" lon="2.76152">
        <ele>98.800003051758</ele>
        <time>2022-03-17T13:05:13Z</time>
      </trkpt>
      <trkpt lat="48.34426" lon="2.76146">
        <ele>98.800003051758</ele>
        <time>2022-03-17T13:05:18Z</time>
      </trkpt>
      <trkpt lat="48.34421" lon="2.76139">
        <ele>98.800003051758</ele>
        <time>2022-03-17T13:05:23Z</time>
      </trkpt>
      <trkpt lat="48.34416" lon="2.76129">
        <ele>98.800003051758</ele>
        <time>2022-03-17T13:05:28Z</time>
      </trkpt>
      <trkpt lat="48.34412" lon="2.76119">
        <ele>98.800003051758</ele>
        <time>2022-03-17T13:05:33Z</time>
      </trkpt>
      <trkpt lat="48.3441" lon="2.76108">
        <ele>98.800003051758</ele>
        <time>2022-03-17T13:05:38Z</time>
      </trkpt>
      <trkpt lat="48.34406" lon="2.761">
        <ele>98.800003051758</ele>
        <time>2022-03-17T13:05:43Z</time>
      </trkpt>
      <trkpt lat="48.34399" lon="2.76094">
        <ele>98.800003051758</ele>
        <time>2022-03-17T13:05:48Z</time>
      </trkpt>
      <trkpt lat="48.34393" lon="2.7609">
        <ele>98.800003051758</ele>
        <time>2022-03-17T13:05:53Z</time>
      </trkpt>
      <trkpt lat="48.34392" lon="2.76083">
        <ele>98.800003051758</ele>
        <time>2022-03-17T13:05:58Z</time>
      </trkpt>
      <trkpt lat="48.3439" lon="2.7608">
        <ele>98.800003051758</ele>
        <time>2022-03-17T13:06:03Z</time>
      </trkpt>
      <trkpt lat="48.34387" lon="2.76075">
        <ele>98.800003051758</ele>
        <time>2022-03-17T13:06:08Z</time>
      </trkpt>
      <trkpt lat="48.34384" lon="2.76073">
        <ele>98.599998474121</ele>
        <time>2022-03-17T13:06:13Z</time>
      </trkpt>
      <trkpt lat="48.34381" lon="2.76075">
        <ele>98.400001525879</ele>
        <time>2022-03-17T13:06:18Z</time>
      </trkpt>
      <trkpt lat="48.34374" lon="2.76081">
        <ele>98.199996948242</ele>
        <time>2022-03-17T13:06:23Z</time>
      </trkpt>
      <trkpt lat="48.34367" lon="2.76089">
        <ele>98.199996948242</ele>
        <time>2022-03-17T13:06:28Z</time>
      </trkpt>
      <trkpt lat="48.3436" lon="2.76093">
        <ele>98</ele>
        <time>2022-03-17T13:06:33Z</time>
      </trkpt>
      <trkpt lat="48.34358" lon="2.76095">
        <ele>97.800003051758</ele>
        <time>2022-03-17T13:06:38Z</time>
      </trkpt>
      <trkpt lat="48.34353" lon="2.76098">
        <ele>97.400001525879</ele>
        <time>2022-03-17T13:06:43Z</time>
      </trkpt>
      <trkpt lat="48.3435" lon="2.76103">
        <ele>97.400001525879</ele>
        <time>2022-03-17T13:06:48Z</time>
      </trkpt>
      <trkpt lat="48.34347" lon="2.76109">
        <ele>97.400001525879</ele>
        <time>2022-03-17T13:06:53Z</time>
      </trkpt>
      <trkpt lat="48.34344" lon="2.76117">
        <ele>97.400001525879</ele>
        <time>2022-03-17T13:06:58Z</time>
      </trkpt>
      <trkpt lat="48.34339" lon="2.76124">
        <ele>97.199996948242</ele>
        <time>2022-03-17T13:07:03Z</time>
      </trkpt>
      <trkpt lat="48.34337" lon="2.76126">
        <ele>97</ele>
        <time>2022-03-17T13:07:08Z</time>
      </trkpt>
      <trkpt lat="48.34334" lon="2.7613">
        <ele>96.599998474121</ele>
        <time>2022-03-17T13:07:13Z</time>
      </trkpt>
      <trkpt lat="48.34333" lon="2.76134">
        <ele>96.400001525879</ele>
        <time>2022-03-17T13:07:18Z</time>
      </trkpt>
      <trkpt lat="48.3433" lon="2.76142">
        <ele>96</ele>
        <time>2022-03-17T13:07:23Z</time>
      </trkpt>
      <trkpt lat="48.34327" lon="2.76148">
        <ele>95.800003051758</ele>
        <time>2022-03-17T13:07:28Z</time>
      </trkpt>
      <trkpt lat="48.34319" lon="2.76153">
        <ele>95.800003051758</ele>
        <time>2022-03-17T13:07:33Z</time>
      </trkpt>
      <trkpt lat="48.34312" lon="2.76161">
        <ele>95.400001525879</ele>
        <time>2022-03-17T13:07:38Z</time>
      </trkpt>
      <trkpt lat="48.34305" lon="2.76166">
        <ele>95.199996948242</ele>
        <time>2022-03-17T13:07:43Z</time>
      </trkpt>
      <trkpt lat="48.34301" lon="2.76173">
        <ele>94.800003051758</ele>
        <time>2022-03-17T13:07:48Z</time>
      </trkpt>
      <trkpt lat="48.34296" lon="2.76181">
        <ele>94.800003051758</ele>
        <time>2022-03-17T13:07:53Z</time>
      </trkpt>
      <trkpt lat="48.34293" lon="2.76187">
        <ele>94.400001525879</ele>
        <time>2022-03-17T13:07:58Z</time>
      </trkpt>
      <trkpt lat="48.34287" lon="2.762">
        <ele>94.199996948242</ele>
        <time>2022-03-17T13:08:03Z</time>
      </trkpt>
      <trkpt lat="48.34282" lon="2.76216">
        <ele>94</ele>
        <time>2022-03-17T13:08:08Z</time>
      </trkpt>
      <trkpt lat="48.34278" lon="2.76224">
        <ele>93.599998474121</ele>
        <time>2022-03-17T13:08:13Z</time>
      </trkpt>
      <trkpt lat="48.34271" lon="2.76231">
        <ele>93.199996948242</ele>
        <time>2022-03-17T13:08:18Z</time>
      </trkpt>
      <trkpt lat="48.34266" lon="2.76236">
        <ele>93</ele>
        <time>2022-03-17T13:08:23Z</time>
      </trkpt>
      <trkpt lat="48.34263" lon="2.76241">
        <ele>92.599998474121</ele>
        <time>2022-03-17T13:08:28Z</time>
      </trkpt>
      <trkpt lat="48.3426" lon="2.76246">
        <ele>92</ele>
        <time>2022-03-17T13:08:33Z</time>
      </trkpt>
      <trkpt lat="48.34257" lon="2.7625">
        <ele>91.599998474121</ele>
        <time>2022-03-17T13:08:38Z</time>
      </trkpt>
      <trkpt lat="48.34253" lon="2.76255">
        <ele>91.199996948242</ele>
        <time>2022-03-17T13:08:43Z</time>
      </trkpt>
      <trkpt lat="48.3425" lon="2.7626">
        <ele>90.599998474121</ele>
        <time>2022-03-17T13:08:48Z</time>
      </trkpt>
      <trkpt lat="48.3425" lon="2.76265">
        <ele>90.400001525879</ele>
        <time>2022-03-17T13:08:53Z</time>
      </trkpt>
      <trkpt lat="48.34247" lon="2.76267">
        <ele>89.800003051758</ele>
        <time>2022-03-17T13:08:58Z</time>
      </trkpt>
      <trkpt lat="48.3424" lon="2.76273">
        <ele>89.199996948242</ele>
        <time>2022-03-17T13:09:03Z</time>
      </trkpt>
      <trkpt lat="48.34237" lon="2.76278">
        <ele>88.599998474121</ele>
        <time>2022-03-17T13:09:08Z</time>
      </trkpt>
      <trkpt lat="48.34235" lon="2.76278">
        <ele>88</ele>
        <time>2022-03-17T13:09:13Z</time>
      </trkpt>
      <trkpt lat="48.34235" lon="2.76276">
        <ele>88.199996948242</ele>
        <time>2022-03-17T13:09:18Z</time>
      </trkpt>
      <trkpt lat="48.34235" lon="2.76272">
        <ele>88.599998474121</ele>
        <time>2022-03-17T13:09:23Z</time>
      </trkpt>
      <trkpt lat="48.34235" lon="2.76268">
        <ele>88.800003051758</ele>
        <time>2022-03-17T13:09:28Z</time>
      </trkpt>
      <trkpt lat="48.34235" lon="2.76262">
        <ele>88.800003051758</ele>
        <time>2022-03-17T13:09:33Z</time>
      </trkpt>
      <trkpt lat="48.34234" lon="2.76255">
        <ele>89</ele>
        <time>2022-03-17T13:09:38Z</time>
      </trkpt>
      <trkpt lat="48.34231" lon="2.7625">
        <ele>89</ele>
        <time>2022-03-17T13:09:43Z</time>
      </trkpt>
      <trkpt lat="48.34228" lon="2.76242">
        <ele>89</ele>
        <time>2022-03-17T13:09:48Z</time>
      </trkpt>
      <trkpt lat="48.34228" lon="2.76238">
        <ele>89.199996948242</ele>
        <time>2022-03-17T13:09:53Z</time>
      </trkpt>
      <trkpt lat="48.34224" lon="2.76234">
        <ele>89.400001525879</ele>
        <time>2022-03-17T13:09:58Z</time>
      </trkpt>
      <trkpt lat="48.34217" lon="2.7623">
        <ele>89.400001525879</ele>
        <time>2022-03-17T13:10:03Z</time>
      </trkpt>
      <trkpt lat="48.34212" lon="2.76226">
        <ele>89.599998474121</ele>
        <time>2022-03-17T13:10:08Z</time>
      </trkpt>
      <trkpt lat="48.34209" lon="2.76218">
        <ele>90</ele>
        <time>2022-03-17T13:10:13Z</time>
      </trkpt>
      <trkpt lat="48.34206" lon="2.7621">
        <ele>90</ele>
        <time>2022-03-17T13:10:18Z</time>
      </trkpt>
      <trkpt lat="48.342" lon="2.76205">
        <ele>90.400001525879</ele>
        <time>2022-03-17T13:10:23Z</time>
      </trkpt>
      <trkpt lat="48.34199" lon="2.76197">
        <ele>90.599998474121</ele>
        <time>2022-03-17T13:10:28Z</time>
      </trkpt>
      <trkpt lat="48.34198" lon="2.76193">
        <ele>91</ele>
        <time>2022-03-17T13:10:33Z</time>
      </trkpt>
      <trkpt lat="48.34195" lon="2.76189">
        <ele>91</ele>
        <time>2022-03-17T13:10:38Z</time>
      </trkpt>
      <trkpt lat="48.34192" lon="2.76186">
        <ele>91.400001525879</ele>
        <time>2022-03-17T13:10:43Z</time>
      </trkpt>
      <trkpt lat="48.34189" lon="2.7618">
        <ele>91.400001525879</ele>
        <time>2022-03-17T13:10:48Z</time>
      </trkpt>
      <trkpt lat="48.34184" lon="2.76174">
        <ele>91.400001525879</ele>
        <time>2022-03-17T13:10:53Z</time>
      </trkpt>
      <trkpt lat="48.3418" lon="2.76169">
        <ele>91.599998474121</ele>
        <time>2022-03-17T13:10:58Z</time>
      </trkpt>
      <trkpt lat="48.34176" lon="2.76162">
        <ele>91.599998474121</ele>
        <time>2022-03-17T13:11:03Z</time>
      </trkpt>
      <trkpt lat="48.3417" lon="2.76147">
        <ele>92</ele>
        <time>2022-03-17T13:11:08Z</time>
      </trkpt>
      <trkpt lat="48.34165" lon="2.76136">
        <ele>92.199996948242</ele>
        <time>2022-03-17T13:11:13Z</time>
      </trkpt>
      <trkpt lat="48.34159" lon="2.76127">
        <ele>92.199996948242</ele>
        <time>2022-03-17T13:11:18Z</time>
      </trkpt>
      <trkpt lat="48.34157" lon="2.76116">
        <ele>92.400001525879</ele>
        <time>2022-03-17T13:11:23Z</time>
      </trkpt>
      <trkpt lat="48.34152" lon="2.76109">
        <ele>92.599998474121</ele>
        <time>2022-03-17T13:11:28Z</time>
      </trkpt>
      <trkpt lat="48.34151" lon="2.761">
        <ele>92.800003051758</ele>
        <time>2022-03-17T13:11:33Z</time>
      </trkpt>
      <trkpt lat="48.34149" lon="2.76093">
        <ele>93</ele>
        <time>2022-03-17T13:11:38Z</time>
      </trkpt>
      <trkpt lat="48.34145" lon="2.76087">
        <ele>92.800003051758</ele>
        <time>2022-03-17T13:11:43Z</time>
      </trkpt>
      <trkpt lat="48.34142" lon="2.7608">
        <ele>93</ele>
        <time>2022-03-17T13:11:48Z</time>
      </trkpt>
      <trkpt lat="48.34139" lon="2.76073">
        <ele>93</ele>
        <time>2022-03-17T13:11:53Z</time>
      </trkpt>
      <trkpt lat="48.34134" lon="2.76065">
        <ele>93.199996948242</ele>
        <time>2022-03-17T13:11:58Z</time>
      </trkpt>
      <trkpt lat="48.34131" lon="2.76058">
        <ele>93.400001525879</ele>
        <time>2022-03-17T13:12:03Z</time>
      </trkpt>
      <trkpt lat="48.34128" lon="2.76051">
        <ele>93.400001525879</ele>
        <time>2022-03-17T13:12:08Z</time>
      </trkpt>
      <trkpt lat="48.34124" lon="2.76043">
        <ele>93.400001525879</ele>
        <time>2022-03-17T13:12:13Z</time>
      </trkpt>
      <trkpt lat="48.34121" lon="2.76036">
        <ele>93.199996948242</ele>
        <time>2022-03-17T13:12:18Z</time>
      </trkpt>
      <trkpt lat="48.34117" lon="2.76028">
        <ele>93.199996948242</ele>
        <time>2022-03-17T13:12:23Z</time>
      </trkpt>
      <trkpt lat="48.34112" lon="2.76021">
        <ele>93</ele>
        <time>2022-03-17T13:12:28Z</time>
      </trkpt>
      <trkpt lat="48.3411" lon="2.76014">
        <ele>93</ele>
        <time>2022-03-17T13:12:33Z</time>
      </trkpt>
      <trkpt lat="48.34107" lon="2.76006">
        <ele>93</ele>
        <time>2022-03-17T13:12:38Z</time>
      </trkpt>
      <trkpt lat="48.34104" lon="2.75997">
        <ele>92.800003051758</ele>
        <time>2022-03-17T13:12:43Z</time>
      </trkpt>
      <trkpt lat="48.34099" lon="2.75991">
        <ele>92.599998474121</ele>
        <time>2022-03-17T13:12:48Z</time>
      </trkpt>
      <trkpt lat="48.34093" lon="2.75985">
        <ele>92.599998474121</ele>
        <time>2022-03-17T13:12:53Z</time>
      </trkpt>
      <trkpt lat="48.3409" lon="2.7598">
        <ele>92.599998474121</ele>
        <time>2022-03-17T13:12:58Z</time>
      </trkpt>
      <trkpt lat="48.34085" lon="2.75976">
        <ele>92.400001525879</ele>
        <time>2022-03-17T13:13:03Z</time>
      </trkpt>
      <trkpt lat="48.3408" lon="2.75972">
        <ele>92.400001525879</ele>
        <time>2022-03-17T13:13:08Z</time>
      </trkpt>
      <trkpt lat="48.34073" lon="2.75968">
        <ele>92.199996948242</ele>
        <time>2022-03-17T13:13:13Z</time>
      </trkpt>
      <trkpt lat="48.34066" lon="2.75963">
        <ele>91.800003051758</ele>
        <time>2022-03-17T13:13:18Z</time>
      </trkpt>
      <trkpt lat="48.34061" lon="2.75958">
        <ele>91.800003051758</ele>
        <time>2022-03-17T13:13:23Z</time>
      </trkpt>
      <trkpt lat="48.34057" lon="2.75952">
        <ele>91.599998474121</ele>
        <time>2022-03-17T13:13:28Z</time>
      </trkpt>
      <trkpt lat="48.34055" lon="2.75945">
        <ele>91.599998474121</ele>
        <time>2022-03-17T13:13:33Z</time>
      </trkpt>
      <trkpt lat="48.34051" lon="2.75939">
        <ele>91.400001525879</ele>
        <time>2022-03-17T13:13:38Z</time>
      </trkpt>
      <trkpt lat="48.34048" lon="2.75932">
        <ele>91.199996948242</ele>
        <time>2022-03-17T13:13:43Z</time>
      </trkpt>
      <trkpt lat="48.34046" lon="2.75925">
        <ele>90.800003051758</ele>
        <time>2022-03-17T13:13:48Z</time>
      </trkpt>
      <trkpt lat="48.34044" lon="2.75917">
        <ele>90.400001525879</ele>
        <time>2022-03-17T13:13:53Z</time>
      </trkpt>
      <trkpt lat="48.3404" lon="2.75911">
        <ele>90.199996948242</ele>
        <time>2022-03-17T13:13:58Z</time>
      </trkpt>
      <trkpt lat="48.34035" lon="2.75905">
        <ele>89.800003051758</ele>
        <time>2022-03-17T13:14:03Z</time>
      </trkpt>
      <trkpt lat="48.34032" lon="2.75899">
        <ele>89.400001525879</ele>
        <time>2022-03-17T13:14:08Z</time>
      </trkpt>
      <trkpt lat="48.34029" lon="2.75893">
        <ele>89</ele>
        <time>2022-03-17T13:14:13Z</time>
      </trkpt>
      <trkpt lat="48.34025" lon="2.75887">
        <ele>88.599998474121</ele>
        <time>2022-03-17T13:14:18Z</time>
      </trkpt>
      <trkpt lat="48.34021" lon="2.75881">
        <ele>88.199996948242</ele>
        <time>2022-03-17T13:14:23Z</time>
      </trkpt>
      <trkpt lat="48.34017" lon="2.75875">
        <ele>87.800003051758</ele>
        <time>2022-03-17T13:14:28Z</time>
      </trkpt>
      <trkpt lat="48.34014" lon="2.75869">
        <ele>87.400001525879</ele>
        <time>2022-03-17T13:14:33Z</time>
      </trkpt>
      <trkpt lat="48.34011" lon="2.75864">
        <ele>87</ele>
        <time>2022-03-17T13:14:38Z</time>
      </trkpt>
      <trkpt lat="48.34007" lon="2.75858">
        <ele>86.800003051758</ele>
        <time>2022-03-17T13:14:43Z</time>
      </trkpt>
      <trkpt lat="48.34003" lon="2.7585">
        <ele>86.199996948242</ele>
        <time>2022-03-17T13:14:48Z</time>
      </trkpt>
      <trkpt lat="48.34001" lon="2.75843">
        <ele>85.800003051758</ele>
        <time>2022-03-17T13:14:53Z</time>
      </trkpt>
      <trkpt lat="48.33998" lon="2.75836">
        <ele>85.400001525879</ele>
        <time>2022-03-17T13:14:58Z</time>
      </trkpt>
      <trkpt lat="48.33997" lon="2.75828">
        <ele>85.199996948242</ele>
        <time>2022-03-17T13:15:03Z</time>
      </trkpt>
      <trkpt lat="48.33994" lon="2.75822">
        <ele>85</ele>
        <time>2022-03-17T13:15:08Z</time>
      </trkpt>
      <trkpt lat="48.33993" lon="2.75815">
        <ele>85</ele>
        <time>2022-03-17T13:15:13Z</time>
      </trkpt>
      <trkpt lat="48.33991" lon="2.75809">
        <ele>84.599998474121</ele>
        <time>2022-03-17T13:15:18Z</time>
      </trkpt>
      <trkpt lat="48.33987" lon="2.75806">
        <ele>84.400001525879</ele>
        <time>2022-03-17T13:15:23Z</time>
      </trkpt>
      <trkpt lat="48.33982" lon="2.75806">
        <ele>84</ele>
        <time>2022-03-17T13:15:28Z</time>
      </trkpt>
      <trkpt lat="48.33978" lon="2.75808">
        <ele>84</ele>
        <time>2022-03-17T13:15:33Z</time>
      </trkpt>
      <trkpt lat="48.33972" lon="2.75814">
        <ele>83.800003051758</ele>
        <time>2022-03-17T13:15:38Z</time>
      </trkpt>
      <trkpt lat="48.33966" lon="2.7582">
        <ele>83.599998474121</ele>
        <time>2022-03-17T13:15:43Z</time>
      </trkpt>
      <trkpt lat="48.33963" lon="2.75826">
        <ele>83.599998474121</ele>
        <time>2022-03-17T13:15:48Z</time>
      </trkpt>
      <trkpt lat="48.33959" lon="2.75832">
        <ele>83.199996948242</ele>
        <time>2022-03-17T13:15:53Z</time>
      </trkpt>
      <trkpt lat="48.33954" lon="2.75838">
        <ele>83</ele>
        <time>2022-03-17T13:15:58Z</time>
      </trkpt>
      <trkpt lat="48.33949" lon="2.75843">
        <ele>82.599998474121</ele>
        <time>2022-03-17T13:16:03Z</time>
      </trkpt>
      <trkpt lat="48.33946" lon="2.75848">
        <ele>82.400001525879</ele>
        <time>2022-03-17T13:16:08Z</time>
      </trkpt>
      <trkpt lat="48.33943" lon="2.75853">
        <ele>82</ele>
        <time>2022-03-17T13:16:13Z</time>
      </trkpt>
      <trkpt lat="48.33939" lon="2.75859">
        <ele>81.800003051758</ele>
        <time>2022-03-17T13:16:18Z</time>
      </trkpt>
      <trkpt lat="48.33936" lon="2.75865">
        <ele>81.599998474121</ele>
        <time>2022-03-17T13:16:23Z</time>
      </trkpt>
      <trkpt lat="48.33933" lon="2.75869">
        <ele>81.400001525879</ele>
        <time>2022-03-17T13:16:28Z</time>
      </trkpt>
      <trkpt lat="48.33929" lon="2.75873">
        <ele>81.199996948242</ele>
        <time>2022-03-17T13:16:33Z</time>
      </trkpt>
      <trkpt lat="48.33924" lon="2.75878">
        <ele>80.800003051758</ele>
        <time>2022-03-17T13:16:38Z</time>
      </trkpt>
      <trkpt lat="48.3392" lon="2.75882">
        <ele>80.599998474121</ele>
        <time>2022-03-17T13:16:43Z</time>
      </trkpt>
      <trkpt lat="48.33917" lon="2.7588">
        <ele>80.400001525879</ele>
        <time>2022-03-17T13:16:48Z</time>
      </trkpt>
      <trkpt lat="48.33918" lon="2.75873">
        <ele>80.400001525879</ele>
        <time>2022-03-17T13:16:53Z</time>
      </trkpt>
      <trkpt lat="48.33917" lon="2.75867">
        <ele>80.599998474121</ele>
        <time>2022-03-17T13:16:58Z</time>
      </trkpt>
      <trkpt lat="48.33918" lon="2.75861">
        <ele>81</ele>
        <time>2022-03-17T13:17:03Z</time>
      </trkpt>
      <trkpt lat="48.33919" lon="2.75856">
        <ele>81.199996948242</ele>
        <time>2022-03-17T13:17:08Z</time>
      </trkpt>
      <trkpt lat="48.33919" lon="2.75849">
        <ele>81.599998474121</ele>
        <time>2022-03-17T13:17:13Z</time>
      </trkpt>
      <trkpt lat="48.33918" lon="2.75841">
        <ele>81.800003051758</ele>
        <time>2022-03-17T13:17:18Z</time>
      </trkpt>
      <trkpt lat="48.33919" lon="2.75832">
        <ele>82.199996948242</ele>
        <time>2022-03-17T13:17:23Z</time>
      </trkpt>
      <trkpt lat="48.33919" lon="2.75823">
        <ele>82.599998474121</ele>
        <time>2022-03-17T13:17:28Z</time>
      </trkpt>
      <trkpt lat="48.33918" lon="2.75813">
        <ele>83</ele>
        <time>2022-03-17T13:17:33Z</time>
      </trkpt>
      <trkpt lat="48.33916" lon="2.75806">
        <ele>83.400001525879</ele>
        <time>2022-03-17T13:17:38Z</time>
      </trkpt>
      <trkpt lat="48.33915" lon="2.758">
        <ele>84</ele>
        <time>2022-03-17T13:17:43Z</time>
      </trkpt>
      <trkpt lat="48.33914" lon="2.75794">
        <ele>84.599998474121</ele>
        <time>2022-03-17T13:17:48Z</time>
      </trkpt>
      <trkpt lat="48.33916" lon="2.75784">
        <ele>85</ele>
        <time>2022-03-17T13:17:53Z</time>
      </trkpt>
      <trkpt lat="48.33916" lon="2.75775">
        <ele>85.199996948242</ele>
        <time>2022-03-17T13:17:58Z</time>
      </trkpt>
      <trkpt lat="48.33913" lon="2.75768">
        <ele>85.800003051758</ele>
        <time>2022-03-17T13:18:03Z</time>
      </trkpt>
      <trkpt lat="48.33913" lon="2.75761">
        <ele>86.400001525879</ele>
        <time>2022-03-17T13:18:08Z</time>
      </trkpt>
      <trkpt lat="48.33912" lon="2.75752">
        <ele>87</ele>
        <time>2022-03-17T13:18:13Z</time>
      </trkpt>
      <trkpt lat="48.33915" lon="2.75745">
        <ele>87.800003051758</ele>
        <time>2022-03-17T13:18:18Z</time>
      </trkpt>
      <trkpt lat="48.33915" lon="2.75737">
        <ele>88</ele>
        <time>2022-03-17T13:18:23Z</time>
      </trkpt>
      <trkpt lat="48.33913" lon="2.75731">
        <ele>88.199996948242</ele>
        <time>2022-03-17T13:18:28Z</time>
      </trkpt>
      <trkpt lat="48.33913" lon="2.75723">
        <ele>88.400001525879</ele>
        <time>2022-03-17T13:18:33Z</time>
      </trkpt>
      <trkpt lat="48.33911" lon="2.75714">
        <ele>88.599998474121</ele>
        <time>2022-03-17T13:18:38Z</time>
      </trkpt>
      <trkpt lat="48.3391" lon="2.75707">
        <ele>88.599998474121</ele>
        <time>2022-03-17T13:18:43Z</time>
      </trkpt>
      <trkpt lat="48.33908" lon="2.757">
        <ele>88.599998474121</ele>
        <time>2022-03-17T13:18:48Z</time>
      </trkpt>
      <trkpt lat="48.33906" lon="2.75692">
        <ele>88.599998474121</ele>
        <time>2022-03-17T13:18:53Z</time>
      </trkpt>
      <trkpt lat="48.33903" lon="2.75684">
        <ele>88.800003051758</ele>
        <time>2022-03-17T13:18:58Z</time>
      </trkpt>
      <trkpt lat="48.339" lon="2.75678">
        <ele>89</ele>
        <time>2022-03-17T13:19:03Z</time>
      </trkpt>
      <trkpt lat="48.33899" lon="2.75672">
        <ele>89</ele>
        <time>2022-03-17T13:19:08Z</time>
      </trkpt>
      <trkpt lat="48.33897" lon="2.75665">
        <ele>89.199996948242</ele>
        <time>2022-03-17T13:19:13Z</time>
      </trkpt>
      <trkpt lat="48.33895" lon="2.75658">
        <ele>89.400001525879</ele>
        <time>2022-03-17T13:19:18Z</time>
      </trkpt>
      <trkpt lat="48.33895" lon="2.7565">
        <ele>89.400001525879</ele>
        <time>2022-03-17T13:19:23Z</time>
      </trkpt>
      <trkpt lat="48.33895" lon="2.75643">
        <ele>89.599998474121</ele>
        <time>2022-03-17T13:19:28Z</time>
      </trkpt>
      <trkpt lat="48.33897" lon="2.75636">
        <ele>89.599998474121</ele>
        <time>2022-03-17T13:19:33Z</time>
      </trkpt>
      <trkpt lat="48.33899" lon="2.75629">
        <ele>89.599998474121</ele>
        <time>2022-03-17T13:19:38Z</time>
      </trkpt>
      <trkpt lat="48.339" lon="2.7562">
        <ele>89.400001525879</ele>
        <time>2022-03-17T13:19:43Z</time>
      </trkpt>
      <trkpt lat="48.33901" lon="2.75611">
        <ele>89.199996948242</ele>
        <time>2022-03-17T13:19:48Z</time>
      </trkpt>
      <trkpt lat="48.33901" lon="2.75603">
        <ele>89.400001525879</ele>
        <time>2022-03-17T13:19:53Z</time>
      </trkpt>
      <trkpt lat="48.33902" lon="2.75596">
        <ele>89.400001525879</ele>
        <time>2022-03-17T13:19:58Z</time>
      </trkpt>
      <trkpt lat="48.33902" lon="2.75587">
        <ele>89.400001525879</ele>
        <time>2022-03-17T13:20:03Z</time>
      </trkpt>
      <trkpt lat="48.33902" lon="2.75579">
        <ele>89.400001525879</ele>
        <time>2022-03-17T13:20:08Z</time>
      </trkpt>
      <trkpt lat="48.33902" lon="2.75569">
        <ele>89.400001525879</ele>
        <time>2022-03-17T13:20:13Z</time>
      </trkpt>
      <trkpt lat="48.33901" lon="2.75562">
        <ele>89.800003051758</ele>
        <time>2022-03-17T13:20:18Z</time>
      </trkpt>
      <trkpt lat="48.339" lon="2.75555">
        <ele>89.800003051758</ele>
        <time>2022-03-17T13:20:23Z</time>
      </trkpt>
      <trkpt lat="48.33901" lon="2.75548">
        <ele>90</ele>
        <time>2022-03-17T13:20:28Z</time>
      </trkpt>
      <trkpt lat="48.33899" lon="2.75542">
        <ele>90</ele>
        <time>2022-03-17T13:20:33Z</time>
      </trkpt>
      <trkpt lat="48.33896" lon="2.75536">
        <ele>90</ele>
        <time>2022-03-17T13:20:38Z</time>
      </trkpt>
      <trkpt lat="48.33888" lon="2.75526">
        <ele>90.400001525879</ele>
        <time>2022-03-17T13:20:43Z</time>
      </trkpt>
      <trkpt lat="48.33886" lon="2.75517">
        <ele>90.199996948242</ele>
        <time>2022-03-17T13:20:48Z</time>
      </trkpt>
      <trkpt lat="48.33887" lon="2.7551">
        <ele>90.400001525879</ele>
        <time>2022-03-17T13:20:53Z</time>
      </trkpt>
      <trkpt lat="48.33888" lon="2.75501">
        <ele>90.199996948242</ele>
        <time>2022-03-17T13:20:58Z</time>
      </trkpt>
      <trkpt lat="48.33888" lon="2.75493">
        <ele>90</ele>
        <time>2022-03-17T13:21:03Z</time>
      </trkpt>
      <trkpt lat="48.33889" lon="2.75484">
        <ele>90</ele>
        <time>2022-03-17T13:21:08Z</time>
      </trkpt>
      <trkpt lat="48.3389" lon="2.75477">
        <ele>90</ele>
        <time>2022-03-17T13:21:13Z</time>
      </trkpt>
      <trkpt lat="48.3389" lon="2.75469">
        <ele>90.199996948242</ele>
        <time>2022-03-17T13:21:18Z</time>
      </trkpt>
      <trkpt lat="48.33891" lon="2.75461">
        <ele>90.199996948242</ele>
        <time>2022-03-17T13:21:23Z</time>
      </trkpt>
      <trkpt lat="48.33891" lon="2.75456">
        <ele>90.400001525879</ele>
        <time>2022-03-17T13:21:28Z</time>
      </trkpt>
      <trkpt lat="48.33894" lon="2.75447">
        <ele>90.599998474121</ele>
        <time>2022-03-17T13:21:33Z</time>
      </trkpt>
      <trkpt lat="48.33895" lon="2.7544">
        <ele>90.800003051758</ele>
        <time>2022-03-17T13:21:38Z</time>
      </trkpt>
      <trkpt lat="48.33898" lon="2.75432">
        <ele>91</ele>
        <time>2022-03-17T13:21:43Z</time>
      </trkpt>
      <trkpt lat="48.339" lon="2.75424">
        <ele>91</ele>
        <time>2022-03-17T13:21:48Z</time>
      </trkpt>
      <trkpt lat="48.33903" lon="2.75417">
        <ele>91</ele>
        <time>2022-03-17T13:21:53Z</time>
      </trkpt>
      <trkpt lat="48.33906" lon="2.75408">
        <ele>91.199996948242</ele>
        <time>2022-03-17T13:21:58Z</time>
      </trkpt>
      <trkpt lat="48.33909" lon="2.754">
        <ele>91.400001525879</ele>
        <time>2022-03-17T13:22:03Z</time>
      </trkpt>
      <trkpt lat="48.3391" lon="2.75393">
        <ele>91.400001525879</ele>
        <time>2022-03-17T13:22:08Z</time>
      </trkpt>
      <trkpt lat="48.33912" lon="2.75385">
        <ele>91.599998474121</ele>
        <time>2022-03-17T13:22:13Z</time>
      </trkpt>
      <trkpt lat="48.33914" lon="2.75377">
        <ele>91.800003051758</ele>
        <time>2022-03-17T13:22:18Z</time>
      </trkpt>
      <trkpt lat="48.33916" lon="2.75368">
        <ele>91.800003051758</ele>
        <time>2022-03-17T13:22:23Z</time>
      </trkpt>
      <trkpt lat="48.33917" lon="2.75361">
        <ele>91.800003051758</ele>
        <time>2022-03-17T13:22:28Z</time>
      </trkpt>
      <trkpt lat="48.3392" lon="2.75354">
        <ele>91.800003051758</ele>
        <time>2022-03-17T13:22:33Z</time>
      </trkpt>
      <trkpt lat="48.33924" lon="2.75347">
        <ele>92</ele>
        <time>2022-03-17T13:22:38Z</time>
      </trkpt>
      <trkpt lat="48.33925" lon="2.7534">
        <ele>92.199996948242</ele>
        <time>2022-03-17T13:22:43Z</time>
      </trkpt>
      <trkpt lat="48.33928" lon="2.75333">
        <ele>92.400001525879</ele>
        <time>2022-03-17T13:22:48Z</time>
      </trkpt>
      <trkpt lat="48.33928" lon="2.75326">
        <ele>92.599998474121</ele>
        <time>2022-03-17T13:22:53Z</time>
      </trkpt>
      <trkpt lat="48.33929" lon="2.75318">
        <ele>92.800003051758</ele>
        <time>2022-03-17T13:22:58Z</time>
      </trkpt>
      <trkpt lat="48.33931" lon="2.7531">
        <ele>92.800003051758</ele>
        <time>2022-03-17T13:23:03Z</time>
      </trkpt>
      <trkpt lat="48.33933" lon="2.75302">
        <ele>92.800003051758</ele>
        <time>2022-03-17T13:23:08Z</time>
      </trkpt>
      <trkpt lat="48.33937" lon="2.75293">
        <ele>93</ele>
        <time>2022-03-17T13:23:13Z</time>
      </trkpt>
      <trkpt lat="48.3394" lon="2.75286">
        <ele>93</ele>
        <time>2022-03-17T13:23:18Z</time>
      </trkpt>
      <trkpt lat="48.33941" lon="2.75278">
        <ele>93.199996948242</ele>
        <time>2022-03-17T13:23:23Z</time>
      </trkpt>
      <trkpt lat="48.33943" lon="2.75268">
        <ele>93.400001525879</ele>
        <time>2022-03-17T13:23:28Z</time>
      </trkpt>
      <trkpt lat="48.33945" lon="2.75261">
        <ele>93.400001525879</ele>
        <time>2022-03-17T13:23:33Z</time>
      </trkpt>
      <trkpt lat="48.33944" lon="2.75252">
        <ele>93.599998474121</ele>
        <time>2022-03-17T13:23:38Z</time>
      </trkpt>
      <trkpt lat="48.33944" lon="2.75243">
        <ele>93.599998474121</ele>
        <time>2022-03-17T13:23:43Z</time>
      </trkpt>
      <trkpt lat="48.33944" lon="2.75234">
        <ele>93.599998474121</ele>
        <time>2022-03-17T13:23:48Z</time>
      </trkpt>
      <trkpt lat="48.33944" lon="2.75227">
        <ele>93.800003051758</ele>
        <time>2022-03-17T13:23:53Z</time>
      </trkpt>
      <trkpt lat="48.33942" lon="2.7522">
        <ele>94</ele>
        <time>2022-03-17T13:23:58Z</time>
      </trkpt>
      <trkpt lat="48.33942" lon="2.75214">
        <ele>94</ele>
        <time>2022-03-17T13:24:03Z</time>
      </trkpt>
      <trkpt lat="48.33943" lon="2.75205">
        <ele>94.199996948242</ele>
        <time>2022-03-17T13:24:08Z</time>
      </trkpt>
      <trkpt lat="48.33943" lon="2.75198">
        <ele>94.400001525879</ele>
        <time>2022-03-17T13:24:13Z</time>
      </trkpt>
      <trkpt lat="48.33944" lon="2.7519">
        <ele>94.599998474121</ele>
        <time>2022-03-17T13:24:18Z</time>
      </trkpt>
      <trkpt lat="48.33945" lon="2.75184">
        <ele>94.800003051758</ele>
        <time>2022-03-17T13:24:23Z</time>
      </trkpt>
      <trkpt lat="48.33945" lon="2.75177">
        <ele>95</ele>
        <time>2022-03-17T13:24:28Z</time>
      </trkpt>
      <trkpt lat="48.33947" lon="2.7517">
        <ele>95</ele>
        <time>2022-03-17T13:24:33Z</time>
      </trkpt>
      <trkpt lat="48.33949" lon="2.75164">
        <ele>95.199996948242</ele>
        <time>2022-03-17T13:24:38Z</time>
      </trkpt>
      <trkpt lat="48.33951" lon="2.75157">
        <ele>95.400001525879</ele>
        <time>2022-03-17T13:24:43Z</time>
      </trkpt>
      <trkpt lat="48.33952" lon="2.75148">
        <ele>95.400001525879</ele>
        <time>2022-03-17T13:24:48Z</time>
      </trkpt>
      <trkpt lat="48.33955" lon="2.75141">
        <ele>95.599998474121</ele>
        <time>2022-03-17T13:24:53Z</time>
      </trkpt>
      <trkpt lat="48.33958" lon="2.75134">
        <ele>95.800003051758</ele>
        <time>2022-03-17T13:24:58Z</time>
      </trkpt>
      <trkpt lat="48.33962" lon="2.75127">
        <ele>96.199996948242</ele>
        <time>2022-03-17T13:25:03Z</time>
      </trkpt>
      <trkpt lat="48.33964" lon="2.75121">
        <ele>96.400001525879</ele>
        <time>2022-03-17T13:25:08Z</time>
      </trkpt>
      <trkpt lat="48.33967" lon="2.75113">
        <ele>96.599998474121</ele>
        <time>2022-03-17T13:25:13Z</time>
      </trkpt>
      <trkpt lat="48.33969" lon="2.75106">
        <ele>96.800003051758</ele>
        <time>2022-03-17T13:25:18Z</time>
      </trkpt>
      <trkpt lat="48.33969" lon="2.751">
        <ele>97.400001525879</ele>
        <time>2022-03-17T13:25:23Z</time>
      </trkpt>
      <trkpt lat="48.33969" lon="2.75095">
        <ele>97.800003051758</ele>
        <time>2022-03-17T13:25:28Z</time>
      </trkpt>
      <trkpt lat="48.33971" lon="2.75088">
        <ele>98.199996948242</ele>
        <time>2022-03-17T13:25:33Z</time>
      </trkpt>
      <trkpt lat="48.33969" lon="2.75081">
        <ele>98.599998474121</ele>
        <time>2022-03-17T13:25:38Z</time>
      </trkpt>
      <trkpt lat="48.33967" lon="2.75075">
        <ele>99</ele>
        <time>2022-03-17T13:25:43Z</time>
      </trkpt>
      <trkpt lat="48.33966" lon="2.75069">
        <ele>99.199996948242</ele>
        <time>2022-03-17T13:25:48Z</time>
      </trkpt>
      <trkpt lat="48.33966" lon="2.75061">
        <ele>99.400001525879</ele>
        <time>2022-03-17T13:25:53Z</time>
      </trkpt>
      <trkpt lat="48.33965" lon="2.75054">
        <ele>99.599998474121</ele>
        <time>2022-03-17T13:25:58Z</time>
      </trkpt>
      <trkpt lat="48.33965" lon="2.75047">
        <ele>99.599998474121</ele>
        <time>2022-03-17T13:26:03Z</time>
      </trkpt>
      <trkpt lat="48.33964" lon="2.75042">
        <ele>99.800003051758</ele>
        <time>2022-03-17T13:26:08Z</time>
      </trkpt>
      <trkpt lat="48.33964" lon="2.75037">
        <ele>100</ele>
        <time>2022-03-17T13:26:13Z</time>
      </trkpt>
      <trkpt lat="48.33964" lon="2.75029">
        <ele>100</ele>
        <time>2022-03-17T13:26:18Z</time>
      </trkpt>
      <trkpt lat="48.33964" lon="2.75021">
        <ele>100</ele>
        <time>2022-03-17T13:26:23Z</time>
      </trkpt>
      <trkpt lat="48.33964" lon="2.75013">
        <ele>100</ele>
        <time>2022-03-17T13:26:28Z</time>
      </trkpt>
      <trkpt lat="48.33961" lon="2.75005">
        <ele>100</ele>
        <time>2022-03-17T13:26:33Z</time>
      </trkpt>
      <trkpt lat="48.33961" lon="2.74999">
        <ele>100</ele>
        <time>2022-03-17T13:26:38Z</time>
      </trkpt>
      <trkpt lat="48.33961" lon="2.74991">
        <ele>100</ele>
        <time>2022-03-17T13:26:43Z</time>
      </trkpt>
      <trkpt lat="48.3396" lon="2.74985">
        <ele>100</ele>
        <time>2022-03-17T13:26:48Z</time>
      </trkpt>
      <trkpt lat="48.3396" lon="2.74977">
        <ele>100</ele>
        <time>2022-03-17T13:26:53Z</time>
      </trkpt>
      <trkpt lat="48.33958" lon="2.74972">
        <ele>100.19999694824</ele>
        <time>2022-03-17T13:26:58Z</time>
      </trkpt>
      <trkpt lat="48.33957" lon="2.74963">
        <ele>100.19999694824</ele>
        <time>2022-03-17T13:27:03Z</time>
      </trkpt>
      <trkpt lat="48.33956" lon="2.74955">
        <ele>100.19999694824</ele>
        <time>2022-03-17T13:27:08Z</time>
      </trkpt>
      <trkpt lat="48.33954" lon="2.74947">
        <ele>100.19999694824</ele>
        <time>2022-03-17T13:27:13Z</time>
      </trkpt>
      <trkpt lat="48.33951" lon="2.74938">
        <ele>100.19999694824</ele>
        <time>2022-03-17T13:27:18Z</time>
      </trkpt>
      <trkpt lat="48.33949" lon="2.74929">
        <ele>100.19999694824</ele>
        <time>2022-03-17T13:27:23Z</time>
      </trkpt>
      <trkpt lat="48.33948" lon="2.74922">
        <ele>100.19999694824</ele>
        <time>2022-03-17T13:27:28Z</time>
      </trkpt>
      <trkpt lat="48.33947" lon="2.74916">
        <ele>100.19999694824</ele>
        <time>2022-03-17T13:27:33Z</time>
      </trkpt>
      <trkpt lat="48.33945" lon="2.74908">
        <ele>100.19999694824</ele>
        <time>2022-03-17T13:27:38Z</time>
      </trkpt>
      <trkpt lat="48.33945" lon="2.74899">
        <ele>100</ele>
        <time>2022-03-17T13:27:43Z</time>
      </trkpt>
      <trkpt lat="48.33944" lon="2.7489">
        <ele>100</ele>
        <time>2022-03-17T13:27:48Z</time>
      </trkpt>
      <trkpt lat="48.33944" lon="2.74884">
        <ele>100</ele>
        <time>2022-03-17T13:27:53Z</time>
      </trkpt>
      <trkpt lat="48.33944" lon="2.74876">
        <ele>99.800003051758</ele>
        <time>2022-03-17T13:27:58Z</time>
      </trkpt>
      <trkpt lat="48.33943" lon="2.74867">
        <ele>99.800003051758</ele>
        <time>2022-03-17T13:28:03Z</time>
      </trkpt>
      <trkpt lat="48.33942" lon="2.74859">
        <ele>99.800003051758</ele>
        <time>2022-03-17T13:28:08Z</time>
      </trkpt>
      <trkpt lat="48.33943" lon="2.74849">
        <ele>99.800003051758</ele>
        <time>2022-03-17T13:28:13Z</time>
      </trkpt>
      <trkpt lat="48.33943" lon="2.74841">
        <ele>99.800003051758</ele>
        <time>2022-03-17T13:28:18Z</time>
      </trkpt>
      <trkpt lat="48.33943" lon="2.74833">
        <ele>100</ele>
        <time>2022-03-17T13:28:23Z</time>
      </trkpt>
      <trkpt lat="48.33942" lon="2.74824">
        <ele>99.800003051758</ele>
        <time>2022-03-17T13:28:28Z</time>
      </trkpt>
      <trkpt lat="48.33943" lon="2.74816">
        <ele>99.800003051758</ele>
        <time>2022-03-17T13:28:33Z</time>
      </trkpt>
      <trkpt lat="48.33944" lon="2.74809">
        <ele>99.800003051758</ele>
        <time>2022-03-17T13:28:38Z</time>
      </trkpt>
      <trkpt lat="48.33946" lon="2.748">
        <ele>99.599998474121</ele>
        <time>2022-03-17T13:28:43Z</time>
      </trkpt>
      <trkpt lat="48.33947" lon="2.74793">
        <ele>99.599998474121</ele>
        <time>2022-03-17T13:28:48Z</time>
      </trkpt>
      <trkpt lat="48.33948" lon="2.74783">
        <ele>99.599998474121</ele>
        <time>2022-03-17T13:28:53Z</time>
      </trkpt>
      <trkpt lat="48.33947" lon="2.74773">
        <ele>99.400001525879</ele>
        <time>2022-03-17T13:28:58Z</time>
      </trkpt>
      <trkpt lat="48.33948" lon="2.74763">
        <ele>99.400001525879</ele>
        <time>2022-03-17T13:29:03Z</time>
      </trkpt>
      <trkpt lat="48.33947" lon="2.74754">
        <ele>99.400001525879</ele>
        <time>2022-03-17T13:29:08Z</time>
      </trkpt>
      <trkpt lat="48.33947" lon="2.74746">
        <ele>99.400001525879</ele>
        <time>2022-03-17T13:29:13Z</time>
      </trkpt>
      <trkpt lat="48.33947" lon="2.74738">
        <ele>99.400001525879</ele>
        <time>2022-03-17T13:29:18Z</time>
      </trkpt>
      <trkpt lat="48.33948" lon="2.74728">
        <ele>99.400001525879</ele>
        <time>2022-03-17T13:29:23Z</time>
      </trkpt>
      <trkpt lat="48.33948" lon="2.7472">
        <ele>99.199996948242</ele>
        <time>2022-03-17T13:29:28Z</time>
      </trkpt>
      <trkpt lat="48.33949" lon="2.74713">
        <ele>99</ele>
        <time>2022-03-17T13:29:33Z</time>
      </trkpt>
      <trkpt lat="48.33949" lon="2.74707">
        <ele>99.199996948242</ele>
        <time>2022-03-17T13:29:38Z</time>
      </trkpt>
      <trkpt lat="48.33949" lon="2.74698">
        <ele>99.199996948242</ele>
        <time>2022-03-17T13:29:43Z</time>
      </trkpt>
      <trkpt lat="48.33949" lon="2.7469">
        <ele>99</ele>
        <time>2022-03-17T13:29:48Z</time>
      </trkpt>
      <trkpt lat="48.33947" lon="2.74683">
        <ele>98.800003051758</ele>
        <time>2022-03-17T13:29:53Z</time>
      </trkpt>
      <trkpt lat="48.33946" lon="2.74675">
        <ele>98.800003051758</ele>
        <time>2022-03-17T13:29:58Z</time>
      </trkpt>
      <trkpt lat="48.33945" lon="2.74667">
        <ele>98.599998474121</ele>
        <time>2022-03-17T13:30:03Z</time>
      </trkpt>
      <trkpt lat="48.33944" lon="2.74659">
        <ele>98.599998474121</ele>
        <time>2022-03-17T13:30:08Z</time>
      </trkpt>
      <trkpt lat="48.33944" lon="2.74651">
        <ele>98.599998474121</ele>
        <time>2022-03-17T13:30:13Z</time>
      </trkpt>
      <trkpt lat="48.33944" lon="2.74642">
        <ele>98.400001525879</ele>
        <time>2022-03-17T13:30:18Z</time>
      </trkpt>
      <trkpt lat="48.33942" lon="2.74633">
        <ele>97.800003051758</ele>
        <time>2022-03-17T13:30:23Z</time>
      </trkpt>
      <trkpt lat="48.33942" lon="2.74623">
        <ele>97.400001525879</ele>
        <time>2022-03-17T13:30:28Z</time>
      </trkpt>
      <trkpt lat="48.33943" lon="2.74614">
        <ele>97.199996948242</ele>
        <time>2022-03-17T13:30:33Z</time>
      </trkpt>
      <trkpt lat="48.3394" lon="2.74606">
        <ele>97</ele>
        <time>2022-03-17T13:30:38Z</time>
      </trkpt>
      <trkpt lat="48.3394" lon="2.74598">
        <ele>96.800003051758</ele>
        <time>2022-03-17T13:30:43Z</time>
      </trkpt>
      <trkpt lat="48.33942" lon="2.74593">
        <ele>96.400001525879</ele>
        <time>2022-03-17T13:30:48Z</time>
      </trkpt>
      <trkpt lat="48.33942" lon="2.7459">
        <ele>96.199996948242</ele>
        <time>2022-03-17T13:30:53Z</time>
      </trkpt>
      <trkpt lat="48.33942" lon="2.74588">
        <ele>95.800003051758</ele>
        <time>2022-03-17T13:30:58Z</time>
      </trkpt>
      <trkpt lat="48.3394" lon="2.74584">
        <ele>95.599998474121</ele>
        <time>2022-03-17T13:31:03Z</time>
      </trkpt>
      <trkpt lat="48.33942" lon="2.7458">
        <ele>95.400001525879</ele>
        <time>2022-03-17T13:31:08Z</time>
      </trkpt>
      <trkpt lat="48.33942" lon="2.74575">
        <ele>95</ele>
        <time>2022-03-17T13:31:13Z</time>
      </trkpt>
      <trkpt lat="48.33942" lon="2.74571">
        <ele>94.599998474121</ele>
        <time>2022-03-17T13:31:18Z</time>
      </trkpt>
      <trkpt lat="48.33943" lon="2.74563">
        <ele>94</ele>
        <time>2022-03-17T13:31:23Z</time>
      </trkpt>
      <trkpt lat="48.33941" lon="2.74556">
        <ele>93.599998474121</ele>
        <time>2022-03-17T13:31:28Z</time>
      </trkpt>
      <trkpt lat="48.33939" lon="2.74549">
        <ele>93</ele>
        <time>2022-03-17T13:31:33Z</time>
      </trkpt>
      <trkpt lat="48.33939" lon="2.74542">
        <ele>93</ele>
        <time>2022-03-17T13:31:38Z</time>
      </trkpt>
      <trkpt lat="48.33937" lon="2.74535">
        <ele>92.599998474121</ele>
        <time>2022-03-17T13:31:43Z</time>
      </trkpt>
      <trkpt lat="48.33935" lon="2.74529">
        <ele>91.800003051758</ele>
        <time>2022-03-17T13:31:48Z</time>
      </trkpt>
      <trkpt lat="48.33931" lon="2.74525">
        <ele>91</ele>
        <time>2022-03-17T13:31:53Z</time>
      </trkpt>
      <trkpt lat="48.33926" lon="2.74522">
        <ele>90.400001525879</ele>
        <time>2022-03-17T13:31:58Z</time>
      </trkpt>
      <trkpt lat="48.33921" lon="2.74519">
        <ele>89.400001525879</ele>
        <time>2022-03-17T13:32:03Z</time>
      </trkpt>
      <trkpt lat="48.33918" lon="2.74515">
        <ele>88.599998474121</ele>
        <time>2022-03-17T13:32:08Z</time>
      </trkpt>
      <trkpt lat="48.33912" lon="2.74515">
        <ele>87.800003051758</ele>
        <time>2022-03-17T13:32:13Z</time>
      </trkpt>
      <trkpt lat="48.33908" lon="2.74511">
        <ele>87</ele>
        <time>2022-03-17T13:32:18Z</time>
      </trkpt>
      <trkpt lat="48.33904" lon="2.74507">
        <ele>86.400001525879</ele>
        <time>2022-03-17T13:32:23Z</time>
      </trkpt>
      <trkpt lat="48.33899" lon="2.74504">
        <ele>85.400001525879</ele>
        <time>2022-03-17T13:32:28Z</time>
      </trkpt>
      <trkpt lat="48.33896" lon="2.74499">
        <ele>84.599998474121</ele>
        <time>2022-03-17T13:32:33Z</time>
      </trkpt>
      <trkpt lat="48.33893" lon="2.74494">
        <ele>83.800003051758</ele>
        <time>2022-03-17T13:32:38Z</time>
      </trkpt>
      <trkpt lat="48.33889" lon="2.74493">
        <ele>82.800003051758</ele>
        <time>2022-03-17T13:32:43Z</time>
      </trkpt>
      <trkpt lat="48.33886" lon="2.74491">
        <ele>82</ele>
        <time>2022-03-17T13:32:48Z</time>
      </trkpt>
      <trkpt lat="48.33883" lon="2.74489">
        <ele>81.800003051758</ele>
        <time>2022-03-17T13:32:53Z</time>
      </trkpt>
      <trkpt lat="48.33878" lon="2.74486">
        <ele>81.199996948242</ele>
        <time>2022-03-17T13:32:58Z</time>
      </trkpt>
      <trkpt lat="48.33875" lon="2.74485">
        <ele>80.400001525879</ele>
        <time>2022-03-17T13:33:03Z</time>
      </trkpt>
      <trkpt lat="48.33873" lon="2.74481">
        <ele>80</ele>
        <time>2022-03-17T13:33:08Z</time>
      </trkpt>
      <trkpt lat="48.33875" lon="2.74476">
        <ele>79.400001525879</ele>
        <time>2022-03-17T13:33:13Z</time>
      </trkpt>
      <trkpt lat="48.33878" lon="2.74471">
        <ele>79.400001525879</ele>
        <time>2022-03-17T13:33:18Z</time>
      </trkpt>
      <trkpt lat="48.33878" lon="2.74463">
        <ele>79.599998474121</ele>
        <time>2022-03-17T13:33:23Z</time>
      </trkpt>
      <trkpt lat="48.33876" lon="2.74454">
        <ele>79.599998474121</ele>
        <time>2022-03-17T13:33:28Z</time>
      </trkpt>
      <trkpt lat="48.33873" lon="2.74446">
        <ele>79.800003051758</ele>
        <time>2022-03-17T13:33:33Z</time>
      </trkpt>
      <trkpt lat="48.3387" lon="2.74438">
        <ele>80</ele>
        <time>2022-03-17T13:33:38Z</time>
      </trkpt>
      <trkpt lat="48.33869" lon="2.74431">
        <ele>80.199996948242</ele>
        <time>2022-03-17T13:33:43Z</time>
      </trkpt>
      <trkpt lat="48.33869" lon="2.74422">
        <ele>80.800003051758</ele>
        <time>2022-03-17T13:33:48Z</time>
      </trkpt>
      <trkpt lat="48.33869" lon="2.74411">
        <ele>81.199996948242</ele>
        <time>2022-03-17T13:33:53Z</time>
      </trkpt>
      <trkpt lat="48.33869" lon="2.74402">
        <ele>81.800003051758</ele>
        <time>2022-03-17T13:33:58Z</time>
      </trkpt>
      <trkpt lat="48.33872" lon="2.7439">
        <ele>82.199996948242</ele>
        <time>2022-03-17T13:34:03Z</time>
      </trkpt>
      <trkpt lat="48.33872" lon="2.7438">
        <ele>82.599998474121</ele>
        <time>2022-03-17T13:34:08Z</time>
      </trkpt>
      <trkpt lat="48.33872" lon="2.74372">
        <ele>83.199996948242</ele>
        <time>2022-03-17T13:34:13Z</time>
      </trkpt>
      <trkpt lat="48.33874" lon="2.74364">
        <ele>83.599998474121</ele>
        <time>2022-03-17T13:34:18Z</time>
      </trkpt>
      <trkpt lat="48.33873" lon="2.74359">
        <ele>84.199996948242</ele>
        <time>2022-03-17T13:34:23Z</time>
      </trkpt>
      <trkpt lat="48.33873" lon="2.74351">
        <ele>84.800003051758</ele>
        <time>2022-03-17T13:34:28Z</time>
      </trkpt>
      <trkpt lat="48.33875" lon="2.74343">
        <ele>85.199996948242</ele>
        <time>2022-03-17T13:34:33Z</time>
      </trkpt>
      <trkpt lat="48.33873" lon="2.74334">
        <ele>86</ele>
        <time>2022-03-17T13:34:38Z</time>
      </trkpt>
      <trkpt lat="48.33872" lon="2.74328">
        <ele>86.800003051758</ele>
        <time>2022-03-17T13:34:43Z</time>
      </trkpt>
      <trkpt lat="48.33871" lon="2.74324">
        <ele>87.199996948242</ele>
        <time>2022-03-17T13:34:48Z</time>
      </trkpt>
      <trkpt lat="48.33874" lon="2.74321">
        <ele>87.400001525879</ele>
        <time>2022-03-17T13:34:53Z</time>
      </trkpt>
      <trkpt lat="48.33876" lon="2.74318">
        <ele>87.599998474121</ele>
        <time>2022-03-17T13:34:58Z</time>
      </trkpt>
      <trkpt lat="48.33877" lon="2.74319">
        <ele>88</ele>
        <time>2022-03-17T13:35:03Z</time>
      </trkpt>
      <trkpt lat="48.33877" lon="2.74319">
        <ele>88.199996948242</ele>
        <time>2022-03-17T13:35:08Z</time>
      </trkpt>
      <trkpt lat="48.33878" lon="2.74318">
        <ele>88.199996948242</ele>
        <time>2022-03-17T13:35:13Z</time>
      </trkpt>
      <trkpt lat="48.33879" lon="2.74315">
        <ele>88.199996948242</ele>
        <time>2022-03-17T13:35:18Z</time>
      </trkpt>
      <trkpt lat="48.33879" lon="2.74313">
        <ele>88.400001525879</ele>
        <time>2022-03-17T13:35:23Z</time>
      </trkpt>
      <trkpt lat="48.33881" lon="2.74308">
        <ele>88.400001525879</ele>
        <time>2022-03-17T13:35:28Z</time>
      </trkpt>
      <trkpt lat="48.33882" lon="2.74303">
        <ele>88.599998474121</ele>
        <time>2022-03-17T13:35:33Z</time>
      </trkpt>
      <trkpt lat="48.33882" lon="2.74301">
        <ele>88.800003051758</ele>
        <time>2022-03-17T13:35:38Z</time>
      </trkpt>
      <trkpt lat="48.33882" lon="2.743">
        <ele>88.800003051758</ele>
        <time>2022-03-17T13:35:43Z</time>
      </trkpt>
      <trkpt lat="48.33883" lon="2.74297">
        <ele>88.800003051758</ele>
        <time>2022-03-17T13:35:48Z</time>
      </trkpt>
      <trkpt lat="48.33882" lon="2.74291">
        <ele>89.199996948242</ele>
        <time>2022-03-17T13:35:53Z</time>
      </trkpt>
      <trkpt lat="48.3388" lon="2.74286">
        <ele>89.400001525879</ele>
        <time>2022-03-17T13:35:58Z</time>
      </trkpt>
      <trkpt lat="48.33874" lon="2.7428">
        <ele>89.800003051758</ele>
        <time>2022-03-17T13:36:03Z</time>
      </trkpt>
      <trkpt lat="48.33873" lon="2.74275">
        <ele>89.800003051758</ele>
        <time>2022-03-17T13:36:08Z</time>
      </trkpt>
      <trkpt lat="48.33872" lon="2.74273">
        <ele>90</ele>
        <time>2022-03-17T13:36:13Z</time>
      </trkpt>
      <trkpt lat="48.33872" lon="2.7427">
        <ele>90</ele>
        <time>2022-03-17T13:36:18Z</time>
      </trkpt>
      <trkpt lat="48.33872" lon="2.74268">
        <ele>89.800003051758</ele>
        <time>2022-03-17T13:36:23Z</time>
      </trkpt>
      <trkpt lat="48.33872" lon="2.74265">
        <ele>89.800003051758</ele>
        <time>2022-03-17T13:36:28Z</time>
      </trkpt>
      <trkpt lat="48.33873" lon="2.74264">
        <ele>90</ele>
        <time>2022-03-17T13:36:33Z</time>
      </trkpt>
      <trkpt lat="48.33873" lon="2.74262">
        <ele>90.199996948242</ele>
        <time>2022-03-17T13:36:38Z</time>
      </trkpt>
      <trkpt lat="48.33873" lon="2.74258">
        <ele>90.199996948242</ele>
        <time>2022-03-17T13:36:43Z</time>
      </trkpt>
      <trkpt lat="48.33873" lon="2.74252">
        <ele>90.400001525879</ele>
        <time>2022-03-17T13:36:48Z</time>
      </trkpt>
      <trkpt lat="48.33872" lon="2.74244">
        <ele>90.599998474121</ele>
        <time>2022-03-17T13:36:53Z</time>
      </trkpt>
      <trkpt lat="48.33873" lon="2.74242">
        <ele>90.800003051758</ele>
        <time>2022-03-17T13:36:58Z</time>
      </trkpt>
      <trkpt lat="48.33875" lon="2.74237">
        <ele>91</ele>
        <time>2022-03-17T13:37:03Z</time>
      </trkpt>
      <trkpt lat="48.33872" lon="2.74227">
        <ele>91.199996948242</ele>
        <time>2022-03-17T13:37:08Z</time>
      </trkpt>
      <trkpt lat="48.33872" lon="2.74226">
        <ele>91.599998474121</ele>
        <time>2022-03-17T13:37:13Z</time>
      </trkpt>
      <trkpt lat="48.3387" lon="2.74222">
        <ele>91.599998474121</ele>
        <time>2022-03-17T13:37:18Z</time>
      </trkpt>
      <trkpt lat="48.33869" lon="2.74216">
        <ele>91.800003051758</ele>
        <time>2022-03-17T13:37:23Z</time>
      </trkpt>
      <trkpt lat="48.33869" lon="2.7421">
        <ele>92</ele>
        <time>2022-03-17T13:37:28Z</time>
      </trkpt>
      <trkpt lat="48.3387" lon="2.74209">
        <ele>92</ele>
        <time>2022-03-17T13:37:33Z</time>
      </trkpt>
      <trkpt lat="48.3387" lon="2.74206">
        <ele>92.199996948242</ele>
        <time>2022-03-17T13:37:38Z</time>
      </trkpt>
      <trkpt lat="48.3387" lon="2.74202">
        <ele>92</ele>
        <time>2022-03-17T13:37:43Z</time>
      </trkpt>
      <trkpt lat="48.3387" lon="2.74198">
        <ele>92</ele>
        <time>2022-03-17T13:37:48Z</time>
      </trkpt>
      <trkpt lat="48.33871" lon="2.74189">
        <ele>92.199996948242</ele>
        <time>2022-03-17T13:37:53Z</time>
      </trkpt>
      <trkpt lat="48.3387" lon="2.74186">
        <ele>92.400001525879</ele>
        <time>2022-03-17T13:37:58Z</time>
      </trkpt>
      <trkpt lat="48.3387" lon="2.74185">
        <ele>92.599998474121</ele>
        <time>2022-03-17T13:38:03Z</time>
      </trkpt>
      <trkpt lat="48.33869" lon="2.74184">
        <ele>92.400001525879</ele>
        <time>2022-03-17T13:38:08Z</time>
      </trkpt>
      <trkpt lat="48.33868" lon="2.74183">
        <ele>92.400001525879</ele>
        <time>2022-03-17T13:38:13Z</time>
      </trkpt>
      <trkpt lat="48.33867" lon="2.74181">
        <ele>92.400001525879</ele>
        <time>2022-03-17T13:38:18Z</time>
      </trkpt>
      <trkpt lat="48.33867" lon="2.74181">
        <ele>92.400001525879</ele>
        <time>2022-03-17T13:38:23Z</time>
      </trkpt>
      <trkpt lat="48.33866" lon="2.7418">
        <ele>92.400001525879</ele>
        <time>2022-03-17T13:38:28Z</time>
      </trkpt>
      <trkpt lat="48.33866" lon="2.7418">
        <ele>92.599998474121</ele>
        <time>2022-03-17T13:38:33Z</time>
      </trkpt>
      <trkpt lat="48.33865" lon="2.74178">
        <ele>92.599998474121</ele>
        <time>2022-03-17T13:38:38Z</time>
      </trkpt>
      <trkpt lat="48.33858" lon="2.74175">
        <ele>92.400001525879</ele>
        <time>2022-03-17T13:38:43Z</time>
      </trkpt>
      <trkpt lat="48.33856" lon="2.74175">
        <ele>92.400001525879</ele>
        <time>2022-03-17T13:38:48Z</time>
      </trkpt>
      <trkpt lat="48.33853" lon="2.74175">
        <ele>92.400001525879</ele>
        <time>2022-03-17T13:38:53Z</time>
      </trkpt>
      <trkpt lat="48.33849" lon="2.74177">
        <ele>92.199996948242</ele>
        <time>2022-03-17T13:38:58Z</time>
      </trkpt>
      <trkpt lat="48.33845" lon="2.74178">
        <ele>92</ele>
        <time>2022-03-17T13:39:03Z</time>
      </trkpt>
      <trkpt lat="48.33841" lon="2.7418">
        <ele>92</ele>
        <time>2022-03-17T13:39:08Z</time>
      </trkpt>
      <trkpt lat="48.33836" lon="2.74182">
        <ele>91.599998474121</ele>
        <time>2022-03-17T13:39:13Z</time>
      </trkpt>
      <trkpt lat="48.33833" lon="2.74186">
        <ele>91.400001525879</ele>
        <time>2022-03-17T13:39:18Z</time>
      </trkpt>
      <trkpt lat="48.33832" lon="2.74188">
        <ele>91.199996948242</ele>
        <time>2022-03-17T13:39:23Z</time>
      </trkpt>
      <trkpt lat="48.33832" lon="2.74188">
        <ele>91</ele>
        <time>2022-03-17T13:39:28Z</time>
      </trkpt>
      <trkpt lat="48.33831" lon="2.74187">
        <ele>90.800003051758</ele>
        <time>2022-03-17T13:39:33Z</time>
      </trkpt>
      <trkpt lat="48.33831" lon="2.74189">
        <ele>90.800003051758</ele>
        <time>2022-03-17T13:39:38Z</time>
      </trkpt>
      <trkpt lat="48.33831" lon="2.74189">
        <ele>91</ele>
        <time>2022-03-17T13:39:43Z</time>
      </trkpt>
      <trkpt lat="48.33827" lon="2.74189">
        <ele>90.800003051758</ele>
        <time>2022-03-17T13:39:48Z</time>
      </trkpt>
      <trkpt lat="48.33823" lon="2.74191">
        <ele>90.800003051758</ele>
        <time>2022-03-17T13:39:53Z</time>
      </trkpt>
      <trkpt lat="48.33821" lon="2.74192">
        <ele>90.400001525879</ele>
        <time>2022-03-17T13:39:58Z</time>
      </trkpt>
      <trkpt lat="48.33819" lon="2.74191">
        <ele>90</ele>
        <time>2022-03-17T13:40:03Z</time>
      </trkpt>
      <trkpt lat="48.33815" lon="2.74189">
        <ele>89.800003051758</ele>
        <time>2022-03-17T13:40:08Z</time>
      </trkpt>
      <trkpt lat="48.33812" lon="2.74188">
        <ele>89.800003051758</ele>
        <time>2022-03-17T13:40:13Z</time>
      </trkpt>
      <trkpt lat="48.3381" lon="2.74188">
        <ele>89.599998474121</ele>
        <time>2022-03-17T13:40:18Z</time>
      </trkpt>
      <trkpt lat="48.33803" lon="2.7419">
        <ele>89.199996948242</ele>
        <time>2022-03-17T13:40:23Z</time>
      </trkpt>
      <trkpt lat="48.33798" lon="2.7419">
        <ele>89</ele>
        <time>2022-03-17T13:40:28Z</time>
      </trkpt>
      <trkpt lat="48.33797" lon="2.7419">
        <ele>89</ele>
        <time>2022-03-17T13:40:33Z</time>
      </trkpt>
      <trkpt lat="48.33794" lon="2.74194">
        <ele>88.800003051758</ele>
        <time>2022-03-17T13:40:38Z</time>
      </trkpt>
      <trkpt lat="48.33793" lon="2.74195">
        <ele>88.800003051758</ele>
        <time>2022-03-17T13:40:43Z</time>
      </trkpt>
      <trkpt lat="48.33792" lon="2.74197">
        <ele>88.599998474121</ele>
        <time>2022-03-17T13:40:48Z</time>
      </trkpt>
      <trkpt lat="48.3379" lon="2.74198">
        <ele>88.599998474121</ele>
        <time>2022-03-17T13:40:53Z</time>
      </trkpt>
      <trkpt lat="48.33784" lon="2.74199">
        <ele>88.199996948242</ele>
        <time>2022-03-17T13:40:58Z</time>
      </trkpt>
      <trkpt lat="48.33781" lon="2.742">
        <ele>88</ele>
        <time>2022-03-17T13:41:03Z</time>
      </trkpt>
      <trkpt lat="48.33777" lon="2.74201">
        <ele>87.599998474121</ele>
        <time>2022-03-17T13:41:08Z</time>
      </trkpt>
      <trkpt lat="48.33773" lon="2.74201">
        <ele>87.599998474121</ele>
        <time>2022-03-17T13:41:13Z</time>
      </trkpt>
      <trkpt lat="48.33769" lon="2.74201">
        <ele>87.199996948242</ele>
        <time>2022-03-17T13:41:18Z</time>
      </trkpt>
      <trkpt lat="48.33764" lon="2.74199">
        <ele>87.199996948242</ele>
        <time>2022-03-17T13:41:23Z</time>
      </trkpt>
      <trkpt lat="48.33762" lon="2.742">
        <ele>87.199996948242</ele>
        <time>2022-03-17T13:41:28Z</time>
      </trkpt>
      <trkpt lat="48.33756" lon="2.74201">
        <ele>87</ele>
        <time>2022-03-17T13:41:33Z</time>
      </trkpt>
      <trkpt lat="48.33753" lon="2.74201">
        <ele>87</ele>
        <time>2022-03-17T13:41:38Z</time>
      </trkpt>
      <trkpt lat="48.33752" lon="2.74201">
        <ele>87</ele>
        <time>2022-03-17T13:41:43Z</time>
      </trkpt>
      <trkpt lat="48.33751" lon="2.74201">
        <ele>86.800003051758</ele>
        <time>2022-03-17T13:41:48Z</time>
      </trkpt>
      <trkpt lat="48.33747" lon="2.74202">
        <ele>86.400001525879</ele>
        <time>2022-03-17T13:41:53Z</time>
      </trkpt>
      <trkpt lat="48.33743" lon="2.742">
        <ele>86</ele>
        <time>2022-03-17T13:41:58Z</time>
      </trkpt>
      <trkpt lat="48.33737" lon="2.74199">
        <ele>85.599998474121</ele>
        <time>2022-03-17T13:42:03Z</time>
      </trkpt>
      <trkpt lat="48.33732" lon="2.742">
        <ele>85.199996948242</ele>
        <time>2022-03-17T13:42:08Z</time>
      </trkpt>
      <trkpt lat="48.33727" lon="2.74198">
        <ele>85</ele>
        <time>2022-03-17T13:42:13Z</time>
      </trkpt>
      <trkpt lat="48.33721" lon="2.74198">
        <ele>84.599998474121</ele>
        <time>2022-03-17T13:42:18Z</time>
      </trkpt>
      <trkpt lat="48.33713" lon="2.74198">
        <ele>84.400001525879</ele>
        <time>2022-03-17T13:42:23Z</time>
      </trkpt>
      <trkpt lat="48.33705" lon="2.74198">
        <ele>84</ele>
        <time>2022-03-17T13:42:28Z</time>
      </trkpt>
      <trkpt lat="48.337" lon="2.74199">
        <ele>83.800003051758</ele>
        <time>2022-03-17T13:42:33Z</time>
      </trkpt>
      <trkpt lat="48.33696" lon="2.74198">
        <ele>83.400001525879</ele>
        <time>2022-03-17T13:42:38Z</time>
      </trkpt>
      <trkpt lat="48.33693" lon="2.74198">
        <ele>83.199996948242</ele>
        <time>2022-03-17T13:42:43Z</time>
      </trkpt>
      <trkpt lat="48.33691" lon="2.74199">
        <ele>82.800003051758</ele>
        <time>2022-03-17T13:42:48Z</time>
      </trkpt>
      <trkpt lat="48.3369" lon="2.742">
        <ele>82.599998474121</ele>
        <time>2022-03-17T13:42:53Z</time>
      </trkpt>
      <trkpt lat="48.33689" lon="2.74199">
        <ele>82.599998474121</ele>
        <time>2022-03-17T13:42:58Z</time>
      </trkpt>
      <trkpt lat="48.33688" lon="2.74199">
        <ele>82.599998474121</ele>
        <time>2022-03-17T13:43:03Z</time>
      </trkpt>
      <trkpt lat="48.33687" lon="2.74199">
        <ele>82.599998474121</ele>
        <time>2022-03-17T13:43:08Z</time>
      </trkpt>
      <trkpt lat="48.33685" lon="2.74199">
        <ele>82.599998474121</ele>
        <time>2022-03-17T13:43:13Z</time>
      </trkpt>
      <trkpt lat="48.33682" lon="2.74195">
        <ele>82.599998474121</ele>
        <time>2022-03-17T13:43:18Z</time>
      </trkpt>
      <trkpt lat="48.33683" lon="2.74191">
        <ele>82.800003051758</ele>
        <time>2022-03-17T13:43:23Z</time>
      </trkpt>
      <trkpt lat="48.33684" lon="2.74183">
        <ele>83</ele>
        <time>2022-03-17T13:43:28Z</time>
      </trkpt>
      <trkpt lat="48.33685" lon="2.74178">
        <ele>83.199996948242</ele>
        <time>2022-03-17T13:43:33Z</time>
      </trkpt>
      <trkpt lat="48.33686" lon="2.74172">
        <ele>83.400001525879</ele>
        <time>2022-03-17T13:43:38Z</time>
      </trkpt>
      <trkpt lat="48.33688" lon="2.74165">
        <ele>84</ele>
        <time>2022-03-17T13:43:43Z</time>
      </trkpt>
      <trkpt lat="48.33689" lon="2.74158">
        <ele>84</ele>
        <time>2022-03-17T13:43:48Z</time>
      </trkpt>
      <trkpt lat="48.33691" lon="2.74153">
        <ele>84.400001525879</ele>
        <time>2022-03-17T13:43:53Z</time>
      </trkpt>
      <trkpt lat="48.33692" lon="2.74148">
        <ele>84.800003051758</ele>
        <time>2022-03-17T13:43:58Z</time>
      </trkpt>
      <trkpt lat="48.33694" lon="2.74142">
        <ele>84.800003051758</ele>
        <time>2022-03-17T13:44:03Z</time>
      </trkpt>
      <trkpt lat="48.33695" lon="2.74136">
        <ele>85</ele>
        <time>2022-03-17T13:44:08Z</time>
      </trkpt>
      <trkpt lat="48.33695" lon="2.74129">
        <ele>85.199996948242</ele>
        <time>2022-03-17T13:44:13Z</time>
      </trkpt>
      <trkpt lat="48.33695" lon="2.74123">
        <ele>85.400001525879</ele>
        <time>2022-03-17T13:44:18Z</time>
      </trkpt>
      <trkpt lat="48.33696" lon="2.74113">
        <ele>85.599998474121</ele>
        <time>2022-03-17T13:44:23Z</time>
      </trkpt>
      <trkpt lat="48.33697" lon="2.74106">
        <ele>85.800003051758</ele>
        <time>2022-03-17T13:44:28Z</time>
      </trkpt>
      <trkpt lat="48.33699" lon="2.741">
        <ele>86</ele>
        <time>2022-03-17T13:44:33Z</time>
      </trkpt>
      <trkpt lat="48.337" lon="2.74089">
        <ele>86</ele>
        <time>2022-03-17T13:44:38Z</time>
      </trkpt>
      <trkpt lat="48.337" lon="2.7408">
        <ele>86</ele>
        <time>2022-03-17T13:44:43Z</time>
      </trkpt>
      <trkpt lat="48.337" lon="2.74071">
        <ele>86.199996948242</ele>
        <time>2022-03-17T13:44:48Z</time>
      </trkpt>
      <trkpt lat="48.337" lon="2.74062">
        <ele>86.400001525879</ele>
        <time>2022-03-17T13:44:53Z</time>
      </trkpt>
      <trkpt lat="48.337" lon="2.74052">
        <ele>86.599998474121</ele>
        <time>2022-03-17T13:44:58Z</time>
      </trkpt>
      <trkpt lat="48.33701" lon="2.74045">
        <ele>86.800003051758</ele>
        <time>2022-03-17T13:45:03Z</time>
      </trkpt>
      <trkpt lat="48.337" lon="2.74037">
        <ele>86.800003051758</ele>
        <time>2022-03-17T13:45:08Z</time>
      </trkpt>
      <trkpt lat="48.33702" lon="2.7403">
        <ele>86.800003051758</ele>
        <time>2022-03-17T13:45:13Z</time>
      </trkpt>
      <trkpt lat="48.33702" lon="2.74029">
        <ele>87</ele>
        <time>2022-03-17T13:45:18Z</time>
      </trkpt>
      <trkpt lat="48.33702" lon="2.74022">
        <ele>87.199996948242</ele>
        <time>2022-03-17T13:45:23Z</time>
      </trkpt>
      <trkpt lat="48.33703" lon="2.74015">
        <ele>87.199996948242</ele>
        <time>2022-03-17T13:45:28Z</time>
      </trkpt>
      <trkpt lat="48.33702" lon="2.74008">
        <ele>87.400001525879</ele>
        <time>2022-03-17T13:45:33Z</time>
      </trkpt>
      <trkpt lat="48.33702" lon="2.74">
        <ele>87.599998474121</ele>
        <time>2022-03-17T13:45:38Z</time>
      </trkpt>
      <trkpt lat="48.33703" lon="2.73993">
        <ele>87.800003051758</ele>
        <time>2022-03-17T13:45:43Z</time>
      </trkpt>
      <trkpt lat="48.33702" lon="2.73987">
        <ele>88</ele>
        <time>2022-03-17T13:45:48Z</time>
      </trkpt>
      <trkpt lat="48.33703" lon="2.7398">
        <ele>88.199996948242</ele>
        <time>2022-03-17T13:45:53Z</time>
      </trkpt>
      <trkpt lat="48.33705" lon="2.73971">
        <ele>88.400001525879</ele>
        <time>2022-03-17T13:45:58Z</time>
      </trkpt>
      <trkpt lat="48.33705" lon="2.73965">
        <ele>88.599998474121</ele>
        <time>2022-03-17T13:46:03Z</time>
      </trkpt>
      <trkpt lat="48.33703" lon="2.73958">
        <ele>88.599998474121</ele>
        <time>2022-03-17T13:46:08Z</time>
      </trkpt>
      <trkpt lat="48.33703" lon="2.73949">
        <ele>88.800003051758</ele>
        <time>2022-03-17T13:46:13Z</time>
      </trkpt>
      <trkpt lat="48.33705" lon="2.73942">
        <ele>89</ele>
        <time>2022-03-17T13:46:18Z</time>
      </trkpt>
      <trkpt lat="48.33705" lon="2.73938">
        <ele>89.199996948242</ele>
        <time>2022-03-17T13:46:23Z</time>
      </trkpt>
      <trkpt lat="48.33706" lon="2.73928">
        <ele>89.400001525879</ele>
        <time>2022-03-17T13:46:28Z</time>
      </trkpt>
      <trkpt lat="48.3371" lon="2.73917">
        <ele>89.800003051758</ele>
        <time>2022-03-17T13:46:33Z</time>
      </trkpt>
      <trkpt lat="48.33708" lon="2.73906">
        <ele>90</ele>
        <time>2022-03-17T13:46:38Z</time>
      </trkpt>
      <trkpt lat="48.33704" lon="2.73895">
        <ele>90</ele>
        <time>2022-03-17T13:46:43Z</time>
      </trkpt>
      <trkpt lat="48.33703" lon="2.73888">
        <ele>90.199996948242</ele>
        <time>2022-03-17T13:46:48Z</time>
      </trkpt>
      <trkpt lat="48.337" lon="2.73878">
        <ele>90.599998474121</ele>
        <time>2022-03-17T13:46:53Z</time>
      </trkpt>
      <trkpt lat="48.33703" lon="2.73867">
        <ele>90.599998474121</ele>
        <time>2022-03-17T13:46:58Z</time>
      </trkpt>
      <trkpt lat="48.33704" lon="2.73859">
        <ele>90.800003051758</ele>
        <time>2022-03-17T13:47:03Z</time>
      </trkpt>
      <trkpt lat="48.33706" lon="2.73851">
        <ele>90.599998474121</ele>
        <time>2022-03-17T13:47:08Z</time>
      </trkpt>
      <trkpt lat="48.33705" lon="2.73843">
        <ele>90.599998474121</ele>
        <time>2022-03-17T13:47:13Z</time>
      </trkpt>
      <trkpt lat="48.33704" lon="2.73834">
        <ele>90.800003051758</ele>
        <time>2022-03-17T13:47:18Z</time>
      </trkpt>
      <trkpt lat="48.33706" lon="2.73827">
        <ele>90.800003051758</ele>
        <time>2022-03-17T13:47:23Z</time>
      </trkpt>
      <trkpt lat="48.33706" lon="2.73819">
        <ele>91</ele>
        <time>2022-03-17T13:47:28Z</time>
      </trkpt>
      <trkpt lat="48.33706" lon="2.73811">
        <ele>91</ele>
        <time>2022-03-17T13:47:33Z</time>
      </trkpt>
      <trkpt lat="48.33705" lon="2.73804">
        <ele>91</ele>
        <time>2022-03-17T13:47:38Z</time>
      </trkpt>
      <trkpt lat="48.33706" lon="2.73796">
        <ele>91</ele>
        <time>2022-03-17T13:47:43Z</time>
      </trkpt>
      <trkpt lat="48.33706" lon="2.73787">
        <ele>91</ele>
        <time>2022-03-17T13:47:48Z</time>
      </trkpt>
      <trkpt lat="48.33708" lon="2.7378">
        <ele>91</ele>
        <time>2022-03-17T13:47:53Z</time>
      </trkpt>
      <trkpt lat="48.33709" lon="2.73772">
        <ele>91</ele>
        <time>2022-03-17T13:47:58Z</time>
      </trkpt>
      <trkpt lat="48.33709" lon="2.73764">
        <ele>91</ele>
        <time>2022-03-17T13:48:03Z</time>
      </trkpt>
      <trkpt lat="48.33709" lon="2.73756">
        <ele>91.199996948242</ele>
        <time>2022-03-17T13:48:08Z</time>
      </trkpt>
      <trkpt lat="48.3371" lon="2.73749">
        <ele>91.199996948242</ele>
        <time>2022-03-17T13:48:13Z</time>
      </trkpt>
      <trkpt lat="48.3371" lon="2.73742">
        <ele>91</ele>
        <time>2022-03-17T13:48:18Z</time>
      </trkpt>
      <trkpt lat="48.33711" lon="2.73733">
        <ele>91.199996948242</ele>
        <time>2022-03-17T13:48:23Z</time>
      </trkpt>
      <trkpt lat="48.3371" lon="2.73726">
        <ele>91.400001525879</ele>
        <time>2022-03-17T13:48:28Z</time>
      </trkpt>
      <trkpt lat="48.33711" lon="2.73719">
        <ele>91.400001525879</ele>
        <time>2022-03-17T13:48:33Z</time>
      </trkpt>
      <trkpt lat="48.33709" lon="2.73711">
        <ele>91.199996948242</ele>
        <time>2022-03-17T13:48:38Z</time>
      </trkpt>
      <trkpt lat="48.3371" lon="2.73704">
        <ele>91.199996948242</ele>
        <time>2022-03-17T13:48:43Z</time>
      </trkpt>
      <trkpt lat="48.33709" lon="2.73696">
        <ele>91.400001525879</ele>
        <time>2022-03-17T13:48:48Z</time>
      </trkpt>
      <trkpt lat="48.33711" lon="2.73688">
        <ele>91.400001525879</ele>
        <time>2022-03-17T13:48:53Z</time>
      </trkpt>
      <trkpt lat="48.3371" lon="2.73681">
        <ele>91.400001525879</ele>
        <time>2022-03-17T13:48:58Z</time>
      </trkpt>
      <trkpt lat="48.33711" lon="2.73673">
        <ele>91.800003051758</ele>
        <time>2022-03-17T13:49:03Z</time>
      </trkpt>
      <trkpt lat="48.33711" lon="2.73664">
        <ele>91.599998474121</ele>
        <time>2022-03-17T13:49:08Z</time>
      </trkpt>
      <trkpt lat="48.3371" lon="2.73656">
        <ele>91.599998474121</ele>
        <time>2022-03-17T13:49:13Z</time>
      </trkpt>
      <trkpt lat="48.3371" lon="2.73648">
        <ele>91.599998474121</ele>
        <time>2022-03-17T13:49:18Z</time>
      </trkpt>
      <trkpt lat="48.33711" lon="2.73642">
        <ele>91.599998474121</ele>
        <time>2022-03-17T13:49:23Z</time>
      </trkpt>
      <trkpt lat="48.33712" lon="2.73633">
        <ele>91.599998474121</ele>
        <time>2022-03-17T13:49:28Z</time>
      </trkpt>
      <trkpt lat="48.33711" lon="2.73622">
        <ele>91.400001525879</ele>
        <time>2022-03-17T13:49:33Z</time>
      </trkpt>
      <trkpt lat="48.33709" lon="2.73614">
        <ele>91.400001525879</ele>
        <time>2022-03-17T13:49:38Z</time>
      </trkpt>
      <trkpt lat="48.33708" lon="2.73605">
        <ele>91.599998474121</ele>
        <time>2022-03-17T13:49:43Z</time>
      </trkpt>
      <trkpt lat="48.33709" lon="2.736">
        <ele>91.599998474121</ele>
        <time>2022-03-17T13:49:48Z</time>
      </trkpt>
      <trkpt lat="48.33709" lon="2.73596">
        <ele>91.800003051758</ele>
        <time>2022-03-17T13:49:53Z</time>
      </trkpt>
      <trkpt lat="48.33711" lon="2.7359">
        <ele>92</ele>
        <time>2022-03-17T13:49:58Z</time>
      </trkpt>
      <trkpt lat="48.33714" lon="2.73586">
        <ele>91.800003051758</ele>
        <time>2022-03-17T13:50:03Z</time>
      </trkpt>
      <trkpt lat="48.33718" lon="2.73583">
        <ele>91.800003051758</ele>
        <time>2022-03-17T13:50:08Z</time>
      </trkpt>
      <trkpt lat="48.33722" lon="2.7358">
        <ele>92</ele>
        <time>2022-03-17T13:50:13Z</time>
      </trkpt>
      <trkpt lat="48.33726" lon="2.73578">
        <ele>92.199996948242</ele>
        <time>2022-03-17T13:50:18Z</time>
      </trkpt>
      <trkpt lat="48.33731" lon="2.73576">
        <ele>92.199996948242</ele>
        <time>2022-03-17T13:50:23Z</time>
      </trkpt>
      <trkpt lat="48.33735" lon="2.73574">
        <ele>92.599998474121</ele>
        <time>2022-03-17T13:50:28Z</time>
      </trkpt>
      <trkpt lat="48.33741" lon="2.73573">
        <ele>92.400001525879</ele>
        <time>2022-03-17T13:50:33Z</time>
      </trkpt>
      <trkpt lat="48.33746" lon="2.73572">
        <ele>92.599998474121</ele>
        <time>2022-03-17T13:50:38Z</time>
      </trkpt>
      <trkpt lat="48.33751" lon="2.73572">
        <ele>93</ele>
        <time>2022-03-17T13:50:43Z</time>
      </trkpt>
      <trkpt lat="48.33755" lon="2.73569">
        <ele>93.199996948242</ele>
        <time>2022-03-17T13:50:48Z</time>
      </trkpt>
      <trkpt lat="48.33759" lon="2.73567">
        <ele>93.199996948242</ele>
        <time>2022-03-17T13:50:53Z</time>
      </trkpt>
      <trkpt lat="48.33762" lon="2.73565">
        <ele>93.400001525879</ele>
        <time>2022-03-17T13:50:58Z</time>
      </trkpt>
      <trkpt lat="48.33767" lon="2.73565">
        <ele>93.400001525879</ele>
        <time>2022-03-17T13:51:03Z</time>
      </trkpt>
      <trkpt lat="48.33771" lon="2.73565">
        <ele>93.599998474121</ele>
        <time>2022-03-17T13:51:08Z</time>
      </trkpt>
      <trkpt lat="48.33777" lon="2.73565">
        <ele>93.800003051758</ele>
        <time>2022-03-17T13:51:13Z</time>
      </trkpt>
      <trkpt lat="48.33781" lon="2.73563">
        <ele>93.800003051758</ele>
        <time>2022-03-17T13:51:18Z</time>
      </trkpt>
      <trkpt lat="48.33784" lon="2.73564">
        <ele>93.800003051758</ele>
        <time>2022-03-17T13:51:23Z</time>
      </trkpt>
      <trkpt lat="48.33787" lon="2.73564">
        <ele>94.199996948242</ele>
        <time>2022-03-17T13:51:28Z</time>
      </trkpt>
      <trkpt lat="48.33791" lon="2.73564">
        <ele>94.199996948242</ele>
        <time>2022-03-17T13:51:33Z</time>
      </trkpt>
      <trkpt lat="48.33795" lon="2.73562">
        <ele>94.199996948242</ele>
        <time>2022-03-17T13:51:38Z</time>
      </trkpt>
      <trkpt lat="48.33798" lon="2.73559">
        <ele>94.199996948242</ele>
        <time>2022-03-17T13:51:43Z</time>
      </trkpt>
      <trkpt lat="48.33801" lon="2.73557">
        <ele>94.400001525879</ele>
        <time>2022-03-17T13:51:48Z</time>
      </trkpt>
      <trkpt lat="48.33808" lon="2.73556">
        <ele>94.400001525879</ele>
        <time>2022-03-17T13:51:53Z</time>
      </trkpt>
      <trkpt lat="48.33815" lon="2.73556">
        <ele>94.400001525879</ele>
        <time>2022-03-17T13:51:58Z</time>
      </trkpt>
      <trkpt lat="48.33822" lon="2.73557">
        <ele>94.599998474121</ele>
        <time>2022-03-17T13:52:03Z</time>
      </trkpt>
      <trkpt lat="48.33828" lon="2.73553">
        <ele>94.800003051758</ele>
        <time>2022-03-17T13:52:08Z</time>
      </trkpt>
      <trkpt lat="48.33835" lon="2.73552">
        <ele>95</ele>
        <time>2022-03-17T13:52:13Z</time>
      </trkpt>
      <trkpt lat="48.3384" lon="2.73552">
        <ele>95.199996948242</ele>
        <time>2022-03-17T13:52:18Z</time>
      </trkpt>
      <trkpt lat="48.33846" lon="2.73552">
        <ele>95.199996948242</ele>
        <time>2022-03-17T13:52:23Z</time>
      </trkpt>
      <trkpt lat="48.33852" lon="2.73551">
        <ele>95.199996948242</ele>
        <time>2022-03-17T13:52:28Z</time>
      </trkpt>
      <trkpt lat="48.33857" lon="2.73551">
        <ele>95.199996948242</ele>
        <time>2022-03-17T13:52:33Z</time>
      </trkpt>
      <trkpt lat="48.33862" lon="2.73551">
        <ele>95.199996948242</ele>
        <time>2022-03-17T13:52:38Z</time>
      </trkpt>
      <trkpt lat="48.33866" lon="2.73549">
        <ele>95.400001525879</ele>
        <time>2022-03-17T13:52:43Z</time>
      </trkpt>
      <trkpt lat="48.33871" lon="2.73547">
        <ele>95.400001525879</ele>
        <time>2022-03-17T13:52:48Z</time>
      </trkpt>
      <trkpt lat="48.33875" lon="2.73545">
        <ele>95.400001525879</ele>
        <time>2022-03-17T13:52:53Z</time>
      </trkpt>
      <trkpt lat="48.33882" lon="2.73543">
        <ele>95.400001525879</ele>
        <time>2022-03-17T13:52:58Z</time>
      </trkpt>
      <trkpt lat="48.33887" lon="2.73542">
        <ele>95.400001525879</ele>
        <time>2022-03-17T13:53:03Z</time>
      </trkpt>
      <trkpt lat="48.33893" lon="2.73541">
        <ele>95.400001525879</ele>
        <time>2022-03-17T13:53:08Z</time>
      </trkpt>
      <trkpt lat="48.33898" lon="2.7354">
        <ele>95.400001525879</ele>
        <time>2022-03-17T13:53:13Z</time>
      </trkpt>
      <trkpt lat="48.33902" lon="2.73537">
        <ele>95.400001525879</ele>
        <time>2022-03-17T13:53:18Z</time>
      </trkpt>
      <trkpt lat="48.33908" lon="2.73539">
        <ele>95.599998474121</ele>
        <time>2022-03-17T13:53:23Z</time>
      </trkpt>
      <trkpt lat="48.33914" lon="2.73539">
        <ele>95.800003051758</ele>
        <time>2022-03-17T13:53:28Z</time>
      </trkpt>
      <trkpt lat="48.33919" lon="2.73539">
        <ele>96</ele>
        <time>2022-03-17T13:53:33Z</time>
      </trkpt>
      <trkpt lat="48.33924" lon="2.7354">
        <ele>96.199996948242</ele>
        <time>2022-03-17T13:53:38Z</time>
      </trkpt>
      <trkpt lat="48.33929" lon="2.73542">
        <ele>96.400001525879</ele>
        <time>2022-03-17T13:53:43Z</time>
      </trkpt>
      <trkpt lat="48.33934" lon="2.73543">
        <ele>96.400001525879</ele>
        <time>2022-03-17T13:53:48Z</time>
      </trkpt>
      <trkpt lat="48.33939" lon="2.73541">
        <ele>96.199996948242</ele>
        <time>2022-03-17T13:53:53Z</time>
      </trkpt>
      <trkpt lat="48.33944" lon="2.7354">
        <ele>96.199996948242</ele>
        <time>2022-03-17T13:53:58Z</time>
      </trkpt>
      <trkpt lat="48.33948" lon="2.7354">
        <ele>96</ele>
        <time>2022-03-17T13:54:03Z</time>
      </trkpt>
      <trkpt lat="48.33951" lon="2.73539">
        <ele>96</ele>
        <time>2022-03-17T13:54:08Z</time>
      </trkpt>
      <trkpt lat="48.33955" lon="2.73537">
        <ele>96.199996948242</ele>
        <time>2022-03-17T13:54:13Z</time>
      </trkpt>
      <trkpt lat="48.33958" lon="2.73537">
        <ele>96.599998474121</ele>
        <time>2022-03-17T13:54:18Z</time>
      </trkpt>
      <trkpt lat="48.33963" lon="2.73539">
        <ele>96.599998474121</ele>
        <time>2022-03-17T13:54:23Z</time>
      </trkpt>
      <trkpt lat="48.33967" lon="2.73537">
        <ele>96.599998474121</ele>
        <time>2022-03-17T13:54:28Z</time>
      </trkpt>
      <trkpt lat="48.33971" lon="2.73532">
        <ele>96.800003051758</ele>
        <time>2022-03-17T13:54:33Z</time>
      </trkpt>
      <trkpt lat="48.33972" lon="2.73524">
        <ele>96.800003051758</ele>
        <time>2022-03-17T13:54:38Z</time>
      </trkpt>
      <trkpt lat="48.33971" lon="2.73519">
        <ele>96.800003051758</ele>
        <time>2022-03-17T13:54:43Z</time>
      </trkpt>
      <trkpt lat="48.33973" lon="2.73514">
        <ele>97</ele>
        <time>2022-03-17T13:54:48Z</time>
      </trkpt>
      <trkpt lat="48.33973" lon="2.73511">
        <ele>97</ele>
        <time>2022-03-17T13:54:53Z</time>
      </trkpt>
      <trkpt lat="48.33974" lon="2.7351">
        <ele>96.800003051758</ele>
        <time>2022-03-17T13:54:58Z</time>
      </trkpt>
      <trkpt lat="48.33975" lon="2.73509">
        <ele>96.599998474121</ele>
        <time>2022-03-17T13:55:03Z</time>
      </trkpt>
      <trkpt lat="48.33975" lon="2.7351">
        <ele>96.599998474121</ele>
        <time>2022-03-17T13:55:08Z</time>
      </trkpt>
      <trkpt lat="48.33974" lon="2.73509">
        <ele>96.599998474121</ele>
        <time>2022-03-17T13:55:13Z</time>
      </trkpt>
      <trkpt lat="48.33975" lon="2.73506">
        <ele>96.599998474121</ele>
        <time>2022-03-17T13:55:18Z</time>
      </trkpt>
      <trkpt lat="48.33975" lon="2.73497">
        <ele>96.599998474121</ele>
        <time>2022-03-17T13:55:23Z</time>
      </trkpt>
      <trkpt lat="48.33975" lon="2.73492">
        <ele>96.800003051758</ele>
        <time>2022-03-17T13:55:28Z</time>
      </trkpt>
      <trkpt lat="48.33979" lon="2.73492">
        <ele>96.800003051758</ele>
        <time>2022-03-17T13:55:33Z</time>
      </trkpt>
      <trkpt lat="48.33983" lon="2.73491">
        <ele>96.800003051758</ele>
        <time>2022-03-17T13:55:38Z</time>
      </trkpt>
      <trkpt lat="48.33987" lon="2.73491">
        <ele>97</ele>
        <time>2022-03-17T13:55:43Z</time>
      </trkpt>
      <trkpt lat="48.33993" lon="2.73488">
        <ele>97</ele>
        <time>2022-03-17T13:55:48Z</time>
      </trkpt>
      <trkpt lat="48.34" lon="2.73486">
        <ele>97.199996948242</ele>
        <time>2022-03-17T13:55:53Z</time>
      </trkpt>
      <trkpt lat="48.34006" lon="2.73487">
        <ele>97.400001525879</ele>
        <time>2022-03-17T13:55:58Z</time>
      </trkpt>
      <trkpt lat="48.34013" lon="2.73486">
        <ele>97.400001525879</ele>
        <time>2022-03-17T13:56:03Z</time>
      </trkpt>
      <trkpt lat="48.34019" lon="2.73483">
        <ele>97.599998474121</ele>
        <time>2022-03-17T13:56:08Z</time>
      </trkpt>
      <trkpt lat="48.34026" lon="2.73481">
        <ele>97.599998474121</ele>
        <time>2022-03-17T13:56:13Z</time>
      </trkpt>
      <trkpt lat="48.34031" lon="2.73477">
        <ele>97.599998474121</ele>
        <time>2022-03-17T13:56:18Z</time>
      </trkpt>
      <trkpt lat="48.34036" lon="2.73475">
        <ele>98</ele>
        <time>2022-03-17T13:56:23Z</time>
      </trkpt>
      <trkpt lat="48.34045" lon="2.73473">
        <ele>98.199996948242</ele>
        <time>2022-03-17T13:56:28Z</time>
      </trkpt>
      <trkpt lat="48.34052" lon="2.73469">
        <ele>98.400001525879</ele>
        <time>2022-03-17T13:56:33Z</time>
      </trkpt>
      <trkpt lat="48.34058" lon="2.73467">
        <ele>98.400001525879</ele>
        <time>2022-03-17T13:56:38Z</time>
      </trkpt>
      <trkpt lat="48.34064" lon="2.73464">
        <ele>98.599998474121</ele>
        <time>2022-03-17T13:56:43Z</time>
      </trkpt>
      <trkpt lat="48.34066" lon="2.73464">
        <ele>99</ele>
        <time>2022-03-17T13:56:48Z</time>
      </trkpt>
      <trkpt lat="48.34068" lon="2.73465">
        <ele>98.800003051758</ele>
        <time>2022-03-17T13:56:53Z</time>
      </trkpt>
      <trkpt lat="48.3407" lon="2.73468">
        <ele>99</ele>
        <time>2022-03-17T13:56:58Z</time>
      </trkpt>
      <trkpt lat="48.34075" lon="2.73465">
        <ele>99.599998474121</ele>
        <time>2022-03-17T13:57:03Z</time>
      </trkpt>
      <trkpt lat="48.3408" lon="2.73463">
        <ele>99.800003051758</ele>
        <time>2022-03-17T13:57:08Z</time>
      </trkpt>
      <trkpt lat="48.34087" lon="2.73463">
        <ele>100</ele>
        <time>2022-03-17T13:57:13Z</time>
      </trkpt>
      <trkpt lat="48.34093" lon="2.73461">
        <ele>100</ele>
        <time>2022-03-17T13:57:18Z</time>
      </trkpt>
      <trkpt lat="48.34099" lon="2.73458">
        <ele>100</ele>
        <time>2022-03-17T13:57:23Z</time>
      </trkpt>
      <trkpt lat="48.34104" lon="2.73456">
        <ele>100.19999694824</ele>
        <time>2022-03-17T13:57:28Z</time>
      </trkpt>
      <trkpt lat="48.3411" lon="2.73456">
        <ele>100.40000152588</ele>
        <time>2022-03-17T13:57:33Z</time>
      </trkpt>
      <trkpt lat="48.34117" lon="2.73456">
        <ele>100.59999847412</ele>
        <time>2022-03-17T13:57:38Z</time>
      </trkpt>
      <trkpt lat="48.34121" lon="2.73454">
        <ele>101</ele>
        <time>2022-03-17T13:57:43Z</time>
      </trkpt>
      <trkpt lat="48.34126" lon="2.73453">
        <ele>101.19999694824</ele>
        <time>2022-03-17T13:57:48Z</time>
      </trkpt>
      <trkpt lat="48.34131" lon="2.73452">
        <ele>101.40000152588</ele>
        <time>2022-03-17T13:57:53Z</time>
      </trkpt>
      <trkpt lat="48.34138" lon="2.73452">
        <ele>101.80000305176</ele>
        <time>2022-03-17T13:57:58Z</time>
      </trkpt>
      <trkpt lat="48.34142" lon="2.73451">
        <ele>102</ele>
        <time>2022-03-17T13:58:03Z</time>
      </trkpt>
      <trkpt lat="48.3415" lon="2.73451">
        <ele>102.19999694824</ele>
        <time>2022-03-17T13:58:08Z</time>
      </trkpt>
      <trkpt lat="48.34156" lon="2.73452">
        <ele>102.40000152588</ele>
        <time>2022-03-17T13:58:13Z</time>
      </trkpt>
      <trkpt lat="48.34161" lon="2.73452">
        <ele>102.59999847412</ele>
        <time>2022-03-17T13:58:18Z</time>
      </trkpt>
      <trkpt lat="48.34167" lon="2.7345">
        <ele>102.80000305176</ele>
        <time>2022-03-17T13:58:23Z</time>
      </trkpt>
      <trkpt lat="48.34172" lon="2.73446">
        <ele>103</ele>
        <time>2022-03-17T13:58:28Z</time>
      </trkpt>
      <trkpt lat="48.34176" lon="2.73444">
        <ele>103</ele>
        <time>2022-03-17T13:58:33Z</time>
      </trkpt>
      <trkpt lat="48.34181" lon="2.73441">
        <ele>103</ele>
        <time>2022-03-17T13:58:38Z</time>
      </trkpt>
      <trkpt lat="48.34188" lon="2.7344">
        <ele>103</ele>
        <time>2022-03-17T13:58:43Z</time>
      </trkpt>
      <trkpt lat="48.34194" lon="2.73441">
        <ele>103.19999694824</ele>
        <time>2022-03-17T13:58:48Z</time>
      </trkpt>
      <trkpt lat="48.34199" lon="2.7344">
        <ele>103.40000152588</ele>
        <time>2022-03-17T13:58:53Z</time>
      </trkpt>
      <trkpt lat="48.34204" lon="2.73438">
        <ele>103.40000152588</ele>
        <time>2022-03-17T13:58:58Z</time>
      </trkpt>
      <trkpt lat="48.3421" lon="2.73437">
        <ele>103.59999847412</ele>
        <time>2022-03-17T13:59:03Z</time>
      </trkpt>
      <trkpt lat="48.34214" lon="2.73436">
        <ele>103.80000305176</ele>
        <time>2022-03-17T13:59:08Z</time>
      </trkpt>
      <trkpt lat="48.34219" lon="2.73438">
        <ele>104</ele>
        <time>2022-03-17T13:59:13Z</time>
      </trkpt>
      <trkpt lat="48.34224" lon="2.73438">
        <ele>104.19999694824</ele>
        <time>2022-03-17T13:59:18Z</time>
      </trkpt>
      <trkpt lat="48.34229" lon="2.73439">
        <ele>104.59999847412</ele>
        <time>2022-03-17T13:59:23Z</time>
      </trkpt>
      <trkpt lat="48.34234" lon="2.73439">
        <ele>104.80000305176</ele>
        <time>2022-03-17T13:59:28Z</time>
      </trkpt>
      <trkpt lat="48.34237" lon="2.73441">
        <ele>105.40000152588</ele>
        <time>2022-03-17T13:59:33Z</time>
      </trkpt>
      <trkpt lat="48.34241" lon="2.73441">
        <ele>105.40000152588</ele>
        <time>2022-03-17T13:59:38Z</time>
      </trkpt>
      <trkpt lat="48.34246" lon="2.73442">
        <ele>105.40000152588</ele>
        <time>2022-03-17T13:59:43Z</time>
      </trkpt>
      <trkpt lat="48.34252" lon="2.73443">
        <ele>105.59999847412</ele>
        <time>2022-03-17T13:59:48Z</time>
      </trkpt>
      <trkpt lat="48.34255" lon="2.73445">
        <ele>105.80000305176</ele>
        <time>2022-03-17T13:59:53Z</time>
      </trkpt>
      <trkpt lat="48.3426" lon="2.73449">
        <ele>106.19999694824</ele>
        <time>2022-03-17T13:59:58Z</time>
      </trkpt>
      <trkpt lat="48.34266" lon="2.7345">
        <ele>106.40000152588</ele>
        <time>2022-03-17T14:00:03Z</time>
      </trkpt>
      <trkpt lat="48.34271" lon="2.73451">
        <ele>106.40000152588</ele>
        <time>2022-03-17T14:00:08Z</time>
      </trkpt>
      <trkpt lat="48.34277" lon="2.73451">
        <ele>106.59999847412</ele>
        <time>2022-03-17T14:00:13Z</time>
      </trkpt>
      <trkpt lat="48.34283" lon="2.73454">
        <ele>107</ele>
        <time>2022-03-17T14:00:18Z</time>
      </trkpt>
      <trkpt lat="48.34288" lon="2.73456">
        <ele>107.59999847412</ele>
        <time>2022-03-17T14:00:23Z</time>
      </trkpt>
      <trkpt lat="48.34292" lon="2.73457">
        <ele>107.80000305176</ele>
        <time>2022-03-17T14:00:28Z</time>
      </trkpt>
      <trkpt lat="48.34296" lon="2.73461">
        <ele>108.19999694824</ele>
        <time>2022-03-17T14:00:33Z</time>
      </trkpt>
      <trkpt lat="48.34301" lon="2.73465">
        <ele>108.40000152588</ele>
        <time>2022-03-17T14:00:38Z</time>
      </trkpt>
      <trkpt lat="48.34307" lon="2.73468">
        <ele>108.59999847412</ele>
        <time>2022-03-17T14:00:43Z</time>
      </trkpt>
      <trkpt lat="48.34313" lon="2.7347">
        <ele>108.59999847412</ele>
        <time>2022-03-17T14:00:48Z</time>
      </trkpt>
      <trkpt lat="48.34317" lon="2.73472">
        <ele>109.19999694824</ele>
        <time>2022-03-17T14:00:53Z</time>
      </trkpt>
      <trkpt lat="48.34321" lon="2.73473">
        <ele>109.80000305176</ele>
        <time>2022-03-17T14:00:58Z</time>
      </trkpt>
      <trkpt lat="48.34326" lon="2.73474">
        <ele>110.40000152588</ele>
        <time>2022-03-17T14:01:03Z</time>
      </trkpt>
      <trkpt lat="48.3433" lon="2.73476">
        <ele>111</ele>
        <time>2022-03-17T14:01:08Z</time>
      </trkpt>
      <trkpt lat="48.34334" lon="2.73478">
        <ele>111.19999694824</ele>
        <time>2022-03-17T14:01:13Z</time>
      </trkpt>
      <trkpt lat="48.34339" lon="2.7348">
        <ele>111.40000152588</ele>
        <time>2022-03-17T14:01:18Z</time>
      </trkpt>
      <trkpt lat="48.34343" lon="2.73482">
        <ele>111.59999847412</ele>
        <time>2022-03-17T14:01:23Z</time>
      </trkpt>
      <trkpt lat="48.34347" lon="2.73483">
        <ele>111.80000305176</ele>
        <time>2022-03-17T14:01:28Z</time>
      </trkpt>
      <trkpt lat="48.3435" lon="2.73484">
        <ele>112</ele>
        <time>2022-03-17T14:01:33Z</time>
      </trkpt>
      <trkpt lat="48.34353" lon="2.73485">
        <ele>112.19999694824</ele>
        <time>2022-03-17T14:01:38Z</time>
      </trkpt>
      <trkpt lat="48.34358" lon="2.73486">
        <ele>112.40000152588</ele>
        <time>2022-03-17T14:01:43Z</time>
      </trkpt>
      <trkpt lat="48.34362" lon="2.73486">
        <ele>113</ele>
        <time>2022-03-17T14:01:48Z</time>
      </trkpt>
      <trkpt lat="48.34366" lon="2.73488">
        <ele>113.59999847412</ele>
        <time>2022-03-17T14:01:53Z</time>
      </trkpt>
      <trkpt lat="48.34369" lon="2.73489">
        <ele>114.19999694824</ele>
        <time>2022-03-17T14:01:58Z</time>
      </trkpt>
      <trkpt lat="48.34372" lon="2.73492">
        <ele>114.40000152588</ele>
        <time>2022-03-17T14:02:03Z</time>
      </trkpt>
      <trkpt lat="48.34373" lon="2.73493">
        <ele>115</ele>
        <time>2022-03-17T14:02:08Z</time>
      </trkpt>
      <trkpt lat="48.34376" lon="2.73493">
        <ele>115.59999847412</ele>
        <time>2022-03-17T14:02:13Z</time>
      </trkpt>
      <trkpt lat="48.3438" lon="2.73494">
        <ele>116.40000152588</ele>
        <time>2022-03-17T14:02:18Z</time>
      </trkpt>
      <trkpt lat="48.34389" lon="2.73499">
        <ele>117</ele>
        <time>2022-03-17T14:02:23Z</time>
      </trkpt>
      <trkpt lat="48.34395" lon="2.73501">
        <ele>117.59999847412</ele>
        <time>2022-03-17T14:02:28Z</time>
      </trkpt>
      <trkpt lat="48.34401" lon="2.73503">
        <ele>118.40000152588</ele>
        <time>2022-03-17T14:02:33Z</time>
      </trkpt>
      <trkpt lat="48.34406" lon="2.73505">
        <ele>118.80000305176</ele>
        <time>2022-03-17T14:02:38Z</time>
      </trkpt>
      <trkpt lat="48.34412" lon="2.73505">
        <ele>119.40000152588</ele>
        <time>2022-03-17T14:02:43Z</time>
      </trkpt>
      <trkpt lat="48.34419" lon="2.73505">
        <ele>119.59999847412</ele>
        <time>2022-03-17T14:02:48Z</time>
      </trkpt>
      <trkpt lat="48.34423" lon="2.73507">
        <ele>120</ele>
        <time>2022-03-17T14:02:53Z</time>
      </trkpt>
      <trkpt lat="48.34426" lon="2.73511">
        <ele>120.59999847412</ele>
        <time>2022-03-17T14:02:58Z</time>
      </trkpt>
      <trkpt lat="48.3443" lon="2.73513">
        <ele>121.40000152588</ele>
        <time>2022-03-17T14:03:03Z</time>
      </trkpt>
      <trkpt lat="48.34432" lon="2.73515">
        <ele>122.19999694824</ele>
        <time>2022-03-17T14:03:08Z</time>
      </trkpt>
      <trkpt lat="48.34437" lon="2.73518">
        <ele>122.80000305176</ele>
        <time>2022-03-17T14:03:13Z</time>
      </trkpt>
      <trkpt lat="48.34442" lon="2.7352">
        <ele>123.59999847412</ele>
        <time>2022-03-17T14:03:18Z</time>
      </trkpt>
      <trkpt lat="48.34445" lon="2.73523">
        <ele>124.19999694824</ele>
        <time>2022-03-17T14:03:23Z</time>
      </trkpt>
      <trkpt lat="48.34449" lon="2.73528">
        <ele>124.40000152588</ele>
        <time>2022-03-17T14:03:28Z</time>
      </trkpt>
      <trkpt lat="48.34455" lon="2.7353">
        <ele>124.80000305176</ele>
        <time>2022-03-17T14:03:33Z</time>
      </trkpt>
      <trkpt lat="48.34459" lon="2.73532">
        <ele>125.19999694824</ele>
        <time>2022-03-17T14:03:38Z</time>
      </trkpt>
      <trkpt lat="48.34465" lon="2.73533">
        <ele>125.59999847412</ele>
        <time>2022-03-17T14:03:43Z</time>
      </trkpt>
      <trkpt lat="48.3447" lon="2.73535">
        <ele>126</ele>
        <time>2022-03-17T14:03:48Z</time>
      </trkpt>
      <trkpt lat="48.34474" lon="2.73539">
        <ele>126.40000152588</ele>
        <time>2022-03-17T14:03:53Z</time>
      </trkpt>
      <trkpt lat="48.3448" lon="2.73541">
        <ele>126.59999847412</ele>
        <time>2022-03-17T14:03:58Z</time>
      </trkpt>
      <trkpt lat="48.34484" lon="2.73541">
        <ele>126.80000305176</ele>
        <time>2022-03-17T14:04:03Z</time>
      </trkpt>
      <trkpt lat="48.34488" lon="2.73541">
        <ele>127.19999694824</ele>
        <time>2022-03-17T14:04:08Z</time>
      </trkpt>
      <trkpt lat="48.34492" lon="2.73542">
        <ele>127.80000305176</ele>
        <time>2022-03-17T14:04:13Z</time>
      </trkpt>
      <trkpt lat="48.34497" lon="2.73545">
        <ele>128</ele>
        <time>2022-03-17T14:04:18Z</time>
      </trkpt>
      <trkpt lat="48.34502" lon="2.73546">
        <ele>129</ele>
        <time>2022-03-17T14:04:23Z</time>
      </trkpt>
      <trkpt lat="48.34505" lon="2.73546">
        <ele>129.60000610352</ele>
        <time>2022-03-17T14:04:28Z</time>
      </trkpt>
      <trkpt lat="48.3451" lon="2.73545">
        <ele>130</ele>
        <time>2022-03-17T14:04:33Z</time>
      </trkpt>
      <trkpt lat="48.34515" lon="2.73544">
        <ele>130.39999389648</ele>
        <time>2022-03-17T14:04:38Z</time>
      </trkpt>
      <trkpt lat="48.3452" lon="2.73545">
        <ele>130.80000305176</ele>
        <time>2022-03-17T14:04:43Z</time>
      </trkpt>
      <trkpt lat="48.34525" lon="2.73546">
        <ele>131.19999694824</ele>
        <time>2022-03-17T14:04:48Z</time>
      </trkpt>
      <trkpt lat="48.3453" lon="2.73546">
        <ele>131.80000305176</ele>
        <time>2022-03-17T14:04:53Z</time>
      </trkpt>
      <trkpt lat="48.34534" lon="2.73548">
        <ele>132.19999694824</ele>
        <time>2022-03-17T14:04:58Z</time>
      </trkpt>
      <trkpt lat="48.34539" lon="2.73549">
        <ele>132.39999389648</ele>
        <time>2022-03-17T14:05:03Z</time>
      </trkpt>
      <trkpt lat="48.34545" lon="2.73549">
        <ele>132.60000610352</ele>
        <time>2022-03-17T14:05:08Z</time>
      </trkpt>
      <trkpt lat="48.34551" lon="2.7355">
        <ele>133.39999389648</ele>
        <time>2022-03-17T14:05:13Z</time>
      </trkpt>
      <trkpt lat="48.34556" lon="2.73551">
        <ele>134</ele>
        <time>2022-03-17T14:05:18Z</time>
      </trkpt>
      <trkpt lat="48.3456" lon="2.7355">
        <ele>134.39999389648</ele>
        <time>2022-03-17T14:05:23Z</time>
      </trkpt>
      <trkpt lat="48.34565" lon="2.73549">
        <ele>134.60000610352</ele>
        <time>2022-03-17T14:05:28Z</time>
      </trkpt>
      <trkpt lat="48.34568" lon="2.73549">
        <ele>134.80000305176</ele>
        <time>2022-03-17T14:05:33Z</time>
      </trkpt>
      <trkpt lat="48.34572" lon="2.73549">
        <ele>135.19999694824</ele>
        <time>2022-03-17T14:05:38Z</time>
      </trkpt>
      <trkpt lat="48.34575" lon="2.73549">
        <ele>135.60000610352</ele>
        <time>2022-03-17T14:05:43Z</time>
      </trkpt>
      <trkpt lat="48.34577" lon="2.7355">
        <ele>136</ele>
        <time>2022-03-17T14:05:48Z</time>
      </trkpt>
      <trkpt lat="48.34579" lon="2.7355">
        <ele>136.19999694824</ele>
        <time>2022-03-17T14:05:53Z</time>
      </trkpt>
      <trkpt lat="48.34579" lon="2.73553">
        <ele>136.60000610352</ele>
        <time>2022-03-17T14:05:58Z</time>
      </trkpt>
      <trkpt lat="48.34581" lon="2.73552">
        <ele>136.80000305176</ele>
        <time>2022-03-17T14:06:03Z</time>
      </trkpt>
      <trkpt lat="48.34581" lon="2.73552">
        <ele>136.80000305176</ele>
        <time>2022-03-17T14:06:08Z</time>
      </trkpt>
      <trkpt lat="48.34581" lon="2.73552">
        <ele>136.60000610352</ele>
        <time>2022-03-17T14:06:13Z</time>
      </trkpt>
      <trkpt lat="48.34581" lon="2.73553">
        <ele>136.80000305176</ele>
        <time>2022-03-17T14:06:18Z</time>
      </trkpt>
      <trkpt lat="48.34582" lon="2.73556">
        <ele>136.80000305176</ele>
        <time>2022-03-17T14:06:23Z</time>
      </trkpt>
      <trkpt lat="48.34581" lon="2.73557">
        <ele>136.80000305176</ele>
        <time>2022-03-17T14:06:28Z</time>
      </trkpt>
      <trkpt lat="48.34581" lon="2.7356">
        <ele>136.80000305176</ele>
        <time>2022-03-17T14:06:33Z</time>
      </trkpt>
      <trkpt lat="48.34581" lon="2.73562">
        <ele>136.80000305176</ele>
        <time>2022-03-17T14:06:38Z</time>
      </trkpt>
      <trkpt lat="48.34582" lon="2.73564">
        <ele>136.60000610352</ele>
        <time>2022-03-17T14:06:43Z</time>
      </trkpt>
      <trkpt lat="48.34583" lon="2.73564">
        <ele>136.60000610352</ele>
        <time>2022-03-17T14:06:48Z</time>
      </trkpt>
      <trkpt lat="48.34583" lon="2.73565">
        <ele>136.80000305176</ele>
        <time>2022-03-17T14:06:53Z</time>
      </trkpt>
      <trkpt lat="48.34583" lon="2.73567">
        <ele>136.80000305176</ele>
        <time>2022-03-17T14:06:58Z</time>
      </trkpt>
      <trkpt lat="48.34582" lon="2.73569">
        <ele>136.80000305176</ele>
        <time>2022-03-17T14:07:03Z</time>
      </trkpt>
      <trkpt lat="48.34582" lon="2.73571">
        <ele>136.80000305176</ele>
        <time>2022-03-17T14:07:08Z</time>
      </trkpt>
      <trkpt lat="48.34582" lon="2.73573">
        <ele>136.80000305176</ele>
        <time>2022-03-17T14:07:13Z</time>
      </trkpt>
      <trkpt lat="48.34582" lon="2.73574">
        <ele>137.19999694824</ele>
        <time>2022-03-17T14:07:18Z</time>
      </trkpt>
      <trkpt lat="48.34583" lon="2.73574">
        <ele>137.60000610352</ele>
        <time>2022-03-17T14:07:23Z</time>
      </trkpt>
      <trkpt lat="48.34583" lon="2.73574">
        <ele>137.19999694824</ele>
        <time>2022-03-17T14:07:28Z</time>
      </trkpt>
      <trkpt lat="48.34584" lon="2.73573">
        <ele>137</ele>
        <time>2022-03-17T14:07:33Z</time>
      </trkpt>
      <trkpt lat="48.34584" lon="2.7357">
        <ele>136.60000610352</ele>
        <time>2022-03-17T14:07:38Z</time>
      </trkpt>
      <trkpt lat="48.34584" lon="2.7357">
        <ele>136.60000610352</ele>
        <time>2022-03-17T14:07:43Z</time>
      </trkpt>
      <trkpt lat="48.34583" lon="2.7357">
        <ele>136.60000610352</ele>
        <time>2022-03-17T14:07:48Z</time>
      </trkpt>
      <trkpt lat="48.34583" lon="2.7357">
        <ele>136.60000610352</ele>
        <time>2022-03-17T14:07:53Z</time>
      </trkpt>
      <trkpt lat="48.34582" lon="2.73571">
        <ele>136.60000610352</ele>
        <time>2022-03-17T14:07:58Z</time>
      </trkpt>
      <trkpt lat="48.34582" lon="2.73571">
        <ele>136.60000610352</ele>
        <time>2022-03-17T14:08:03Z</time>
      </trkpt>
      <trkpt lat="48.34582" lon="2.7357">
        <ele>136.60000610352</ele>
        <time>2022-03-17T14:08:08Z</time>
      </trkpt>
      <trkpt lat="48.34581" lon="2.7357">
        <ele>136.60000610352</ele>
        <time>2022-03-17T14:08:13Z</time>
      </trkpt>
      <trkpt lat="48.34582" lon="2.7357">
        <ele>136.60000610352</ele>
        <time>2022-03-17T14:08:18Z</time>
      </trkpt>
      <trkpt lat="48.34582" lon="2.73573">
        <ele>136.60000610352</ele>
        <time>2022-03-17T14:08:23Z</time>
      </trkpt>
      <trkpt lat="48.34583" lon="2.73573">
        <ele>136.60000610352</ele>
        <time>2022-03-17T14:08:28Z</time>
      </trkpt>
      <trkpt lat="48.34584" lon="2.73573">
        <ele>136.60000610352</ele>
        <time>2022-03-17T14:08:33Z</time>
      </trkpt>
      <trkpt lat="48.34584" lon="2.73572">
        <ele>136.60000610352</ele>
        <time>2022-03-17T14:08:38Z</time>
      </trkpt>
      <trkpt lat="48.34584" lon="2.73571">
        <ele>136.60000610352</ele>
        <time>2022-03-17T14:08:43Z</time>
      </trkpt>
      <trkpt lat="48.34583" lon="2.73569">
        <ele>136.60000610352</ele>
        <time>2022-03-17T14:08:48Z</time>
      </trkpt>
      <trkpt lat="48.34583" lon="2.73569">
        <ele>136.60000610352</ele>
        <time>2022-03-17T14:08:53Z</time>
      </trkpt>
      <trkpt lat="48.34582" lon="2.73568">
        <ele>136.60000610352</ele>
        <time>2022-03-17T14:08:58Z</time>
      </trkpt>
      <trkpt lat="48.34582" lon="2.73568">
        <ele>136.60000610352</ele>
        <time>2022-03-17T14:09:03Z</time>
      </trkpt>
      <trkpt lat="48.3458" lon="2.73567">
        <ele>136.60000610352</ele>
        <time>2022-03-17T14:09:08Z</time>
      </trkpt>
      <trkpt lat="48.34579" lon="2.73566">
        <ele>136.60000610352</ele>
        <time>2022-03-17T14:09:13Z</time>
      </trkpt>
      <trkpt lat="48.34579" lon="2.73565">
        <ele>136.60000610352</ele>
        <time>2022-03-17T14:09:18Z</time>
      </trkpt>
      <trkpt lat="48.3458" lon="2.73564">
        <ele>136.60000610352</ele>
        <time>2022-03-17T14:09:23Z</time>
      </trkpt>
      <trkpt lat="48.3458" lon="2.73564">
        <ele>136.60000610352</ele>
        <time>2022-03-17T14:09:28Z</time>
      </trkpt>
      <trkpt lat="48.34578" lon="2.73561">
        <ele>136.60000610352</ele>
        <time>2022-03-17T14:09:33Z</time>
      </trkpt>
      <trkpt lat="48.34577" lon="2.73561">
        <ele>136.60000610352</ele>
        <time>2022-03-17T14:09:38Z</time>
      </trkpt>
      <trkpt lat="48.34577" lon="2.7356">
        <ele>136.60000610352</ele>
        <time>2022-03-17T14:09:43Z</time>
      </trkpt>
      <trkpt lat="48.34577" lon="2.73558">
        <ele>136.60000610352</ele>
        <time>2022-03-17T14:09:48Z</time>
      </trkpt>
      <trkpt lat="48.34576" lon="2.73558">
        <ele>136.60000610352</ele>
        <time>2022-03-17T14:09:53Z</time>
      </trkpt>
      <trkpt lat="48.34575" lon="2.73556">
        <ele>136.60000610352</ele>
        <time>2022-03-17T14:09:58Z</time>
      </trkpt>
      <trkpt lat="48.34574" lon="2.73555">
        <ele>136.60000610352</ele>
        <time>2022-03-17T14:10:03Z</time>
      </trkpt>
      <trkpt lat="48.34572" lon="2.73555">
        <ele>136.60000610352</ele>
        <time>2022-03-17T14:10:08Z</time>
      </trkpt>
      <trkpt lat="48.34571" lon="2.73555">
        <ele>136.60000610352</ele>
        <time>2022-03-17T14:10:13Z</time>
      </trkpt>
      <trkpt lat="48.34569" lon="2.73555">
        <ele>136.60000610352</ele>
        <time>2022-03-17T14:10:18Z</time>
      </trkpt>
      <trkpt lat="48.34569" lon="2.73555">
        <ele>136.60000610352</ele>
        <time>2022-03-17T14:10:23Z</time>
      </trkpt>
      <trkpt lat="48.3457" lon="2.73554">
        <ele>136.60000610352</ele>
        <time>2022-03-17T14:10:28Z</time>
      </trkpt>
      <trkpt lat="48.3457" lon="2.73555">
        <ele>136.60000610352</ele>
        <time>2022-03-17T14:10:33Z</time>
      </trkpt>
      <trkpt lat="48.3457" lon="2.73556">
        <ele>136.60000610352</ele>
        <time>2022-03-17T14:10:38Z</time>
      </trkpt>
      <trkpt lat="48.3457" lon="2.73557">
        <ele>136.60000610352</ele>
        <time>2022-03-17T14:10:43Z</time>
      </trkpt>
      <trkpt lat="48.3457" lon="2.73559">
        <ele>136.60000610352</ele>
        <time>2022-03-17T14:10:48Z</time>
      </trkpt>
      <trkpt lat="48.3457" lon="2.73562">
        <ele>136.60000610352</ele>
        <time>2022-03-17T14:10:53Z</time>
      </trkpt>
      <trkpt lat="48.3457" lon="2.73564">
        <ele>136.60000610352</ele>
        <time>2022-03-17T14:10:58Z</time>
      </trkpt>
      <trkpt lat="48.3457" lon="2.73564">
        <ele>136.60000610352</ele>
        <time>2022-03-17T14:11:03Z</time>
      </trkpt>
      <trkpt lat="48.3457" lon="2.73565">
        <ele>136.60000610352</ele>
        <time>2022-03-17T14:11:08Z</time>
      </trkpt>
      <trkpt lat="48.34572" lon="2.73568">
        <ele>136.60000610352</ele>
        <time>2022-03-17T14:11:13Z</time>
      </trkpt>
      <trkpt lat="48.34575" lon="2.73568">
        <ele>136.60000610352</ele>
        <time>2022-03-17T14:11:18Z</time>
      </trkpt>
      <trkpt lat="48.34576" lon="2.73568">
        <ele>136.60000610352</ele>
        <time>2022-03-17T14:11:23Z</time>
      </trkpt>
      <trkpt lat="48.34577" lon="2.73571">
        <ele>136.60000610352</ele>
        <time>2022-03-17T14:11:28Z</time>
      </trkpt>
      <trkpt lat="48.34579" lon="2.73581">
        <ele>136.60000610352</ele>
        <time>2022-03-17T14:11:33Z</time>
      </trkpt>
      <trkpt lat="48.3458" lon="2.73584">
        <ele>136.60000610352</ele>
        <time>2022-03-17T14:11:38Z</time>
      </trkpt>
      <trkpt lat="48.3458" lon="2.73591">
        <ele>136.60000610352</ele>
        <time>2022-03-17T14:11:43Z</time>
      </trkpt>
      <trkpt lat="48.3458" lon="2.73598">
        <ele>136.60000610352</ele>
        <time>2022-03-17T14:11:48Z</time>
      </trkpt>
      <trkpt lat="48.34581" lon="2.73603">
        <ele>136.60000610352</ele>
        <time>2022-03-17T14:11:53Z</time>
      </trkpt>
      <trkpt lat="48.34582" lon="2.7361">
        <ele>136.60000610352</ele>
        <time>2022-03-17T14:11:58Z</time>
      </trkpt>
      <trkpt lat="48.34584" lon="2.73615">
        <ele>136.60000610352</ele>
        <time>2022-03-17T14:12:03Z</time>
      </trkpt>
      <trkpt lat="48.34584" lon="2.73618">
        <ele>136.60000610352</ele>
        <time>2022-03-17T14:12:08Z</time>
      </trkpt>
      <trkpt lat="48.34584" lon="2.73626">
        <ele>136.60000610352</ele>
        <time>2022-03-17T14:12:13Z</time>
      </trkpt>
      <trkpt lat="48.34585" lon="2.73632">
        <ele>136.60000610352</ele>
        <time>2022-03-17T14:12:18Z</time>
      </trkpt>
      <trkpt lat="48.34585" lon="2.73639">
        <ele>136.60000610352</ele>
        <time>2022-03-17T14:12:23Z</time>
      </trkpt>
      <trkpt lat="48.34586" lon="2.73648">
        <ele>136.60000610352</ele>
        <time>2022-03-17T14:12:28Z</time>
      </trkpt>
      <trkpt lat="48.34586" lon="2.73655">
        <ele>136.60000610352</ele>
        <time>2022-03-17T14:12:33Z</time>
      </trkpt>
      <trkpt lat="48.34586" lon="2.73659">
        <ele>136.60000610352</ele>
        <time>2022-03-17T14:12:38Z</time>
      </trkpt>
      <trkpt lat="48.34586" lon="2.73665">
        <ele>136.60000610352</ele>
        <time>2022-03-17T14:12:43Z</time>
      </trkpt>
      <trkpt lat="48.34586" lon="2.73669">
        <ele>136.60000610352</ele>
        <time>2022-03-17T14:12:48Z</time>
      </trkpt>
      <trkpt lat="48.34586" lon="2.73675">
        <ele>136.60000610352</ele>
        <time>2022-03-17T14:12:53Z</time>
      </trkpt>
      <trkpt lat="48.34586" lon="2.73682">
        <ele>136.60000610352</ele>
        <time>2022-03-17T14:12:58Z</time>
      </trkpt>
      <trkpt lat="48.34585" lon="2.73688">
        <ele>136.60000610352</ele>
        <time>2022-03-17T14:13:03Z</time>
      </trkpt>
      <trkpt lat="48.34582" lon="2.73696">
        <ele>136.60000610352</ele>
        <time>2022-03-17T14:13:08Z</time>
      </trkpt>
      <trkpt lat="48.34581" lon="2.73699">
        <ele>136.60000610352</ele>
        <time>2022-03-17T14:13:13Z</time>
      </trkpt>
      <trkpt lat="48.3458" lon="2.73701">
        <ele>136.60000610352</ele>
        <time>2022-03-17T14:13:18Z</time>
      </trkpt>
      <trkpt lat="48.34579" lon="2.73703">
        <ele>136.60000610352</ele>
        <time>2022-03-17T14:13:23Z</time>
      </trkpt>
      <trkpt lat="48.3458" lon="2.73709">
        <ele>136.60000610352</ele>
        <time>2022-03-17T14:13:28Z</time>
      </trkpt>
      <trkpt lat="48.34581" lon="2.73715">
        <ele>136.60000610352</ele>
        <time>2022-03-17T14:13:33Z</time>
      </trkpt>
      <trkpt lat="48.34581" lon="2.73719">
        <ele>136.60000610352</ele>
        <time>2022-03-17T14:13:38Z</time>
      </trkpt>
      <trkpt lat="48.34581" lon="2.73723">
        <ele>136.60000610352</ele>
        <time>2022-03-17T14:13:43Z</time>
      </trkpt>
      <trkpt lat="48.34582" lon="2.73731">
        <ele>136.60000610352</ele>
        <time>2022-03-17T14:13:48Z</time>
      </trkpt>
      <trkpt lat="48.34583" lon="2.73735">
        <ele>136.60000610352</ele>
        <time>2022-03-17T14:13:53Z</time>
      </trkpt>
      <trkpt lat="48.34584" lon="2.7374">
        <ele>136.60000610352</ele>
        <time>2022-03-17T14:13:58Z</time>
      </trkpt>
      <trkpt lat="48.34584" lon="2.73744">
        <ele>136.60000610352</ele>
        <time>2022-03-17T14:14:03Z</time>
      </trkpt>
      <trkpt lat="48.34585" lon="2.73751">
        <ele>136.60000610352</ele>
        <time>2022-03-17T14:14:08Z</time>
      </trkpt>
      <trkpt lat="48.34586" lon="2.73755">
        <ele>136.60000610352</ele>
        <time>2022-03-17T14:14:13Z</time>
      </trkpt>
      <trkpt lat="48.34589" lon="2.73767">
        <ele>136.60000610352</ele>
        <time>2022-03-17T14:14:18Z</time>
      </trkpt>
      <trkpt lat="48.3459" lon="2.73772">
        <ele>136.60000610352</ele>
        <time>2022-03-17T14:14:23Z</time>
      </trkpt>
      <trkpt lat="48.34592" lon="2.73778">
        <ele>136.60000610352</ele>
        <time>2022-03-17T14:14:28Z</time>
      </trkpt>
      <trkpt lat="48.34593" lon="2.73784">
        <ele>136.60000610352</ele>
        <time>2022-03-17T14:14:33Z</time>
      </trkpt>
      <trkpt lat="48.34597" lon="2.73802">
        <ele>136.60000610352</ele>
        <time>2022-03-17T14:14:38Z</time>
      </trkpt>
      <trkpt lat="48.34598" lon="2.73807">
        <ele>136.60000610352</ele>
        <time>2022-03-17T14:14:43Z</time>
      </trkpt>
      <trkpt lat="48.34598" lon="2.73819">
        <ele>136.60000610352</ele>
        <time>2022-03-17T14:14:48Z</time>
      </trkpt>
      <trkpt lat="48.34599" lon="2.73826">
        <ele>136.39999389648</ele>
        <time>2022-03-17T14:14:53Z</time>
      </trkpt>
      <trkpt lat="48.34599" lon="2.7383">
        <ele>136.39999389648</ele>
        <time>2022-03-17T14:14:58Z</time>
      </trkpt>
      <trkpt lat="48.34601" lon="2.73846">
        <ele>136.19999694824</ele>
        <time>2022-03-17T14:15:03Z</time>
      </trkpt>
      <trkpt lat="48.34601" lon="2.73852">
        <ele>136.19999694824</ele>
        <time>2022-03-17T14:15:08Z</time>
      </trkpt>
      <trkpt lat="48.34601" lon="2.73856">
        <ele>136.39999389648</ele>
        <time>2022-03-17T14:15:13Z</time>
      </trkpt>
      <trkpt lat="48.34601" lon="2.73861">
        <ele>136.39999389648</ele>
        <time>2022-03-17T14:15:18Z</time>
      </trkpt>
      <trkpt lat="48.34603" lon="2.73871">
        <ele>136.39999389648</ele>
        <time>2022-03-17T14:15:23Z</time>
      </trkpt>
      <trkpt lat="48.34606" lon="2.73888">
        <ele>136.39999389648</ele>
        <time>2022-03-17T14:15:28Z</time>
      </trkpt>
      <trkpt lat="48.34607" lon="2.73893">
        <ele>136.39999389648</ele>
        <time>2022-03-17T14:15:33Z</time>
      </trkpt>
      <trkpt lat="48.34609" lon="2.739">
        <ele>136.39999389648</ele>
        <time>2022-03-17T14:15:38Z</time>
      </trkpt>
      <trkpt lat="48.3461" lon="2.7391">
        <ele>136.39999389648</ele>
        <time>2022-03-17T14:15:43Z</time>
      </trkpt>
      <trkpt lat="48.3461" lon="2.73915">
        <ele>136.39999389648</ele>
        <time>2022-03-17T14:15:48Z</time>
      </trkpt>
      <trkpt lat="48.3461" lon="2.73924">
        <ele>136.39999389648</ele>
        <time>2022-03-17T14:15:53Z</time>
      </trkpt>
      <trkpt lat="48.34611" lon="2.73928">
        <ele>136.39999389648</ele>
        <time>2022-03-17T14:15:58Z</time>
      </trkpt>
      <trkpt lat="48.34611" lon="2.73932">
        <ele>136.39999389648</ele>
        <time>2022-03-17T14:16:03Z</time>
      </trkpt>
      <trkpt lat="48.34613" lon="2.73935">
        <ele>136.39999389648</ele>
        <time>2022-03-17T14:16:08Z</time>
      </trkpt>
      <trkpt lat="48.34615" lon="2.73943">
        <ele>136.39999389648</ele>
        <time>2022-03-17T14:16:13Z</time>
      </trkpt>
      <trkpt lat="48.34617" lon="2.7395">
        <ele>136.39999389648</ele>
        <time>2022-03-17T14:16:18Z</time>
      </trkpt>
      <trkpt lat="48.34618" lon="2.73958">
        <ele>136.39999389648</ele>
        <time>2022-03-17T14:16:23Z</time>
      </trkpt>
      <trkpt lat="48.34622" lon="2.7397">
        <ele>136.39999389648</ele>
        <time>2022-03-17T14:16:28Z</time>
      </trkpt>
      <trkpt lat="48.34623" lon="2.73973">
        <ele>136.39999389648</ele>
        <time>2022-03-17T14:16:33Z</time>
      </trkpt>
      <trkpt lat="48.34627" lon="2.73985">
        <ele>136.39999389648</ele>
        <time>2022-03-17T14:16:38Z</time>
      </trkpt>
      <trkpt lat="48.34627" lon="2.74">
        <ele>136.39999389648</ele>
        <time>2022-03-17T14:16:43Z</time>
      </trkpt>
      <trkpt lat="48.34629" lon="2.74006">
        <ele>136.39999389648</ele>
        <time>2022-03-17T14:16:48Z</time>
      </trkpt>
      <trkpt lat="48.34632" lon="2.74011">
        <ele>136.39999389648</ele>
        <time>2022-03-17T14:16:53Z</time>
      </trkpt>
      <trkpt lat="48.34632" lon="2.74014">
        <ele>136.39999389648</ele>
        <time>2022-03-17T14:16:58Z</time>
      </trkpt>
      <trkpt lat="48.34633" lon="2.74017">
        <ele>136.39999389648</ele>
        <time>2022-03-17T14:17:03Z</time>
      </trkpt>
      <trkpt lat="48.34633" lon="2.74019">
        <ele>136.39999389648</ele>
        <time>2022-03-17T14:17:08Z</time>
      </trkpt>
      <trkpt lat="48.34632" lon="2.7403">
        <ele>136.39999389648</ele>
        <time>2022-03-17T14:17:13Z</time>
      </trkpt>
      <trkpt lat="48.3463" lon="2.74041">
        <ele>136.39999389648</ele>
        <time>2022-03-17T14:17:18Z</time>
      </trkpt>
      <trkpt lat="48.3463" lon="2.74044">
        <ele>136.39999389648</ele>
        <time>2022-03-17T14:17:23Z</time>
      </trkpt>
      <trkpt lat="48.34629" lon="2.7405">
        <ele>136.39999389648</ele>
        <time>2022-03-17T14:17:28Z</time>
      </trkpt>
      <trkpt lat="48.34631" lon="2.74058">
        <ele>136.39999389648</ele>
        <time>2022-03-17T14:17:33Z</time>
      </trkpt>
      <trkpt lat="48.34632" lon="2.74062">
        <ele>136.39999389648</ele>
        <time>2022-03-17T14:17:38Z</time>
      </trkpt>
      <trkpt lat="48.34634" lon="2.74062">
        <ele>136.39999389648</ele>
        <time>2022-03-17T14:17:43Z</time>
      </trkpt>
      <trkpt lat="48.34635" lon="2.74061">
        <ele>136.39999389648</ele>
        <time>2022-03-17T14:17:48Z</time>
      </trkpt>
      <trkpt lat="48.34637" lon="2.74059">
        <ele>136.39999389648</ele>
        <time>2022-03-17T14:17:53Z</time>
      </trkpt>
      <trkpt lat="48.34643" lon="2.74055">
        <ele>136.39999389648</ele>
        <time>2022-03-17T14:17:58Z</time>
      </trkpt>
      <trkpt lat="48.34644" lon="2.74053">
        <ele>136.39999389648</ele>
        <time>2022-03-17T14:18:03Z</time>
      </trkpt>
      <trkpt lat="48.34645" lon="2.74052">
        <ele>136.39999389648</ele>
        <time>2022-03-17T14:18:08Z</time>
      </trkpt>
      <trkpt lat="48.34646" lon="2.74049">
        <ele>136.39999389648</ele>
        <time>2022-03-17T14:18:13Z</time>
      </trkpt>
      <trkpt lat="48.34647" lon="2.74046">
        <ele>136.39999389648</ele>
        <time>2022-03-17T14:18:18Z</time>
      </trkpt>
      <trkpt lat="48.34649" lon="2.74043">
        <ele>136.39999389648</ele>
        <time>2022-03-17T14:18:23Z</time>
      </trkpt>
      <trkpt lat="48.3465" lon="2.7404">
        <ele>136.39999389648</ele>
        <time>2022-03-17T14:18:28Z</time>
      </trkpt>
      <trkpt lat="48.34656" lon="2.74033">
        <ele>136</ele>
        <time>2022-03-17T14:18:33Z</time>
      </trkpt>
      <trkpt lat="48.34667" lon="2.74028">
        <ele>135.80000305176</ele>
        <time>2022-03-17T14:18:38Z</time>
      </trkpt>
      <trkpt lat="48.34676" lon="2.74024">
        <ele>135.80000305176</ele>
        <time>2022-03-17T14:18:43Z</time>
      </trkpt>
      <trkpt lat="48.34684" lon="2.74021">
        <ele>135.80000305176</ele>
        <time>2022-03-17T14:18:48Z</time>
      </trkpt>
      <trkpt lat="48.34688" lon="2.7402">
        <ele>135.80000305176</ele>
        <time>2022-03-17T14:18:53Z</time>
      </trkpt>
      <trkpt lat="48.3469" lon="2.74019">
        <ele>135.80000305176</ele>
        <time>2022-03-17T14:18:58Z</time>
      </trkpt>
      <trkpt lat="48.34695" lon="2.74017">
        <ele>136</ele>
        <time>2022-03-17T14:19:03Z</time>
      </trkpt>
      <trkpt lat="48.347" lon="2.74013">
        <ele>136.19999694824</ele>
        <time>2022-03-17T14:19:08Z</time>
      </trkpt>
      <trkpt lat="48.34703" lon="2.7401">
        <ele>136.19999694824</ele>
        <time>2022-03-17T14:19:13Z</time>
      </trkpt>
      <trkpt lat="48.34705" lon="2.74008">
        <ele>136.39999389648</ele>
        <time>2022-03-17T14:19:18Z</time>
      </trkpt>
      <trkpt lat="48.34707" lon="2.74004">
        <ele>136.39999389648</ele>
        <time>2022-03-17T14:19:23Z</time>
      </trkpt>
      <trkpt lat="48.3471" lon="2.74001">
        <ele>136.60000610352</ele>
        <time>2022-03-17T14:19:28Z</time>
      </trkpt>
      <trkpt lat="48.34712" lon="2.73997">
        <ele>136.80000305176</ele>
        <time>2022-03-17T14:19:33Z</time>
      </trkpt>
      <trkpt lat="48.34715" lon="2.73994">
        <ele>136.80000305176</ele>
        <time>2022-03-17T14:19:38Z</time>
      </trkpt>
      <trkpt lat="48.34727" lon="2.73987">
        <ele>136.80000305176</ele>
        <time>2022-03-17T14:19:43Z</time>
      </trkpt>
      <trkpt lat="48.34729" lon="2.73987">
        <ele>136.80000305176</ele>
        <time>2022-03-17T14:19:48Z</time>
      </trkpt>
      <trkpt lat="48.34735" lon="2.73982">
        <ele>137</ele>
        <time>2022-03-17T14:19:53Z</time>
      </trkpt>
      <trkpt lat="48.34743" lon="2.73978">
        <ele>137</ele>
        <time>2022-03-17T14:19:58Z</time>
      </trkpt>
      <trkpt lat="48.3475" lon="2.73975">
        <ele>137</ele>
        <time>2022-03-17T14:20:03Z</time>
      </trkpt>
      <trkpt lat="48.34752" lon="2.73974">
        <ele>137</ele>
        <time>2022-03-17T14:20:08Z</time>
      </trkpt>
      <trkpt lat="48.34752" lon="2.7397">
        <ele>137.19999694824</ele>
        <time>2022-03-17T14:20:13Z</time>
      </trkpt>
      <trkpt lat="48.34754" lon="2.73968">
        <ele>137.19999694824</ele>
        <time>2022-03-17T14:20:18Z</time>
      </trkpt>
      <trkpt lat="48.34758" lon="2.73965">
        <ele>137.19999694824</ele>
        <time>2022-03-17T14:20:23Z</time>
      </trkpt>
      <trkpt lat="48.34762" lon="2.73962">
        <ele>137.19999694824</ele>
        <time>2022-03-17T14:20:28Z</time>
      </trkpt>
      <trkpt lat="48.34772" lon="2.73957">
        <ele>137.39999389648</ele>
        <time>2022-03-17T14:20:33Z</time>
      </trkpt>
      <trkpt lat="48.34778" lon="2.7395">
        <ele>137.39999389648</ele>
        <time>2022-03-17T14:20:38Z</time>
      </trkpt>
      <trkpt lat="48.3478" lon="2.73948">
        <ele>137.60000610352</ele>
        <time>2022-03-17T14:20:43Z</time>
      </trkpt>
      <trkpt lat="48.34782" lon="2.73946">
        <ele>137.39999389648</ele>
        <time>2022-03-17T14:20:48Z</time>
      </trkpt>
      <trkpt lat="48.34785" lon="2.73944">
        <ele>137.39999389648</ele>
        <time>2022-03-17T14:20:53Z</time>
      </trkpt>
      <trkpt lat="48.34786" lon="2.73942">
        <ele>137.60000610352</ele>
        <time>2022-03-17T14:20:58Z</time>
      </trkpt>
      <trkpt lat="48.34796" lon="2.73934">
        <ele>137.60000610352</ele>
        <time>2022-03-17T14:21:03Z</time>
      </trkpt>
      <trkpt lat="48.34799" lon="2.7393">
        <ele>137.39999389648</ele>
        <time>2022-03-17T14:21:08Z</time>
      </trkpt>
      <trkpt lat="48.34801" lon="2.73928">
        <ele>137.39999389648</ele>
        <time>2022-03-17T14:21:13Z</time>
      </trkpt>
      <trkpt lat="48.34802" lon="2.73926">
        <ele>137.39999389648</ele>
        <time>2022-03-17T14:21:18Z</time>
      </trkpt>
      <trkpt lat="48.34805" lon="2.73924">
        <ele>137.80000305176</ele>
        <time>2022-03-17T14:21:23Z</time>
      </trkpt>
      <trkpt lat="48.34815" lon="2.73916">
        <ele>138</ele>
        <time>2022-03-17T14:21:28Z</time>
      </trkpt>
      <trkpt lat="48.34822" lon="2.73912">
        <ele>138</ele>
        <time>2022-03-17T14:21:33Z</time>
      </trkpt>
      <trkpt lat="48.34826" lon="2.73905">
        <ele>137.80000305176</ele>
        <time>2022-03-17T14:21:38Z</time>
      </trkpt>
      <trkpt lat="48.34829" lon="2.73903">
        <ele>138.19999694824</ele>
        <time>2022-03-17T14:21:43Z</time>
      </trkpt>
      <trkpt lat="48.34833" lon="2.73898">
        <ele>138.19999694824</ele>
        <time>2022-03-17T14:21:48Z</time>
      </trkpt>
      <trkpt lat="48.34837" lon="2.73891">
        <ele>138.19999694824</ele>
        <time>2022-03-17T14:21:53Z</time>
      </trkpt>
      <trkpt lat="48.34842" lon="2.73888">
        <ele>138.39999389648</ele>
        <time>2022-03-17T14:21:58Z</time>
      </trkpt>
      <trkpt lat="48.34846" lon="2.73883">
        <ele>138.39999389648</ele>
        <time>2022-03-17T14:22:03Z</time>
      </trkpt>
      <trkpt lat="48.34848" lon="2.73882">
        <ele>138.80000305176</ele>
        <time>2022-03-17T14:22:08Z</time>
      </trkpt>
      <trkpt lat="48.34852" lon="2.73879">
        <ele>138.80000305176</ele>
        <time>2022-03-17T14:22:13Z</time>
      </trkpt>
      <trkpt lat="48.34859" lon="2.73875">
        <ele>138.80000305176</ele>
        <time>2022-03-17T14:22:18Z</time>
      </trkpt>
      <trkpt lat="48.34861" lon="2.73871">
        <ele>139</ele>
        <time>2022-03-17T14:22:23Z</time>
      </trkpt>
      <trkpt lat="48.34865" lon="2.73868">
        <ele>139</ele>
        <time>2022-03-17T14:22:28Z</time>
      </trkpt>
      <trkpt lat="48.34871" lon="2.73863">
        <ele>139.19999694824</ele>
        <time>2022-03-17T14:22:33Z</time>
      </trkpt>
      <trkpt lat="48.34876" lon="2.73859">
        <ele>139.19999694824</ele>
        <time>2022-03-17T14:22:38Z</time>
      </trkpt>
      <trkpt lat="48.3488" lon="2.73855">
        <ele>139.39999389648</ele>
        <time>2022-03-17T14:22:43Z</time>
      </trkpt>
      <trkpt lat="48.34885" lon="2.73849">
        <ele>139.60000610352</ele>
        <time>2022-03-17T14:22:48Z</time>
      </trkpt>
      <trkpt lat="48.3489" lon="2.73845">
        <ele>139.60000610352</ele>
        <time>2022-03-17T14:22:53Z</time>
      </trkpt>
      <trkpt lat="48.34896" lon="2.73842">
        <ele>139</ele>
        <time>2022-03-17T14:22:58Z</time>
      </trkpt>
      <trkpt lat="48.34899" lon="2.7384">
        <ele>139</ele>
        <time>2022-03-17T14:23:03Z</time>
      </trkpt>
      <trkpt lat="48.34903" lon="2.73838">
        <ele>139.19999694824</ele>
        <time>2022-03-17T14:23:08Z</time>
      </trkpt>
      <trkpt lat="48.34908" lon="2.73836">
        <ele>139.19999694824</ele>
        <time>2022-03-17T14:23:13Z</time>
      </trkpt>
      <trkpt lat="48.34912" lon="2.73833">
        <ele>139.19999694824</ele>
        <time>2022-03-17T14:23:18Z</time>
      </trkpt>
      <trkpt lat="48.34915" lon="2.73831">
        <ele>139.19999694824</ele>
        <time>2022-03-17T14:23:23Z</time>
      </trkpt>
      <trkpt lat="48.34922" lon="2.73827">
        <ele>139.19999694824</ele>
        <time>2022-03-17T14:23:28Z</time>
      </trkpt>
      <trkpt lat="48.34926" lon="2.73825">
        <ele>139.39999389648</ele>
        <time>2022-03-17T14:23:33Z</time>
      </trkpt>
      <trkpt lat="48.34929" lon="2.73824">
        <ele>139.39999389648</ele>
        <time>2022-03-17T14:23:38Z</time>
      </trkpt>
      <trkpt lat="48.34931" lon="2.73821">
        <ele>139.19999694824</ele>
        <time>2022-03-17T14:23:43Z</time>
      </trkpt>
      <trkpt lat="48.34935" lon="2.73815">
        <ele>139.19999694824</ele>
        <time>2022-03-17T14:23:48Z</time>
      </trkpt>
      <trkpt lat="48.34937" lon="2.73813">
        <ele>139</ele>
        <time>2022-03-17T14:23:53Z</time>
      </trkpt>
      <trkpt lat="48.3494" lon="2.73808">
        <ele>139</ele>
        <time>2022-03-17T14:23:58Z</time>
      </trkpt>
      <trkpt lat="48.34945" lon="2.73804">
        <ele>139</ele>
        <time>2022-03-17T14:24:03Z</time>
      </trkpt>
      <trkpt lat="48.3495" lon="2.73801">
        <ele>139</ele>
        <time>2022-03-17T14:24:08Z</time>
      </trkpt>
      <trkpt lat="48.34957" lon="2.73797">
        <ele>139.19999694824</ele>
        <time>2022-03-17T14:24:13Z</time>
      </trkpt>
      <trkpt lat="48.34961" lon="2.73794">
        <ele>139.19999694824</ele>
        <time>2022-03-17T14:24:18Z</time>
      </trkpt>
      <trkpt lat="48.34964" lon="2.73791">
        <ele>139</ele>
        <time>2022-03-17T14:24:23Z</time>
      </trkpt>
      <trkpt lat="48.34967" lon="2.73789">
        <ele>139</ele>
        <time>2022-03-17T14:24:28Z</time>
      </trkpt>
      <trkpt lat="48.34973" lon="2.73786">
        <ele>139</ele>
        <time>2022-03-17T14:24:33Z</time>
      </trkpt>
      <trkpt lat="48.34977" lon="2.73782">
        <ele>138.80000305176</ele>
        <time>2022-03-17T14:24:38Z</time>
      </trkpt>
      <trkpt lat="48.34982" lon="2.7378">
        <ele>138.80000305176</ele>
        <time>2022-03-17T14:24:43Z</time>
      </trkpt>
      <trkpt lat="48.34987" lon="2.73778">
        <ele>139</ele>
        <time>2022-03-17T14:24:48Z</time>
      </trkpt>
      <trkpt lat="48.34992" lon="2.73775">
        <ele>139</ele>
        <time>2022-03-17T14:24:53Z</time>
      </trkpt>
      <trkpt lat="48.34995" lon="2.73773">
        <ele>139</ele>
        <time>2022-03-17T14:24:58Z</time>
      </trkpt>
      <trkpt lat="48.35" lon="2.7377">
        <ele>139</ele>
        <time>2022-03-17T14:25:03Z</time>
      </trkpt>
      <trkpt lat="48.35006" lon="2.73766">
        <ele>139</ele>
        <time>2022-03-17T14:25:08Z</time>
      </trkpt>
      <trkpt lat="48.35011" lon="2.73764">
        <ele>139</ele>
        <time>2022-03-17T14:25:13Z</time>
      </trkpt>
      <trkpt lat="48.35014" lon="2.73761">
        <ele>139</ele>
        <time>2022-03-17T14:25:18Z</time>
      </trkpt>
      <trkpt lat="48.35017" lon="2.73757">
        <ele>139</ele>
        <time>2022-03-17T14:25:23Z</time>
      </trkpt>
      <trkpt lat="48.35021" lon="2.7375">
        <ele>139</ele>
        <time>2022-03-17T14:25:28Z</time>
      </trkpt>
      <trkpt lat="48.35026" lon="2.73746">
        <ele>139</ele>
        <time>2022-03-17T14:25:33Z</time>
      </trkpt>
      <trkpt lat="48.35031" lon="2.73741">
        <ele>139</ele>
        <time>2022-03-17T14:25:38Z</time>
      </trkpt>
      <trkpt lat="48.35035" lon="2.73738">
        <ele>139</ele>
        <time>2022-03-17T14:25:43Z</time>
      </trkpt>
      <trkpt lat="48.35038" lon="2.73732">
        <ele>136.39999389648</ele>
        <time>2022-03-17T14:25:48Z</time>
      </trkpt>
      <trkpt lat="48.35042" lon="2.73725">
        <ele>136.19999694824</ele>
        <time>2022-03-17T14:25:53Z</time>
      </trkpt>
      <trkpt lat="48.35045" lon="2.73721">
        <ele>135.80000305176</ele>
        <time>2022-03-17T14:25:58Z</time>
      </trkpt>
      <trkpt lat="48.35049" lon="2.73717">
        <ele>135.39999389648</ele>
        <time>2022-03-17T14:26:03Z</time>
      </trkpt>
      <trkpt lat="48.35051" lon="2.73712">
        <ele>135</ele>
        <time>2022-03-17T14:26:08Z</time>
      </trkpt>
      <trkpt lat="48.35054" lon="2.73706">
        <ele>134.80000305176</ele>
        <time>2022-03-17T14:26:13Z</time>
      </trkpt>
      <trkpt lat="48.35057" lon="2.737">
        <ele>134.39999389648</ele>
        <time>2022-03-17T14:26:18Z</time>
      </trkpt>
      <trkpt lat="48.35059" lon="2.73695">
        <ele>134</ele>
        <time>2022-03-17T14:26:23Z</time>
      </trkpt>
      <trkpt lat="48.35061" lon="2.73689">
        <ele>133.80000305176</ele>
        <time>2022-03-17T14:26:28Z</time>
      </trkpt>
      <trkpt lat="48.35063" lon="2.73684">
        <ele>133.39999389648</ele>
        <time>2022-03-17T14:26:33Z</time>
      </trkpt>
      <trkpt lat="48.35066" lon="2.7368">
        <ele>133.19999694824</ele>
        <time>2022-03-17T14:26:38Z</time>
      </trkpt>
      <trkpt lat="48.35069" lon="2.73675">
        <ele>132.80000305176</ele>
        <time>2022-03-17T14:26:43Z</time>
      </trkpt>
      <trkpt lat="48.3507" lon="2.73671">
        <ele>132.60000610352</ele>
        <time>2022-03-17T14:26:48Z</time>
      </trkpt>
      <trkpt lat="48.35072" lon="2.73667">
        <ele>132.39999389648</ele>
        <time>2022-03-17T14:26:53Z</time>
      </trkpt>
      <trkpt lat="48.35074" lon="2.73661">
        <ele>131.80000305176</ele>
        <time>2022-03-17T14:26:58Z</time>
      </trkpt>
      <trkpt lat="48.35076" lon="2.73652">
        <ele>131.39999389648</ele>
        <time>2022-03-17T14:27:03Z</time>
      </trkpt>
      <trkpt lat="48.35078" lon="2.73645">
        <ele>131</ele>
        <time>2022-03-17T14:27:08Z</time>
      </trkpt>
      <trkpt lat="48.35079" lon="2.73641">
        <ele>130.80000305176</ele>
        <time>2022-03-17T14:27:13Z</time>
      </trkpt>
      <trkpt lat="48.35079" lon="2.7364">
        <ele>130.39999389648</ele>
        <time>2022-03-17T14:27:18Z</time>
      </trkpt>
      <trkpt lat="48.35079" lon="2.73639">
        <ele>130.39999389648</ele>
        <time>2022-03-17T14:27:23Z</time>
      </trkpt>
      <trkpt lat="48.35082" lon="2.73635">
        <ele>130.19999694824</ele>
        <time>2022-03-17T14:27:28Z</time>
      </trkpt>
      <trkpt lat="48.35083" lon="2.73632">
        <ele>130</ele>
        <time>2022-03-17T14:27:33Z</time>
      </trkpt>
      <trkpt lat="48.35084" lon="2.73631">
        <ele>129.80000305176</ele>
        <time>2022-03-17T14:27:38Z</time>
      </trkpt>
      <trkpt lat="48.35089" lon="2.73632">
        <ele>129.80000305176</ele>
        <time>2022-03-17T14:27:43Z</time>
      </trkpt>
      <trkpt lat="48.35094" lon="2.73637">
        <ele>129.60000610352</ele>
        <time>2022-03-17T14:27:48Z</time>
      </trkpt>
      <trkpt lat="48.35097" lon="2.73643">
        <ele>129.60000610352</ele>
        <time>2022-03-17T14:27:53Z</time>
      </trkpt>
      <trkpt lat="48.351" lon="2.7365">
        <ele>129.80000305176</ele>
        <time>2022-03-17T14:27:58Z</time>
      </trkpt>
      <trkpt lat="48.35099" lon="2.73656">
        <ele>130.19999694824</ele>
        <time>2022-03-17T14:28:03Z</time>
      </trkpt>
      <trkpt lat="48.35101" lon="2.73663">
        <ele>130.19999694824</ele>
        <time>2022-03-17T14:28:08Z</time>
      </trkpt>
      <trkpt lat="48.35101" lon="2.7367">
        <ele>130.19999694824</ele>
        <time>2022-03-17T14:28:13Z</time>
      </trkpt>
      <trkpt lat="48.35102" lon="2.7368">
        <ele>130.19999694824</ele>
        <time>2022-03-17T14:28:18Z</time>
      </trkpt>
      <trkpt lat="48.35104" lon="2.73687">
        <ele>130</ele>
        <time>2022-03-17T14:28:23Z</time>
      </trkpt>
      <trkpt lat="48.35104" lon="2.73696">
        <ele>130</ele>
        <time>2022-03-17T14:28:28Z</time>
      </trkpt>
      <trkpt lat="48.35105" lon="2.73699">
        <ele>129.80000305176</ele>
        <time>2022-03-17T14:28:33Z</time>
      </trkpt>
      <trkpt lat="48.35107" lon="2.73706">
        <ele>129.80000305176</ele>
        <time>2022-03-17T14:28:38Z</time>
      </trkpt>
      <trkpt lat="48.3511" lon="2.7371">
        <ele>129.80000305176</ele>
        <time>2022-03-17T14:28:43Z</time>
      </trkpt>
      <trkpt lat="48.3511" lon="2.73714">
        <ele>129.80000305176</ele>
        <time>2022-03-17T14:28:48Z</time>
      </trkpt>
      <trkpt lat="48.35112" lon="2.73721">
        <ele>130</ele>
        <time>2022-03-17T14:28:53Z</time>
      </trkpt>
      <trkpt lat="48.35113" lon="2.73726">
        <ele>130</ele>
        <time>2022-03-17T14:28:58Z</time>
      </trkpt>
      <trkpt lat="48.35115" lon="2.73735">
        <ele>130</ele>
        <time>2022-03-17T14:29:03Z</time>
      </trkpt>
      <trkpt lat="48.35116" lon="2.73742">
        <ele>130</ele>
        <time>2022-03-17T14:29:08Z</time>
      </trkpt>
      <trkpt lat="48.35117" lon="2.73746">
        <ele>130</ele>
        <time>2022-03-17T14:29:13Z</time>
      </trkpt>
      <trkpt lat="48.35118" lon="2.73757">
        <ele>130</ele>
        <time>2022-03-17T14:29:18Z</time>
      </trkpt>
      <trkpt lat="48.35119" lon="2.73765">
        <ele>130</ele>
        <time>2022-03-17T14:29:23Z</time>
      </trkpt>
      <trkpt lat="48.3512" lon="2.73774">
        <ele>130</ele>
        <time>2022-03-17T14:29:28Z</time>
      </trkpt>
      <trkpt lat="48.35121" lon="2.73782">
        <ele>130</ele>
        <time>2022-03-17T14:29:33Z</time>
      </trkpt>
      <trkpt lat="48.35123" lon="2.73788">
        <ele>130</ele>
        <time>2022-03-17T14:29:38Z</time>
      </trkpt>
      <trkpt lat="48.35124" lon="2.73793">
        <ele>130</ele>
        <time>2022-03-17T14:29:43Z</time>
      </trkpt>
      <trkpt lat="48.35125" lon="2.73802">
        <ele>130</ele>
        <time>2022-03-17T14:29:48Z</time>
      </trkpt>
      <trkpt lat="48.35125" lon="2.73811">
        <ele>130.19999694824</ele>
        <time>2022-03-17T14:29:53Z</time>
      </trkpt>
      <trkpt lat="48.35126" lon="2.73816">
        <ele>131.39999389648</ele>
        <time>2022-03-17T14:29:58Z</time>
      </trkpt>
      <trkpt lat="48.35127" lon="2.73822">
        <ele>131.80000305176</ele>
        <time>2022-03-17T14:30:03Z</time>
      </trkpt>
      <trkpt lat="48.35128" lon="2.73827">
        <ele>132.19999694824</ele>
        <time>2022-03-17T14:30:08Z</time>
      </trkpt>
      <trkpt lat="48.35128" lon="2.73832">
        <ele>132.80000305176</ele>
        <time>2022-03-17T14:30:13Z</time>
      </trkpt>
      <trkpt lat="48.35128" lon="2.73842">
        <ele>133.39999389648</ele>
        <time>2022-03-17T14:30:18Z</time>
      </trkpt>
      <trkpt lat="48.35129" lon="2.73849">
        <ele>133.80000305176</ele>
        <time>2022-03-17T14:30:23Z</time>
      </trkpt>
      <trkpt lat="48.35131" lon="2.73857">
        <ele>134.39999389648</ele>
        <time>2022-03-17T14:30:28Z</time>
      </trkpt>
      <trkpt lat="48.35131" lon="2.73864">
        <ele>134.60000610352</ele>
        <time>2022-03-17T14:30:33Z</time>
      </trkpt>
      <trkpt lat="48.35133" lon="2.73872">
        <ele>134.60000610352</ele>
        <time>2022-03-17T14:30:38Z</time>
      </trkpt>
      <trkpt lat="48.35134" lon="2.73881">
        <ele>134.80000305176</ele>
        <time>2022-03-17T14:30:43Z</time>
      </trkpt>
      <trkpt lat="48.35136" lon="2.73888">
        <ele>135</ele>
        <time>2022-03-17T14:30:48Z</time>
      </trkpt>
      <trkpt lat="48.35137" lon="2.73896">
        <ele>135.39999389648</ele>
        <time>2022-03-17T14:30:53Z</time>
      </trkpt>
      <trkpt lat="48.35138" lon="2.73902">
        <ele>135.39999389648</ele>
        <time>2022-03-17T14:30:58Z</time>
      </trkpt>
      <trkpt lat="48.35139" lon="2.73908">
        <ele>135.39999389648</ele>
        <time>2022-03-17T14:31:03Z</time>
      </trkpt>
      <trkpt lat="48.35141" lon="2.73914">
        <ele>136</ele>
        <time>2022-03-17T14:31:08Z</time>
      </trkpt>
      <trkpt lat="48.35142" lon="2.73921">
        <ele>136</ele>
        <time>2022-03-17T14:31:13Z</time>
      </trkpt>
      <trkpt lat="48.35143" lon="2.73926">
        <ele>136</ele>
        <time>2022-03-17T14:31:18Z</time>
      </trkpt>
      <trkpt lat="48.35145" lon="2.73934">
        <ele>136</ele>
        <time>2022-03-17T14:31:23Z</time>
      </trkpt>
      <trkpt lat="48.35146" lon="2.7394">
        <ele>136</ele>
        <time>2022-03-17T14:31:28Z</time>
      </trkpt>
      <trkpt lat="48.35148" lon="2.73949">
        <ele>136.19999694824</ele>
        <time>2022-03-17T14:31:33Z</time>
      </trkpt>
      <trkpt lat="48.35149" lon="2.73955">
        <ele>136.39999389648</ele>
        <time>2022-03-17T14:31:38Z</time>
      </trkpt>
      <trkpt lat="48.35148" lon="2.73961">
        <ele>136.60000610352</ele>
        <time>2022-03-17T14:31:43Z</time>
      </trkpt>
      <trkpt lat="48.35147" lon="2.73968">
        <ele>136.60000610352</ele>
        <time>2022-03-17T14:31:48Z</time>
      </trkpt>
      <trkpt lat="48.35146" lon="2.73976">
        <ele>136.60000610352</ele>
        <time>2022-03-17T14:31:53Z</time>
      </trkpt>
      <trkpt lat="48.35144" lon="2.73983">
        <ele>136.80000305176</ele>
        <time>2022-03-17T14:31:58Z</time>
      </trkpt>
      <trkpt lat="48.35142" lon="2.73987">
        <ele>136.39999389648</ele>
        <time>2022-03-17T14:32:03Z</time>
      </trkpt>
      <trkpt lat="48.35142" lon="2.73993">
        <ele>136.19999694824</ele>
        <time>2022-03-17T14:32:08Z</time>
      </trkpt>
      <trkpt lat="48.35142" lon="2.74002">
        <ele>136.39999389648</ele>
        <time>2022-03-17T14:32:13Z</time>
      </trkpt>
      <trkpt lat="48.35141" lon="2.74009">
        <ele>136.60000610352</ele>
        <time>2022-03-17T14:32:18Z</time>
      </trkpt>
      <trkpt lat="48.35139" lon="2.74016">
        <ele>136.60000610352</ele>
        <time>2022-03-17T14:32:23Z</time>
      </trkpt>
      <trkpt lat="48.35137" lon="2.74019">
        <ele>136.60000610352</ele>
        <time>2022-03-17T14:32:28Z</time>
      </trkpt>
      <trkpt lat="48.35137" lon="2.74019">
        <ele>136.80000305176</ele>
        <time>2022-03-17T14:32:33Z</time>
      </trkpt>
      <trkpt lat="48.35136" lon="2.74021">
        <ele>136.80000305176</ele>
        <time>2022-03-17T14:32:38Z</time>
      </trkpt>
      <trkpt lat="48.35136" lon="2.74022">
        <ele>136.80000305176</ele>
        <time>2022-03-17T14:32:43Z</time>
      </trkpt>
      <trkpt lat="48.35135" lon="2.74022">
        <ele>136.80000305176</ele>
        <time>2022-03-17T14:32:48Z</time>
      </trkpt>
      <trkpt lat="48.35135" lon="2.74024">
        <ele>137</ele>
        <time>2022-03-17T14:32:53Z</time>
      </trkpt>
      <trkpt lat="48.35134" lon="2.74025">
        <ele>137</ele>
        <time>2022-03-17T14:32:58Z</time>
      </trkpt>
      <trkpt lat="48.35134" lon="2.74025">
        <ele>137</ele>
        <time>2022-03-17T14:33:03Z</time>
      </trkpt>
      <trkpt lat="48.35134" lon="2.74026">
        <ele>137.19999694824</ele>
        <time>2022-03-17T14:33:08Z</time>
      </trkpt>
      <trkpt lat="48.35135" lon="2.74025">
        <ele>137</ele>
        <time>2022-03-17T14:33:13Z</time>
      </trkpt>
      <trkpt lat="48.35135" lon="2.74024">
        <ele>137</ele>
        <time>2022-03-17T14:33:18Z</time>
      </trkpt>
      <trkpt lat="48.35134" lon="2.74022">
        <ele>137</ele>
        <time>2022-03-17T14:33:23Z</time>
      </trkpt>
      <trkpt lat="48.35133" lon="2.74021">
        <ele>137</ele>
        <time>2022-03-17T14:33:28Z</time>
      </trkpt>
      <trkpt lat="48.35131" lon="2.74023">
        <ele>137.19999694824</ele>
        <time>2022-03-17T14:33:33Z</time>
      </trkpt>
      <trkpt lat="48.35127" lon="2.74025">
        <ele>137.19999694824</ele>
        <time>2022-03-17T14:33:38Z</time>
      </trkpt>
      <trkpt lat="48.35123" lon="2.74026">
        <ele>137.19999694824</ele>
        <time>2022-03-17T14:33:43Z</time>
      </trkpt>
      <trkpt lat="48.35118" lon="2.74027">
        <ele>137.19999694824</ele>
        <time>2022-03-17T14:33:48Z</time>
      </trkpt>
      <trkpt lat="48.35114" lon="2.74027">
        <ele>137.19999694824</ele>
        <time>2022-03-17T14:33:53Z</time>
      </trkpt>
      <trkpt lat="48.35111" lon="2.74026">
        <ele>137.19999694824</ele>
        <time>2022-03-17T14:33:58Z</time>
      </trkpt>
      <trkpt lat="48.35107" lon="2.74025">
        <ele>137.19999694824</ele>
        <time>2022-03-17T14:34:03Z</time>
      </trkpt>
      <trkpt lat="48.35101" lon="2.74028">
        <ele>137.19999694824</ele>
        <time>2022-03-17T14:34:08Z</time>
      </trkpt>
      <trkpt lat="48.35096" lon="2.74027">
        <ele>137.19999694824</ele>
        <time>2022-03-17T14:34:13Z</time>
      </trkpt>
      <trkpt lat="48.35091" lon="2.74028">
        <ele>137.19999694824</ele>
        <time>2022-03-17T14:34:18Z</time>
      </trkpt>
      <trkpt lat="48.35086" lon="2.74031">
        <ele>137.19999694824</ele>
        <time>2022-03-17T14:34:23Z</time>
      </trkpt>
      <trkpt lat="48.35082" lon="2.74033">
        <ele>137.19999694824</ele>
        <time>2022-03-17T14:34:28Z</time>
      </trkpt>
      <trkpt lat="48.35077" lon="2.74035">
        <ele>137.19999694824</ele>
        <time>2022-03-17T14:34:33Z</time>
      </trkpt>
      <trkpt lat="48.35072" lon="2.74037">
        <ele>137.19999694824</ele>
        <time>2022-03-17T14:34:38Z</time>
      </trkpt>
      <trkpt lat="48.35067" lon="2.74037">
        <ele>137.19999694824</ele>
        <time>2022-03-17T14:34:43Z</time>
      </trkpt>
      <trkpt lat="48.35062" lon="2.74038">
        <ele>137.19999694824</ele>
        <time>2022-03-17T14:34:48Z</time>
      </trkpt>
      <trkpt lat="48.35057" lon="2.74039">
        <ele>137.19999694824</ele>
        <time>2022-03-17T14:34:53Z</time>
      </trkpt>
      <trkpt lat="48.35053" lon="2.7404">
        <ele>137.19999694824</ele>
        <time>2022-03-17T14:34:58Z</time>
      </trkpt>
      <trkpt lat="48.3505" lon="2.74041">
        <ele>137.19999694824</ele>
        <time>2022-03-17T14:35:03Z</time>
      </trkpt>
      <trkpt lat="48.35045" lon="2.74043">
        <ele>137.19999694824</ele>
        <time>2022-03-17T14:35:08Z</time>
      </trkpt>
      <trkpt lat="48.3504" lon="2.74044">
        <ele>137.19999694824</ele>
        <time>2022-03-17T14:35:13Z</time>
      </trkpt>
      <trkpt lat="48.35034" lon="2.74046">
        <ele>137.19999694824</ele>
        <time>2022-03-17T14:35:18Z</time>
      </trkpt>
      <trkpt lat="48.35029" lon="2.74049">
        <ele>137.19999694824</ele>
        <time>2022-03-17T14:35:23Z</time>
      </trkpt>
      <trkpt lat="48.35025" lon="2.74051">
        <ele>137.19999694824</ele>
        <time>2022-03-17T14:35:28Z</time>
      </trkpt>
      <trkpt lat="48.35018" lon="2.74053">
        <ele>137.19999694824</ele>
        <time>2022-03-17T14:35:33Z</time>
      </trkpt>
      <trkpt lat="48.35012" lon="2.74052">
        <ele>137.19999694824</ele>
        <time>2022-03-17T14:35:38Z</time>
      </trkpt>
      <trkpt lat="48.35006" lon="2.74055">
        <ele>137.19999694824</ele>
        <time>2022-03-17T14:35:43Z</time>
      </trkpt>
      <trkpt lat="48.35001" lon="2.74055">
        <ele>137.19999694824</ele>
        <time>2022-03-17T14:35:48Z</time>
      </trkpt>
      <trkpt lat="48.34996" lon="2.74057">
        <ele>137.19999694824</ele>
        <time>2022-03-17T14:35:53Z</time>
      </trkpt>
      <trkpt lat="48.34991" lon="2.74058">
        <ele>137.19999694824</ele>
        <time>2022-03-17T14:35:58Z</time>
      </trkpt>
      <trkpt lat="48.34984" lon="2.74061">
        <ele>137.19999694824</ele>
        <time>2022-03-17T14:36:03Z</time>
      </trkpt>
      <trkpt lat="48.3498" lon="2.74065">
        <ele>137.19999694824</ele>
        <time>2022-03-17T14:36:08Z</time>
      </trkpt>
      <trkpt lat="48.34976" lon="2.74067">
        <ele>137.19999694824</ele>
        <time>2022-03-17T14:36:13Z</time>
      </trkpt>
      <trkpt lat="48.34969" lon="2.74073">
        <ele>137.19999694824</ele>
        <time>2022-03-17T14:36:18Z</time>
      </trkpt>
      <trkpt lat="48.34963" lon="2.74076">
        <ele>137.19999694824</ele>
        <time>2022-03-17T14:36:23Z</time>
      </trkpt>
      <trkpt lat="48.34959" lon="2.74077">
        <ele>137.19999694824</ele>
        <time>2022-03-17T14:36:28Z</time>
      </trkpt>
      <trkpt lat="48.34952" lon="2.74082">
        <ele>137.19999694824</ele>
        <time>2022-03-17T14:36:33Z</time>
      </trkpt>
      <trkpt lat="48.3495" lon="2.74083">
        <ele>137.19999694824</ele>
        <time>2022-03-17T14:36:38Z</time>
      </trkpt>
      <trkpt lat="48.34943" lon="2.74088">
        <ele>137.19999694824</ele>
        <time>2022-03-17T14:36:43Z</time>
      </trkpt>
      <trkpt lat="48.34939" lon="2.74089">
        <ele>137.19999694824</ele>
        <time>2022-03-17T14:36:48Z</time>
      </trkpt>
      <trkpt lat="48.34935" lon="2.74093">
        <ele>137.19999694824</ele>
        <time>2022-03-17T14:36:53Z</time>
      </trkpt>
      <trkpt lat="48.34933" lon="2.74095">
        <ele>137.19999694824</ele>
        <time>2022-03-17T14:36:58Z</time>
      </trkpt>
      <trkpt lat="48.34926" lon="2.74099">
        <ele>137.19999694824</ele>
        <time>2022-03-17T14:37:03Z</time>
      </trkpt>
      <trkpt lat="48.3492" lon="2.74101">
        <ele>137.19999694824</ele>
        <time>2022-03-17T14:37:08Z</time>
      </trkpt>
      <trkpt lat="48.34913" lon="2.74105">
        <ele>137.19999694824</ele>
        <time>2022-03-17T14:37:13Z</time>
      </trkpt>
      <trkpt lat="48.34909" lon="2.74106">
        <ele>137.19999694824</ele>
        <time>2022-03-17T14:37:18Z</time>
      </trkpt>
      <trkpt lat="48.34905" lon="2.7411">
        <ele>137.19999694824</ele>
        <time>2022-03-17T14:37:23Z</time>
      </trkpt>
      <trkpt lat="48.34901" lon="2.7411">
        <ele>137.19999694824</ele>
        <time>2022-03-17T14:37:28Z</time>
      </trkpt>
      <trkpt lat="48.349" lon="2.74111">
        <ele>137.19999694824</ele>
        <time>2022-03-17T14:37:33Z</time>
      </trkpt>
      <trkpt lat="48.34896" lon="2.74114">
        <ele>137.19999694824</ele>
        <time>2022-03-17T14:37:38Z</time>
      </trkpt>
      <trkpt lat="48.3489" lon="2.74118">
        <ele>137.19999694824</ele>
        <time>2022-03-17T14:37:43Z</time>
      </trkpt>
      <trkpt lat="48.34885" lon="2.74121">
        <ele>137.19999694824</ele>
        <time>2022-03-17T14:37:48Z</time>
      </trkpt>
      <trkpt lat="48.34881" lon="2.74123">
        <ele>137.19999694824</ele>
        <time>2022-03-17T14:37:53Z</time>
      </trkpt>
      <trkpt lat="48.34874" lon="2.74128">
        <ele>137.19999694824</ele>
        <time>2022-03-17T14:37:58Z</time>
      </trkpt>
      <trkpt lat="48.34873" lon="2.7413">
        <ele>137.19999694824</ele>
        <time>2022-03-17T14:38:03Z</time>
      </trkpt>
      <trkpt lat="48.34871" lon="2.74131">
        <ele>137.19999694824</ele>
        <time>2022-03-17T14:38:08Z</time>
      </trkpt>
      <trkpt lat="48.34868" lon="2.74132">
        <ele>137.19999694824</ele>
        <time>2022-03-17T14:38:13Z</time>
      </trkpt>
      <trkpt lat="48.34864" lon="2.74136">
        <ele>137.19999694824</ele>
        <time>2022-03-17T14:38:18Z</time>
      </trkpt>
      <trkpt lat="48.34861" lon="2.74136">
        <ele>137.19999694824</ele>
        <time>2022-03-17T14:38:23Z</time>
      </trkpt>
      <trkpt lat="48.34853" lon="2.74138">
        <ele>137.19999694824</ele>
        <time>2022-03-17T14:38:28Z</time>
      </trkpt>
      <trkpt lat="48.34847" lon="2.74142">
        <ele>137.19999694824</ele>
        <time>2022-03-17T14:38:33Z</time>
      </trkpt>
      <trkpt lat="48.34842" lon="2.74145">
        <ele>137.19999694824</ele>
        <time>2022-03-17T14:38:38Z</time>
      </trkpt>
      <trkpt lat="48.34837" lon="2.74146">
        <ele>137.19999694824</ele>
        <time>2022-03-17T14:38:43Z</time>
      </trkpt>
      <trkpt lat="48.34832" lon="2.74147">
        <ele>137.19999694824</ele>
        <time>2022-03-17T14:38:48Z</time>
      </trkpt>
      <trkpt lat="48.34826" lon="2.7415">
        <ele>137.19999694824</ele>
        <time>2022-03-17T14:38:53Z</time>
      </trkpt>
      <trkpt lat="48.34821" lon="2.74154">
        <ele>137.19999694824</ele>
        <time>2022-03-17T14:38:58Z</time>
      </trkpt>
      <trkpt lat="48.34817" lon="2.74155">
        <ele>137.19999694824</ele>
        <time>2022-03-17T14:39:03Z</time>
      </trkpt>
      <trkpt lat="48.34811" lon="2.74158">
        <ele>137.19999694824</ele>
        <time>2022-03-17T14:39:08Z</time>
      </trkpt>
      <trkpt lat="48.34806" lon="2.7416">
        <ele>137.19999694824</ele>
        <time>2022-03-17T14:39:13Z</time>
      </trkpt>
      <trkpt lat="48.34801" lon="2.74161">
        <ele>137.19999694824</ele>
        <time>2022-03-17T14:39:18Z</time>
      </trkpt>
      <trkpt lat="48.34797" lon="2.74164">
        <ele>137.19999694824</ele>
        <time>2022-03-17T14:39:23Z</time>
      </trkpt>
      <trkpt lat="48.34792" lon="2.74166">
        <ele>137.19999694824</ele>
        <time>2022-03-17T14:39:28Z</time>
      </trkpt>
      <trkpt lat="48.34786" lon="2.74168">
        <ele>137.19999694824</ele>
        <time>2022-03-17T14:39:33Z</time>
      </trkpt>
      <trkpt lat="48.34782" lon="2.7417">
        <ele>137.19999694824</ele>
        <time>2022-03-17T14:39:38Z</time>
      </trkpt>
      <trkpt lat="48.34777" lon="2.7417">
        <ele>137.19999694824</ele>
        <time>2022-03-17T14:39:43Z</time>
      </trkpt>
      <trkpt lat="48.34773" lon="2.74172">
        <ele>137.19999694824</ele>
        <time>2022-03-17T14:39:48Z</time>
      </trkpt>
      <trkpt lat="48.34768" lon="2.74176">
        <ele>137.19999694824</ele>
        <time>2022-03-17T14:39:53Z</time>
      </trkpt>
      <trkpt lat="48.34764" lon="2.7418">
        <ele>137.19999694824</ele>
        <time>2022-03-17T14:39:58Z</time>
      </trkpt>
      <trkpt lat="48.34759" lon="2.74183">
        <ele>137.19999694824</ele>
        <time>2022-03-17T14:40:03Z</time>
      </trkpt>
      <trkpt lat="48.34754" lon="2.74187">
        <ele>137.19999694824</ele>
        <time>2022-03-17T14:40:08Z</time>
      </trkpt>
      <trkpt lat="48.34749" lon="2.7419">
        <ele>137.19999694824</ele>
        <time>2022-03-17T14:40:13Z</time>
      </trkpt>
      <trkpt lat="48.34744" lon="2.74193">
        <ele>137.19999694824</ele>
        <time>2022-03-17T14:40:18Z</time>
      </trkpt>
      <trkpt lat="48.3474" lon="2.74195">
        <ele>137.19999694824</ele>
        <time>2022-03-17T14:40:23Z</time>
      </trkpt>
      <trkpt lat="48.34734" lon="2.74198">
        <ele>137.19999694824</ele>
        <time>2022-03-17T14:40:28Z</time>
      </trkpt>
      <trkpt lat="48.3473" lon="2.74202">
        <ele>137.19999694824</ele>
        <time>2022-03-17T14:40:33Z</time>
      </trkpt>
      <trkpt lat="48.34727" lon="2.74207">
        <ele>137.19999694824</ele>
        <time>2022-03-17T14:40:38Z</time>
      </trkpt>
      <trkpt lat="48.34722" lon="2.74211">
        <ele>133.39999389648</ele>
        <time>2022-03-17T14:40:43Z</time>
      </trkpt>
      <trkpt lat="48.34719" lon="2.74215">
        <ele>133.39999389648</ele>
        <time>2022-03-17T14:40:48Z</time>
      </trkpt>
      <trkpt lat="48.34717" lon="2.74216">
        <ele>133.39999389648</ele>
        <time>2022-03-17T14:40:53Z</time>
      </trkpt>
      <trkpt lat="48.34711" lon="2.74224">
        <ele>133.19999694824</ele>
        <time>2022-03-17T14:40:58Z</time>
      </trkpt>
      <trkpt lat="48.34708" lon="2.74228">
        <ele>133</ele>
        <time>2022-03-17T14:41:03Z</time>
      </trkpt>
      <trkpt lat="48.34703" lon="2.74232">
        <ele>132.60000610352</ele>
        <time>2022-03-17T14:41:08Z</time>
      </trkpt>
      <trkpt lat="48.34699" lon="2.74236">
        <ele>132.60000610352</ele>
        <time>2022-03-17T14:41:13Z</time>
      </trkpt>
      <trkpt lat="48.34694" lon="2.7424">
        <ele>132.39999389648</ele>
        <time>2022-03-17T14:41:18Z</time>
      </trkpt>
      <trkpt lat="48.3469" lon="2.74243">
        <ele>132.19999694824</ele>
        <time>2022-03-17T14:41:23Z</time>
      </trkpt>
      <trkpt lat="48.34686" lon="2.74244">
        <ele>132</ele>
        <time>2022-03-17T14:41:28Z</time>
      </trkpt>
      <trkpt lat="48.34682" lon="2.74246">
        <ele>132</ele>
        <time>2022-03-17T14:41:33Z</time>
      </trkpt>
      <trkpt lat="48.34677" lon="2.74251">
        <ele>131.80000305176</ele>
        <time>2022-03-17T14:41:38Z</time>
      </trkpt>
      <trkpt lat="48.34673" lon="2.74254">
        <ele>131.60000610352</ele>
        <time>2022-03-17T14:41:43Z</time>
      </trkpt>
      <trkpt lat="48.34669" lon="2.74257">
        <ele>131.19999694824</ele>
        <time>2022-03-17T14:41:48Z</time>
      </trkpt>
      <trkpt lat="48.34665" lon="2.7426">
        <ele>131.19999694824</ele>
        <time>2022-03-17T14:41:53Z</time>
      </trkpt>
      <trkpt lat="48.3466" lon="2.74262">
        <ele>131.19999694824</ele>
        <time>2022-03-17T14:41:58Z</time>
      </trkpt>
      <trkpt lat="48.34657" lon="2.74264">
        <ele>131.19999694824</ele>
        <time>2022-03-17T14:42:03Z</time>
      </trkpt>
      <trkpt lat="48.34656" lon="2.74265">
        <ele>131</ele>
        <time>2022-03-17T14:42:08Z</time>
      </trkpt>
      <trkpt lat="48.34653" lon="2.74264">
        <ele>131</ele>
        <time>2022-03-17T14:42:13Z</time>
      </trkpt>
      <trkpt lat="48.34647" lon="2.74267">
        <ele>130.39999389648</ele>
        <time>2022-03-17T14:42:18Z</time>
      </trkpt>
      <trkpt lat="48.34641" lon="2.74267">
        <ele>130.39999389648</ele>
        <time>2022-03-17T14:42:23Z</time>
      </trkpt>
      <trkpt lat="48.34634" lon="2.74266">
        <ele>130.19999694824</ele>
        <time>2022-03-17T14:42:28Z</time>
      </trkpt>
      <trkpt lat="48.3463" lon="2.74264">
        <ele>130.19999694824</ele>
        <time>2022-03-17T14:42:33Z</time>
      </trkpt>
      <trkpt lat="48.34626" lon="2.7426">
        <ele>130.19999694824</ele>
        <time>2022-03-17T14:42:38Z</time>
      </trkpt>
      <trkpt lat="48.34621" lon="2.74257">
        <ele>130.19999694824</ele>
        <time>2022-03-17T14:42:43Z</time>
      </trkpt>
      <trkpt lat="48.34616" lon="2.74254">
        <ele>130.39999389648</ele>
        <time>2022-03-17T14:42:48Z</time>
      </trkpt>
      <trkpt lat="48.34611" lon="2.74251">
        <ele>130.39999389648</ele>
        <time>2022-03-17T14:42:53Z</time>
      </trkpt>
      <trkpt lat="48.34606" lon="2.74244">
        <ele>130.39999389648</ele>
        <time>2022-03-17T14:42:58Z</time>
      </trkpt>
      <trkpt lat="48.346" lon="2.74242">
        <ele>130.60000610352</ele>
        <time>2022-03-17T14:43:03Z</time>
      </trkpt>
      <trkpt lat="48.346" lon="2.74241">
        <ele>130.80000305176</ele>
        <time>2022-03-17T14:43:08Z</time>
      </trkpt>
      <trkpt lat="48.346" lon="2.7424">
        <ele>130.80000305176</ele>
        <time>2022-03-17T14:43:13Z</time>
      </trkpt>
      <trkpt lat="48.34599" lon="2.74239">
        <ele>130.80000305176</ele>
        <time>2022-03-17T14:43:18Z</time>
      </trkpt>
      <trkpt lat="48.34598" lon="2.74237">
        <ele>130.80000305176</ele>
        <time>2022-03-17T14:43:23Z</time>
      </trkpt>
      <trkpt lat="48.34597" lon="2.74235">
        <ele>130.80000305176</ele>
        <time>2022-03-17T14:43:28Z</time>
      </trkpt>
      <trkpt lat="48.34596" lon="2.74235">
        <ele>131</ele>
        <time>2022-03-17T14:43:33Z</time>
      </trkpt>
      <trkpt lat="48.34596" lon="2.74235">
        <ele>130.80000305176</ele>
        <time>2022-03-17T14:43:38Z</time>
      </trkpt>
      <trkpt lat="48.34596" lon="2.74235">
        <ele>130.60000610352</ele>
        <time>2022-03-17T14:43:43Z</time>
      </trkpt>
      <trkpt lat="48.34594" lon="2.74231">
        <ele>130.60000610352</ele>
        <time>2022-03-17T14:43:48Z</time>
      </trkpt>
      <trkpt lat="48.34592" lon="2.74228">
        <ele>130.60000610352</ele>
        <time>2022-03-17T14:43:53Z</time>
      </trkpt>
      <trkpt lat="48.34589" lon="2.74225">
        <ele>130.60000610352</ele>
        <time>2022-03-17T14:43:58Z</time>
      </trkpt>
      <trkpt lat="48.34589" lon="2.7422">
        <ele>130.60000610352</ele>
        <time>2022-03-17T14:44:03Z</time>
      </trkpt>
      <trkpt lat="48.34587" lon="2.74216">
        <ele>130.60000610352</ele>
        <time>2022-03-17T14:44:08Z</time>
      </trkpt>
      <trkpt lat="48.34585" lon="2.7421">
        <ele>130.60000610352</ele>
        <time>2022-03-17T14:44:13Z</time>
      </trkpt>
      <trkpt lat="48.34583" lon="2.74204">
        <ele>130.60000610352</ele>
        <time>2022-03-17T14:44:18Z</time>
      </trkpt>
      <trkpt lat="48.34581" lon="2.74198">
        <ele>130.60000610352</ele>
        <time>2022-03-17T14:44:23Z</time>
      </trkpt>
      <trkpt lat="48.3458" lon="2.74193">
        <ele>130.60000610352</ele>
        <time>2022-03-17T14:44:27Z</time>
      </trkpt>
      <trkpt lat="48.34578" lon="2.74184">
        <ele>130.60000610352</ele>
        <time>2022-03-17T14:44:33Z</time>
      </trkpt>
      <trkpt lat="48.34577" lon="2.74177">
        <ele>130.60000610352</ele>
        <time>2022-03-17T14:44:38Z</time>
      </trkpt>
      <trkpt lat="48.34577" lon="2.7417">
        <ele>130.60000610352</ele>
        <time>2022-03-17T14:44:43Z</time>
      </trkpt>
      <trkpt lat="48.34576" lon="2.74163">
        <ele>130.60000610352</ele>
        <time>2022-03-17T14:44:48Z</time>
      </trkpt>
      <trkpt lat="48.34575" lon="2.74155">
        <ele>130.60000610352</ele>
        <time>2022-03-17T14:44:53Z</time>
      </trkpt>
      <trkpt lat="48.34575" lon="2.74147">
        <ele>130.60000610352</ele>
        <time>2022-03-17T14:44:58Z</time>
      </trkpt>
      <trkpt lat="48.34575" lon="2.74142">
        <ele>130.60000610352</ele>
        <time>2022-03-17T14:45:03Z</time>
      </trkpt>
      <trkpt lat="48.34576" lon="2.74136">
        <ele>130.60000610352</ele>
        <time>2022-03-17T14:45:08Z</time>
      </trkpt>
      <trkpt lat="48.34578" lon="2.7413">
        <ele>130.60000610352</ele>
        <time>2022-03-17T14:45:13Z</time>
      </trkpt>
      <trkpt lat="48.34579" lon="2.74123">
        <ele>130.60000610352</ele>
        <time>2022-03-17T14:45:18Z</time>
      </trkpt>
      <trkpt lat="48.3458" lon="2.74114">
        <ele>130.60000610352</ele>
        <time>2022-03-17T14:45:23Z</time>
      </trkpt>
      <trkpt lat="48.34579" lon="2.74112">
        <ele>130.60000610352</ele>
        <time>2022-03-17T14:45:28Z</time>
      </trkpt>
      <trkpt lat="48.3458" lon="2.74111">
        <ele>130.60000610352</ele>
        <time>2022-03-17T14:45:33Z</time>
      </trkpt>
      <trkpt lat="48.34581" lon="2.74109">
        <ele>130.60000610352</ele>
        <time>2022-03-17T14:45:38Z</time>
      </trkpt>
      <trkpt lat="48.34576" lon="2.74101">
        <ele>130.60000610352</ele>
        <time>2022-03-17T14:45:43Z</time>
      </trkpt>
      <trkpt lat="48.34575" lon="2.74101">
        <ele>130.60000610352</ele>
        <time>2022-03-17T14:45:48Z</time>
      </trkpt>
      <trkpt lat="48.34573" lon="2.74105">
        <ele>130.60000610352</ele>
        <time>2022-03-17T14:45:53Z</time>
      </trkpt>
      <trkpt lat="48.34571" lon="2.74113">
        <ele>130.60000610352</ele>
        <time>2022-03-17T14:45:58Z</time>
      </trkpt>
      <trkpt lat="48.34568" lon="2.74119">
        <ele>130.60000610352</ele>
        <time>2022-03-17T14:46:03Z</time>
      </trkpt>
      <trkpt lat="48.34566" lon="2.74123">
        <ele>129.80000305176</ele>
        <time>2022-03-17T14:46:08Z</time>
      </trkpt>
      <trkpt lat="48.34564" lon="2.74129">
        <ele>129.19999694824</ele>
        <time>2022-03-17T14:46:13Z</time>
      </trkpt>
      <trkpt lat="48.34563" lon="2.74135">
        <ele>128.60000610352</ele>
        <time>2022-03-17T14:46:18Z</time>
      </trkpt>
      <trkpt lat="48.34562" lon="2.74142">
        <ele>127.80000305176</ele>
        <time>2022-03-17T14:46:23Z</time>
      </trkpt>
      <trkpt lat="48.3456" lon="2.74151">
        <ele>127.40000152588</ele>
        <time>2022-03-17T14:46:28Z</time>
      </trkpt>
      <trkpt lat="48.34558" lon="2.74156">
        <ele>127</ele>
        <time>2022-03-17T14:46:33Z</time>
      </trkpt>
      <trkpt lat="48.34555" lon="2.74162">
        <ele>126.40000152588</ele>
        <time>2022-03-17T14:46:38Z</time>
      </trkpt>
      <trkpt lat="48.34554" lon="2.74169">
        <ele>126</ele>
        <time>2022-03-17T14:46:43Z</time>
      </trkpt>
      <trkpt lat="48.34552" lon="2.74178">
        <ele>125.40000152588</ele>
        <time>2022-03-17T14:46:48Z</time>
      </trkpt>
      <trkpt lat="48.3455" lon="2.74186">
        <ele>124.80000305176</ele>
        <time>2022-03-17T14:46:53Z</time>
      </trkpt>
      <trkpt lat="48.34548" lon="2.74196">
        <ele>124.19999694824</ele>
        <time>2022-03-17T14:46:58Z</time>
      </trkpt>
      <trkpt lat="48.34547" lon="2.74203">
        <ele>123.40000152588</ele>
        <time>2022-03-17T14:47:03Z</time>
      </trkpt>
      <trkpt lat="48.34545" lon="2.74211">
        <ele>123</ele>
        <time>2022-03-17T14:47:08Z</time>
      </trkpt>
      <trkpt lat="48.34544" lon="2.74216">
        <ele>122.59999847412</ele>
        <time>2022-03-17T14:47:13Z</time>
      </trkpt>
      <trkpt lat="48.34543" lon="2.74224">
        <ele>122</ele>
        <time>2022-03-17T14:47:18Z</time>
      </trkpt>
      <trkpt lat="48.34542" lon="2.74233">
        <ele>121.59999847412</ele>
        <time>2022-03-17T14:47:23Z</time>
      </trkpt>
      <trkpt lat="48.34541" lon="2.7424">
        <ele>121.19999694824</ele>
        <time>2022-03-17T14:47:28Z</time>
      </trkpt>
      <trkpt lat="48.3454" lon="2.74247">
        <ele>120.59999847412</ele>
        <time>2022-03-17T14:47:33Z</time>
      </trkpt>
      <trkpt lat="48.34541" lon="2.74254">
        <ele>120.19999694824</ele>
        <time>2022-03-17T14:47:38Z</time>
      </trkpt>
      <trkpt lat="48.34541" lon="2.74263">
        <ele>119.59999847412</ele>
        <time>2022-03-17T14:47:43Z</time>
      </trkpt>
      <trkpt lat="48.34541" lon="2.7427">
        <ele>118.59999847412</ele>
        <time>2022-03-17T14:47:48Z</time>
      </trkpt>
      <trkpt lat="48.34541" lon="2.74277">
        <ele>117.80000305176</ele>
        <time>2022-03-17T14:47:53Z</time>
      </trkpt>
      <trkpt lat="48.3454" lon="2.74285">
        <ele>117.40000152588</ele>
        <time>2022-03-17T14:47:58Z</time>
      </trkpt>
      <trkpt lat="48.34539" lon="2.7429">
        <ele>117</ele>
        <time>2022-03-17T14:48:03Z</time>
      </trkpt>
      <trkpt lat="48.34536" lon="2.74292">
        <ele>116.19999694824</ele>
        <time>2022-03-17T14:48:08Z</time>
      </trkpt>
      <trkpt lat="48.34532" lon="2.74296">
        <ele>115.59999847412</ele>
        <time>2022-03-17T14:48:13Z</time>
      </trkpt>
      <trkpt lat="48.34528" lon="2.74299">
        <ele>115</ele>
        <time>2022-03-17T14:48:18Z</time>
      </trkpt>
      <trkpt lat="48.34525" lon="2.74301">
        <ele>114.59999847412</ele>
        <time>2022-03-17T14:48:23Z</time>
      </trkpt>
      <trkpt lat="48.34522" lon="2.74307">
        <ele>113.80000305176</ele>
        <time>2022-03-17T14:48:28Z</time>
      </trkpt>
      <trkpt lat="48.34521" lon="2.7431">
        <ele>113.59999847412</ele>
        <time>2022-03-17T14:48:33Z</time>
      </trkpt>
      <trkpt lat="48.34518" lon="2.74313">
        <ele>113.19999694824</ele>
        <time>2022-03-17T14:48:38Z</time>
      </trkpt>
      <trkpt lat="48.34513" lon="2.74321">
        <ele>112.59999847412</ele>
        <time>2022-03-17T14:48:43Z</time>
      </trkpt>
      <trkpt lat="48.34509" lon="2.74326">
        <ele>112</ele>
        <time>2022-03-17T14:48:48Z</time>
      </trkpt>
      <trkpt lat="48.34507" lon="2.74328">
        <ele>111.40000152588</ele>
        <time>2022-03-17T14:48:53Z</time>
      </trkpt>
      <trkpt lat="48.34505" lon="2.74329">
        <ele>110.40000152588</ele>
        <time>2022-03-17T14:48:58Z</time>
      </trkpt>
      <trkpt lat="48.345" lon="2.74334">
        <ele>110</ele>
        <time>2022-03-17T14:49:03Z</time>
      </trkpt>
      <trkpt lat="48.34495" lon="2.7434">
        <ele>109.59999847412</ele>
        <time>2022-03-17T14:49:08Z</time>
      </trkpt>
      <trkpt lat="48.34491" lon="2.74344">
        <ele>109.19999694824</ele>
        <time>2022-03-17T14:49:13Z</time>
      </trkpt>
      <trkpt lat="48.34485" lon="2.74349">
        <ele>108.80000305176</ele>
        <time>2022-03-17T14:49:18Z</time>
      </trkpt>
      <trkpt lat="48.34482" lon="2.74354">
        <ele>108.19999694824</ele>
        <time>2022-03-17T14:49:23Z</time>
      </trkpt>
      <trkpt lat="48.34478" lon="2.74357">
        <ele>107.80000305176</ele>
        <time>2022-03-17T14:49:28Z</time>
      </trkpt>
      <trkpt lat="48.34477" lon="2.74358">
        <ele>107.19999694824</ele>
        <time>2022-03-17T14:49:33Z</time>
      </trkpt>
      <trkpt lat="48.34475" lon="2.74363">
        <ele>106.59999847412</ele>
        <time>2022-03-17T14:49:38Z</time>
      </trkpt>
      <trkpt lat="48.34469" lon="2.7437">
        <ele>106.19999694824</ele>
        <time>2022-03-17T14:49:43Z</time>
      </trkpt>
      <trkpt lat="48.34464" lon="2.74376">
        <ele>105.59999847412</ele>
        <time>2022-03-17T14:49:48Z</time>
      </trkpt>
      <trkpt lat="48.34457" lon="2.74382">
        <ele>105</ele>
        <time>2022-03-17T14:49:53Z</time>
      </trkpt>
      <trkpt lat="48.34451" lon="2.74389">
        <ele>104.19999694824</ele>
        <time>2022-03-17T14:49:58Z</time>
      </trkpt>
      <trkpt lat="48.34445" lon="2.74392">
        <ele>103.59999847412</ele>
        <time>2022-03-17T14:50:03Z</time>
      </trkpt>
      <trkpt lat="48.34442" lon="2.74395">
        <ele>103</ele>
        <time>2022-03-17T14:50:08Z</time>
      </trkpt>
      <trkpt lat="48.34439" lon="2.74395">
        <ele>102.19999694824</ele>
        <time>2022-03-17T14:50:13Z</time>
      </trkpt>
      <trkpt lat="48.34433" lon="2.74397">
        <ele>101.80000305176</ele>
        <time>2022-03-17T14:50:18Z</time>
      </trkpt>
      <trkpt lat="48.34426" lon="2.74396">
        <ele>101.40000152588</ele>
        <time>2022-03-17T14:50:23Z</time>
      </trkpt>
      <trkpt lat="48.3442" lon="2.74398">
        <ele>101.19999694824</ele>
        <time>2022-03-17T14:50:28Z</time>
      </trkpt>
      <trkpt lat="48.34416" lon="2.74401">
        <ele>101</ele>
        <time>2022-03-17T14:50:33Z</time>
      </trkpt>
      <trkpt lat="48.34414" lon="2.74404">
        <ele>100.80000305176</ele>
        <time>2022-03-17T14:50:38Z</time>
      </trkpt>
      <trkpt lat="48.34413" lon="2.74405">
        <ele>101</ele>
        <time>2022-03-17T14:50:43Z</time>
      </trkpt>
      <trkpt lat="48.34412" lon="2.74404">
        <ele>100.80000305176</ele>
        <time>2022-03-17T14:50:48Z</time>
      </trkpt>
      <trkpt lat="48.34407" lon="2.74402">
        <ele>100.40000152588</ele>
        <time>2022-03-17T14:50:53Z</time>
      </trkpt>
      <trkpt lat="48.34402" lon="2.74403">
        <ele>100</ele>
        <time>2022-03-17T14:50:58Z</time>
      </trkpt>
      <trkpt lat="48.34397" lon="2.74401">
        <ele>99.800003051758</ele>
        <time>2022-03-17T14:51:03Z</time>
      </trkpt>
      <trkpt lat="48.34394" lon="2.74401">
        <ele>99.599998474121</ele>
        <time>2022-03-17T14:51:08Z</time>
      </trkpt>
      <trkpt lat="48.34392" lon="2.74402">
        <ele>99.599998474121</ele>
        <time>2022-03-17T14:51:13Z</time>
      </trkpt>
      <trkpt lat="48.3439" lon="2.74401">
        <ele>99.199996948242</ele>
        <time>2022-03-17T14:51:18Z</time>
      </trkpt>
      <trkpt lat="48.34387" lon="2.74401">
        <ele>98.800003051758</ele>
        <time>2022-03-17T14:51:23Z</time>
      </trkpt>
      <trkpt lat="48.3438" lon="2.74399">
        <ele>98.599998474121</ele>
        <time>2022-03-17T14:51:28Z</time>
      </trkpt>
      <trkpt lat="48.34368" lon="2.74399">
        <ele>98.400001525879</ele>
        <time>2022-03-17T14:51:33Z</time>
      </trkpt>
      <trkpt lat="48.34359" lon="2.74399">
        <ele>98.199996948242</ele>
        <time>2022-03-17T14:51:38Z</time>
      </trkpt>
      <trkpt lat="48.34351" lon="2.74398">
        <ele>98</ele>
        <time>2022-03-17T14:51:43Z</time>
      </trkpt>
      <trkpt lat="48.34345" lon="2.74399">
        <ele>97.800003051758</ele>
        <time>2022-03-17T14:51:48Z</time>
      </trkpt>
      <trkpt lat="48.34339" lon="2.744">
        <ele>97.800003051758</ele>
        <time>2022-03-17T14:51:53Z</time>
      </trkpt>
      <trkpt lat="48.34334" lon="2.74402">
        <ele>97.599998474121</ele>
        <time>2022-03-17T14:51:58Z</time>
      </trkpt>
      <trkpt lat="48.34328" lon="2.74404">
        <ele>97.400001525879</ele>
        <time>2022-03-17T14:52:03Z</time>
      </trkpt>
      <trkpt lat="48.34323" lon="2.74407">
        <ele>97.199996948242</ele>
        <time>2022-03-17T14:52:08Z</time>
      </trkpt>
      <trkpt lat="48.34318" lon="2.74412">
        <ele>97</ele>
        <time>2022-03-17T14:52:13Z</time>
      </trkpt>
      <trkpt lat="48.34313" lon="2.74418">
        <ele>96.800003051758</ele>
        <time>2022-03-17T14:52:18Z</time>
      </trkpt>
      <trkpt lat="48.34314" lon="2.74424">
        <ele>96.599998474121</ele>
        <time>2022-03-17T14:52:23Z</time>
      </trkpt>
      <trkpt lat="48.34316" lon="2.74435">
        <ele>96.400001525879</ele>
        <time>2022-03-17T14:52:28Z</time>
      </trkpt>
      <trkpt lat="48.34317" lon="2.74445">
        <ele>96.599998474121</ele>
        <time>2022-03-17T14:52:33Z</time>
      </trkpt>
      <trkpt lat="48.34319" lon="2.74454">
        <ele>96.599998474121</ele>
        <time>2022-03-17T14:52:38Z</time>
      </trkpt>
      <trkpt lat="48.34325" lon="2.74459">
        <ele>96.599998474121</ele>
        <time>2022-03-17T14:52:43Z</time>
      </trkpt>
      <trkpt lat="48.34329" lon="2.74464">
        <ele>96.400001525879</ele>
        <time>2022-03-17T14:52:48Z</time>
      </trkpt>
      <trkpt lat="48.34332" lon="2.74471">
        <ele>96.400001525879</ele>
        <time>2022-03-17T14:52:53Z</time>
      </trkpt>
      <trkpt lat="48.34336" lon="2.74479">
        <ele>96.400001525879</ele>
        <time>2022-03-17T14:52:58Z</time>
      </trkpt>
      <trkpt lat="48.34337" lon="2.74485">
        <ele>96.800003051758</ele>
        <time>2022-03-17T14:53:03Z</time>
      </trkpt>
      <trkpt lat="48.3434" lon="2.74488">
        <ele>96.800003051758</ele>
        <time>2022-03-17T14:53:08Z</time>
      </trkpt>
      <trkpt lat="48.34346" lon="2.74493">
        <ele>96.599998474121</ele>
        <time>2022-03-17T14:53:13Z</time>
      </trkpt>
      <trkpt lat="48.3435" lon="2.74501">
        <ele>96.599998474121</ele>
        <time>2022-03-17T14:53:18Z</time>
      </trkpt>
      <trkpt lat="48.34354" lon="2.74507">
        <ele>96.599998474121</ele>
        <time>2022-03-17T14:53:23Z</time>
      </trkpt>
      <trkpt lat="48.34359" lon="2.74513">
        <ele>96.400001525879</ele>
        <time>2022-03-17T14:53:28Z</time>
      </trkpt>
      <trkpt lat="48.34363" lon="2.74516">
        <ele>96.599998474121</ele>
        <time>2022-03-17T14:53:33Z</time>
      </trkpt>
      <trkpt lat="48.34367" lon="2.74522">
        <ele>96.599998474121</ele>
        <time>2022-03-17T14:53:38Z</time>
      </trkpt>
      <trkpt lat="48.3437" lon="2.74526">
        <ele>96.599998474121</ele>
        <time>2022-03-17T14:53:43Z</time>
      </trkpt>
      <trkpt lat="48.34375" lon="2.74529">
        <ele>96.800003051758</ele>
        <time>2022-03-17T14:53:48Z</time>
      </trkpt>
      <trkpt lat="48.34379" lon="2.74533">
        <ele>96.599998474121</ele>
        <time>2022-03-17T14:53:53Z</time>
      </trkpt>
      <trkpt lat="48.34385" lon="2.74536">
        <ele>96.400001525879</ele>
        <time>2022-03-17T14:53:58Z</time>
      </trkpt>
      <trkpt lat="48.34391" lon="2.74544">
        <ele>96.400001525879</ele>
        <time>2022-03-17T14:54:03Z</time>
      </trkpt>
      <trkpt lat="48.34395" lon="2.74549">
        <ele>96.400001525879</ele>
        <time>2022-03-17T14:54:08Z</time>
      </trkpt>
      <trkpt lat="48.34399" lon="2.74555">
        <ele>96.199996948242</ele>
        <time>2022-03-17T14:54:13Z</time>
      </trkpt>
      <trkpt lat="48.34403" lon="2.74561">
        <ele>95.800003051758</ele>
        <time>2022-03-17T14:54:18Z</time>
      </trkpt>
      <trkpt lat="48.34407" lon="2.74568">
        <ele>95.599998474121</ele>
        <time>2022-03-17T14:54:23Z</time>
      </trkpt>
      <trkpt lat="48.3441" lon="2.74574">
        <ele>95.599998474121</ele>
        <time>2022-03-17T14:54:28Z</time>
      </trkpt>
      <trkpt lat="48.34412" lon="2.7458">
        <ele>95.800003051758</ele>
        <time>2022-03-17T14:54:33Z</time>
      </trkpt>
      <trkpt lat="48.34416" lon="2.74583">
        <ele>96</ele>
        <time>2022-03-17T14:54:38Z</time>
      </trkpt>
      <trkpt lat="48.3442" lon="2.74588">
        <ele>96</ele>
        <time>2022-03-17T14:54:43Z</time>
      </trkpt>
      <trkpt lat="48.34425" lon="2.74594">
        <ele>95.800003051758</ele>
        <time>2022-03-17T14:54:48Z</time>
      </trkpt>
      <trkpt lat="48.34432" lon="2.74598">
        <ele>96.199996948242</ele>
        <time>2022-03-17T14:54:53Z</time>
      </trkpt>
      <trkpt lat="48.3444" lon="2.74601">
        <ele>96.199996948242</ele>
        <time>2022-03-17T14:54:58Z</time>
      </trkpt>
      <trkpt lat="48.34443" lon="2.74607">
        <ele>96.199996948242</ele>
        <time>2022-03-17T14:55:03Z</time>
      </trkpt>
      <trkpt lat="48.34448" lon="2.74613">
        <ele>96.199996948242</ele>
        <time>2022-03-17T14:55:08Z</time>
      </trkpt>
      <trkpt lat="48.34453" lon="2.74618">
        <ele>96.199996948242</ele>
        <time>2022-03-17T14:55:13Z</time>
      </trkpt>
      <trkpt lat="48.34458" lon="2.74623">
        <ele>96</ele>
        <time>2022-03-17T14:55:18Z</time>
      </trkpt>
      <trkpt lat="48.34462" lon="2.74629">
        <ele>95.800003051758</ele>
        <time>2022-03-17T14:55:23Z</time>
      </trkpt>
      <trkpt lat="48.34467" lon="2.74633">
        <ele>95.800003051758</ele>
        <time>2022-03-17T14:55:28Z</time>
      </trkpt>
      <trkpt lat="48.34472" lon="2.74635">
        <ele>96</ele>
        <time>2022-03-17T14:55:33Z</time>
      </trkpt>
      <trkpt lat="48.34476" lon="2.74638">
        <ele>96</ele>
        <time>2022-03-17T14:55:38Z</time>
      </trkpt>
      <trkpt lat="48.34481" lon="2.74644">
        <ele>96</ele>
        <time>2022-03-17T14:55:43Z</time>
      </trkpt>
      <trkpt lat="48.34487" lon="2.74652">
        <ele>96.199996948242</ele>
        <time>2022-03-17T14:55:48Z</time>
      </trkpt>
      <trkpt lat="48.3449" lon="2.74658">
        <ele>96.199996948242</ele>
        <time>2022-03-17T14:55:53Z</time>
      </trkpt>
      <trkpt lat="48.34493" lon="2.74663">
        <ele>96.599998474121</ele>
        <time>2022-03-17T14:55:58Z</time>
      </trkpt>
      <trkpt lat="48.34498" lon="2.74667">
        <ele>96.599998474121</ele>
        <time>2022-03-17T14:56:03Z</time>
      </trkpt>
      <trkpt lat="48.34503" lon="2.74671">
        <ele>96.599998474121</ele>
        <time>2022-03-17T14:56:08Z</time>
      </trkpt>
      <trkpt lat="48.34509" lon="2.74673">
        <ele>96.599998474121</ele>
        <time>2022-03-17T14:56:13Z</time>
      </trkpt>
      <trkpt lat="48.34513" lon="2.74676">
        <ele>96.800003051758</ele>
        <time>2022-03-17T14:56:18Z</time>
      </trkpt>
      <trkpt lat="48.34518" lon="2.74681">
        <ele>97.199996948242</ele>
        <time>2022-03-17T14:56:23Z</time>
      </trkpt>
      <trkpt lat="48.34523" lon="2.74686">
        <ele>97.199996948242</ele>
        <time>2022-03-17T14:56:28Z</time>
      </trkpt>
      <trkpt lat="48.34527" lon="2.74691">
        <ele>97.199996948242</ele>
        <time>2022-03-17T14:56:33Z</time>
      </trkpt>
      <trkpt lat="48.34531" lon="2.74698">
        <ele>97.199996948242</ele>
        <time>2022-03-17T14:56:38Z</time>
      </trkpt>
      <trkpt lat="48.34536" lon="2.74702">
        <ele>97.199996948242</ele>
        <time>2022-03-17T14:56:43Z</time>
      </trkpt>
      <trkpt lat="48.34541" lon="2.74705">
        <ele>97</ele>
        <time>2022-03-17T14:56:48Z</time>
      </trkpt>
      <trkpt lat="48.34545" lon="2.74708">
        <ele>97</ele>
        <time>2022-03-17T14:56:53Z</time>
      </trkpt>
      <trkpt lat="48.3455" lon="2.74713">
        <ele>97</ele>
        <time>2022-03-17T14:56:58Z</time>
      </trkpt>
      <trkpt lat="48.34555" lon="2.74717">
        <ele>97.199996948242</ele>
        <time>2022-03-17T14:57:03Z</time>
      </trkpt>
      <trkpt lat="48.3456" lon="2.74721">
        <ele>97.400001525879</ele>
        <time>2022-03-17T14:57:08Z</time>
      </trkpt>
      <trkpt lat="48.34564" lon="2.74726">
        <ele>97.599998474121</ele>
        <time>2022-03-17T14:57:13Z</time>
      </trkpt>
      <trkpt lat="48.34568" lon="2.74733">
        <ele>97.599998474121</ele>
        <time>2022-03-17T14:57:18Z</time>
      </trkpt>
      <trkpt lat="48.34574" lon="2.74738">
        <ele>97.599998474121</ele>
        <time>2022-03-17T14:57:23Z</time>
      </trkpt>
      <trkpt lat="48.34578" lon="2.74743">
        <ele>97.800003051758</ele>
        <time>2022-03-17T14:57:28Z</time>
      </trkpt>
      <trkpt lat="48.34583" lon="2.74747">
        <ele>98</ele>
        <time>2022-03-17T14:57:33Z</time>
      </trkpt>
      <trkpt lat="48.34588" lon="2.7475">
        <ele>98</ele>
        <time>2022-03-17T14:57:38Z</time>
      </trkpt>
      <trkpt lat="48.34593" lon="2.74755">
        <ele>98</ele>
        <time>2022-03-17T14:57:43Z</time>
      </trkpt>
      <trkpt lat="48.34597" lon="2.7476">
        <ele>98.199996948242</ele>
        <time>2022-03-17T14:57:48Z</time>
      </trkpt>
      <trkpt lat="48.34602" lon="2.74764">
        <ele>98.400001525879</ele>
        <time>2022-03-17T14:57:53Z</time>
      </trkpt>
      <trkpt lat="48.34606" lon="2.74769">
        <ele>98.599998474121</ele>
        <time>2022-03-17T14:57:58Z</time>
      </trkpt>
      <trkpt lat="48.3461" lon="2.74774">
        <ele>98.800003051758</ele>
        <time>2022-03-17T14:58:03Z</time>
      </trkpt>
      <trkpt lat="48.34614" lon="2.74778">
        <ele>98.800003051758</ele>
        <time>2022-03-17T14:58:08Z</time>
      </trkpt>
      <trkpt lat="48.34618" lon="2.74782">
        <ele>98.800003051758</ele>
        <time>2022-03-17T14:58:13Z</time>
      </trkpt>
      <trkpt lat="48.34621" lon="2.74786">
        <ele>99</ele>
        <time>2022-03-17T14:58:18Z</time>
      </trkpt>
      <trkpt lat="48.34624" lon="2.74791">
        <ele>99.199996948242</ele>
        <time>2022-03-17T14:58:23Z</time>
      </trkpt>
      <trkpt lat="48.34628" lon="2.74797">
        <ele>99.400001525879</ele>
        <time>2022-03-17T14:58:28Z</time>
      </trkpt>
      <trkpt lat="48.34632" lon="2.748">
        <ele>99.599998474121</ele>
        <time>2022-03-17T14:58:33Z</time>
      </trkpt>
      <trkpt lat="48.34636" lon="2.74805">
        <ele>99.800003051758</ele>
        <time>2022-03-17T14:58:38Z</time>
      </trkpt>
      <trkpt lat="48.34639" lon="2.74808">
        <ele>100</ele>
        <time>2022-03-17T14:58:43Z</time>
      </trkpt>
      <trkpt lat="48.34644" lon="2.74812">
        <ele>100</ele>
        <time>2022-03-17T14:58:48Z</time>
      </trkpt>
      <trkpt lat="48.3465" lon="2.74817">
        <ele>100.19999694824</ele>
        <time>2022-03-17T14:58:53Z</time>
      </trkpt>
      <trkpt lat="48.34653" lon="2.74821">
        <ele>100.40000152588</ele>
        <time>2022-03-17T14:58:58Z</time>
      </trkpt>
      <trkpt lat="48.34657" lon="2.74826">
        <ele>100.80000305176</ele>
        <time>2022-03-17T14:59:03Z</time>
      </trkpt>
      <trkpt lat="48.3466" lon="2.74833">
        <ele>101</ele>
        <time>2022-03-17T14:59:08Z</time>
      </trkpt>
      <trkpt lat="48.34665" lon="2.74838">
        <ele>101.19999694824</ele>
        <time>2022-03-17T14:59:13Z</time>
      </trkpt>
      <trkpt lat="48.34669" lon="2.74843">
        <ele>101.40000152588</ele>
        <time>2022-03-17T14:59:18Z</time>
      </trkpt>
      <trkpt lat="48.34672" lon="2.74847">
        <ele>101.59999847412</ele>
        <time>2022-03-17T14:59:23Z</time>
      </trkpt>
      <trkpt lat="48.34676" lon="2.7485">
        <ele>101.59999847412</ele>
        <time>2022-03-17T14:59:28Z</time>
      </trkpt>
      <trkpt lat="48.34681" lon="2.74852">
        <ele>101.59999847412</ele>
        <time>2022-03-17T14:59:33Z</time>
      </trkpt>
      <trkpt lat="48.34686" lon="2.74854">
        <ele>101.59999847412</ele>
        <time>2022-03-17T14:59:38Z</time>
      </trkpt>
      <trkpt lat="48.3469" lon="2.74856">
        <ele>101.80000305176</ele>
        <time>2022-03-17T14:59:43Z</time>
      </trkpt>
      <trkpt lat="48.34694" lon="2.74861">
        <ele>101.80000305176</ele>
        <time>2022-03-17T14:59:48Z</time>
      </trkpt>
      <trkpt lat="48.34699" lon="2.74865">
        <ele>102.19999694824</ele>
        <time>2022-03-17T14:59:53Z</time>
      </trkpt>
      <trkpt lat="48.34704" lon="2.74867">
        <ele>102.59999847412</ele>
        <time>2022-03-17T14:59:58Z</time>
      </trkpt>
      <trkpt lat="48.34708" lon="2.7487">
        <ele>103</ele>
        <time>2022-03-17T15:00:03Z</time>
      </trkpt>
      <trkpt lat="48.34712" lon="2.74874">
        <ele>103.19999694824</ele>
        <time>2022-03-17T15:00:08Z</time>
      </trkpt>
      <trkpt lat="48.34717" lon="2.74878">
        <ele>103.40000152588</ele>
        <time>2022-03-17T15:00:13Z</time>
      </trkpt>
      <trkpt lat="48.34721" lon="2.74878">
        <ele>103.59999847412</ele>
        <time>2022-03-17T15:00:18Z</time>
      </trkpt>
      <trkpt lat="48.34726" lon="2.74879">
        <ele>104</ele>
        <time>2022-03-17T15:00:23Z</time>
      </trkpt>
      <trkpt lat="48.3473" lon="2.74881">
        <ele>104.19999694824</ele>
        <time>2022-03-17T15:00:28Z</time>
      </trkpt>
      <trkpt lat="48.34733" lon="2.74882">
        <ele>104.40000152588</ele>
        <time>2022-03-17T15:00:33Z</time>
      </trkpt>
      <trkpt lat="48.34737" lon="2.74884">
        <ele>104.59999847412</ele>
        <time>2022-03-17T15:00:38Z</time>
      </trkpt>
      <trkpt lat="48.34739" lon="2.74885">
        <ele>104.80000305176</ele>
        <time>2022-03-17T15:00:43Z</time>
      </trkpt>
      <trkpt lat="48.34741" lon="2.74888">
        <ele>104.80000305176</ele>
        <time>2022-03-17T15:00:48Z</time>
      </trkpt>
      <trkpt lat="48.34746" lon="2.74892">
        <ele>105.19999694824</ele>
        <time>2022-03-17T15:00:53Z</time>
      </trkpt>
      <trkpt lat="48.3475" lon="2.74896">
        <ele>105.59999847412</ele>
        <time>2022-03-17T15:00:58Z</time>
      </trkpt>
      <trkpt lat="48.34753" lon="2.74901">
        <ele>106.19999694824</ele>
        <time>2022-03-17T15:01:03Z</time>
      </trkpt>
      <trkpt lat="48.34757" lon="2.74903">
        <ele>106.59999847412</ele>
        <time>2022-03-17T15:01:08Z</time>
      </trkpt>
      <trkpt lat="48.3476" lon="2.74905">
        <ele>107.19999694824</ele>
        <time>2022-03-17T15:01:13Z</time>
      </trkpt>
      <trkpt lat="48.34763" lon="2.74905">
        <ele>107.80000305176</ele>
        <time>2022-03-17T15:01:18Z</time>
      </trkpt>
      <trkpt lat="48.34764" lon="2.74905">
        <ele>108.19999694824</ele>
        <time>2022-03-17T15:01:23Z</time>
      </trkpt>
      <trkpt lat="48.3477" lon="2.74904">
        <ele>108.80000305176</ele>
        <time>2022-03-17T15:01:28Z</time>
      </trkpt>
      <trkpt lat="48.34774" lon="2.74905">
        <ele>109.40000152588</ele>
        <time>2022-03-17T15:01:33Z</time>
      </trkpt>
      <trkpt lat="48.3478" lon="2.74907">
        <ele>110.19999694824</ele>
        <time>2022-03-17T15:01:38Z</time>
      </trkpt>
      <trkpt lat="48.34784" lon="2.74906">
        <ele>110.40000152588</ele>
        <time>2022-03-17T15:01:43Z</time>
      </trkpt>
      <trkpt lat="48.34789" lon="2.74905">
        <ele>110.59999847412</ele>
        <time>2022-03-17T15:01:48Z</time>
      </trkpt>
      <trkpt lat="48.34794" lon="2.74907">
        <ele>110.80000305176</ele>
        <time>2022-03-17T15:01:53Z</time>
      </trkpt>
      <trkpt lat="48.34796" lon="2.74906">
        <ele>111</ele>
        <time>2022-03-17T15:01:58Z</time>
      </trkpt>
      <trkpt lat="48.34798" lon="2.74908">
        <ele>111.19999694824</ele>
        <time>2022-03-17T15:02:03Z</time>
      </trkpt>
      <trkpt lat="48.34806" lon="2.74911">
        <ele>111.59999847412</ele>
        <time>2022-03-17T15:02:08Z</time>
      </trkpt>
      <trkpt lat="48.34811" lon="2.74908">
        <ele>112</ele>
        <time>2022-03-17T15:02:13Z</time>
      </trkpt>
      <trkpt lat="48.34817" lon="2.7491">
        <ele>112</ele>
        <time>2022-03-17T15:02:18Z</time>
      </trkpt>
      <trkpt lat="48.34821" lon="2.7491">
        <ele>112</ele>
        <time>2022-03-17T15:02:23Z</time>
      </trkpt>
      <trkpt lat="48.34823" lon="2.7491">
        <ele>112</ele>
        <time>2022-03-17T15:02:28Z</time>
      </trkpt>
      <trkpt lat="48.34828" lon="2.7491">
        <ele>112.19999694824</ele>
        <time>2022-03-17T15:02:33Z</time>
      </trkpt>
      <trkpt lat="48.34833" lon="2.7491">
        <ele>112.40000152588</ele>
        <time>2022-03-17T15:02:38Z</time>
      </trkpt>
      <trkpt lat="48.34839" lon="2.74909">
        <ele>112.40000152588</ele>
        <time>2022-03-17T15:02:43Z</time>
      </trkpt>
      <trkpt lat="48.34843" lon="2.74909">
        <ele>112.19999694824</ele>
        <time>2022-03-17T15:02:48Z</time>
      </trkpt>
      <trkpt lat="48.34847" lon="2.74909">
        <ele>112.40000152588</ele>
        <time>2022-03-17T15:02:53Z</time>
      </trkpt>
      <trkpt lat="48.34852" lon="2.74908">
        <ele>112.59999847412</ele>
        <time>2022-03-17T15:02:58Z</time>
      </trkpt>
      <trkpt lat="48.34857" lon="2.74909">
        <ele>112.80000305176</ele>
        <time>2022-03-17T15:03:03Z</time>
      </trkpt>
      <trkpt lat="48.34859" lon="2.74909">
        <ele>112.59999847412</ele>
        <time>2022-03-17T15:03:08Z</time>
      </trkpt>
      <trkpt lat="48.34864" lon="2.74908">
        <ele>112.59999847412</ele>
        <time>2022-03-17T15:03:13Z</time>
      </trkpt>
      <trkpt lat="48.34872" lon="2.74908">
        <ele>112.59999847412</ele>
        <time>2022-03-17T15:03:18Z</time>
      </trkpt>
      <trkpt lat="48.34879" lon="2.7491">
        <ele>112.59999847412</ele>
        <time>2022-03-17T15:03:23Z</time>
      </trkpt>
      <trkpt lat="48.34885" lon="2.7491">
        <ele>112.59999847412</ele>
        <time>2022-03-17T15:03:28Z</time>
      </trkpt>
      <trkpt lat="48.34886" lon="2.7491">
        <ele>112.59999847412</ele>
        <time>2022-03-17T15:03:33Z</time>
      </trkpt>
      <trkpt lat="48.3489" lon="2.74909">
        <ele>112.40000152588</ele>
        <time>2022-03-17T15:03:38Z</time>
      </trkpt>
      <trkpt lat="48.34894" lon="2.74908">
        <ele>112.40000152588</ele>
        <time>2022-03-17T15:03:43Z</time>
      </trkpt>
      <trkpt lat="48.34901" lon="2.74907">
        <ele>112.40000152588</ele>
        <time>2022-03-17T15:03:48Z</time>
      </trkpt>
      <trkpt lat="48.34905" lon="2.74907">
        <ele>112.40000152588</ele>
        <time>2022-03-17T15:03:53Z</time>
      </trkpt>
      <trkpt lat="48.3491" lon="2.74907">
        <ele>112.40000152588</ele>
        <time>2022-03-17T15:03:58Z</time>
      </trkpt>
      <trkpt lat="48.34913" lon="2.74907">
        <ele>112.40000152588</ele>
        <time>2022-03-17T15:04:03Z</time>
      </trkpt>
      <trkpt lat="48.34914" lon="2.74906">
        <ele>112.40000152588</ele>
        <time>2022-03-17T15:04:08Z</time>
      </trkpt>
      <trkpt lat="48.34917" lon="2.74905">
        <ele>112.40000152588</ele>
        <time>2022-03-17T15:04:13Z</time>
      </trkpt>
      <trkpt lat="48.34925" lon="2.74903">
        <ele>112.40000152588</ele>
        <time>2022-03-17T15:04:18Z</time>
      </trkpt>
      <trkpt lat="48.34932" lon="2.74902">
        <ele>112.40000152588</ele>
        <time>2022-03-17T15:04:23Z</time>
      </trkpt>
      <trkpt lat="48.34937" lon="2.74901">
        <ele>112.40000152588</ele>
        <time>2022-03-17T15:04:28Z</time>
      </trkpt>
      <trkpt lat="48.34943" lon="2.74899">
        <ele>112.40000152588</ele>
        <time>2022-03-17T15:04:33Z</time>
      </trkpt>
      <trkpt lat="48.34948" lon="2.74895">
        <ele>112.40000152588</ele>
        <time>2022-03-17T15:04:38Z</time>
      </trkpt>
      <trkpt lat="48.34954" lon="2.74892">
        <ele>112.40000152588</ele>
        <time>2022-03-17T15:04:43Z</time>
      </trkpt>
      <trkpt lat="48.34959" lon="2.74888">
        <ele>112.40000152588</ele>
        <time>2022-03-17T15:04:48Z</time>
      </trkpt>
      <trkpt lat="48.34962" lon="2.74885">
        <ele>112.40000152588</ele>
        <time>2022-03-17T15:04:53Z</time>
      </trkpt>
      <trkpt lat="48.34967" lon="2.7488">
        <ele>112.40000152588</ele>
        <time>2022-03-17T15:04:58Z</time>
      </trkpt>
      <trkpt lat="48.34971" lon="2.74875">
        <ele>112.40000152588</ele>
        <time>2022-03-17T15:05:03Z</time>
      </trkpt>
      <trkpt lat="48.34974" lon="2.7487">
        <ele>112.40000152588</ele>
        <time>2022-03-17T15:05:08Z</time>
      </trkpt>
      <trkpt lat="48.34977" lon="2.74866">
        <ele>112.40000152588</ele>
        <time>2022-03-17T15:05:13Z</time>
      </trkpt>
      <trkpt lat="48.34981" lon="2.7486">
        <ele>112.40000152588</ele>
        <time>2022-03-17T15:05:18Z</time>
      </trkpt>
      <trkpt lat="48.34984" lon="2.74854">
        <ele>112.40000152588</ele>
        <time>2022-03-17T15:05:23Z</time>
      </trkpt>
      <trkpt lat="48.34988" lon="2.7485">
        <ele>112.40000152588</ele>
        <time>2022-03-17T15:05:28Z</time>
      </trkpt>
      <trkpt lat="48.34989" lon="2.74846">
        <ele>112.40000152588</ele>
        <time>2022-03-17T15:05:33Z</time>
      </trkpt>
      <trkpt lat="48.34995" lon="2.74843">
        <ele>112.40000152588</ele>
        <time>2022-03-17T15:05:38Z</time>
      </trkpt>
      <trkpt lat="48.34996" lon="2.74843">
        <ele>112.40000152588</ele>
        <time>2022-03-17T15:05:43Z</time>
      </trkpt>
      <trkpt lat="48.34997" lon="2.74843">
        <ele>112.40000152588</ele>
        <time>2022-03-17T15:05:48Z</time>
      </trkpt>
      <trkpt lat="48.34997" lon="2.74842">
        <ele>112.40000152588</ele>
        <time>2022-03-17T15:05:53Z</time>
      </trkpt>
      <trkpt lat="48.34997" lon="2.74839">
        <ele>112.40000152588</ele>
        <time>2022-03-17T15:05:58Z</time>
      </trkpt>
      <trkpt lat="48.34996" lon="2.74837">
        <ele>112.40000152588</ele>
        <time>2022-03-17T15:06:03Z</time>
      </trkpt>
      <trkpt lat="48.34996" lon="2.74836">
        <ele>112.40000152588</ele>
        <time>2022-03-17T15:06:08Z</time>
      </trkpt>
      <trkpt lat="48.34996" lon="2.74834">
        <ele>112.40000152588</ele>
        <time>2022-03-17T15:06:13Z</time>
      </trkpt>
      <trkpt lat="48.34996" lon="2.74834">
        <ele>112.40000152588</ele>
        <time>2022-03-17T15:06:18Z</time>
      </trkpt>
      <trkpt lat="48.34996" lon="2.74833">
        <ele>112.40000152588</ele>
        <time>2022-03-17T15:06:23Z</time>
      </trkpt>
      <trkpt lat="48.34996" lon="2.74832">
        <ele>112.40000152588</ele>
        <time>2022-03-17T15:06:28Z</time>
      </trkpt>
      <trkpt lat="48.34996" lon="2.74831">
        <ele>112.40000152588</ele>
        <time>2022-03-17T15:06:33Z</time>
      </trkpt>
      <trkpt lat="48.34995" lon="2.7483">
        <ele>112.40000152588</ele>
        <time>2022-03-17T15:06:38Z</time>
      </trkpt>
      <trkpt lat="48.34995" lon="2.7483">
        <ele>112.40000152588</ele>
        <time>2022-03-17T15:06:43Z</time>
      </trkpt>
      <trkpt lat="48.34995" lon="2.7483">
        <ele>112.40000152588</ele>
        <time>2022-03-17T15:06:48Z</time>
      </trkpt>
      <trkpt lat="48.34995" lon="2.74829">
        <ele>112.40000152588</ele>
        <time>2022-03-17T15:06:53Z</time>
      </trkpt>
      <trkpt lat="48.34997" lon="2.7483">
        <ele>112.40000152588</ele>
        <time>2022-03-17T15:06:58Z</time>
      </trkpt>
      <trkpt lat="48.34999" lon="2.74831">
        <ele>112.40000152588</ele>
        <time>2022-03-17T15:07:03Z</time>
      </trkpt>
      <trkpt lat="48.35" lon="2.7483">
        <ele>112.40000152588</ele>
        <time>2022-03-17T15:07:08Z</time>
      </trkpt>
      <trkpt lat="48.35" lon="2.74828">
        <ele>112.40000152588</ele>
        <time>2022-03-17T15:07:13Z</time>
      </trkpt>
      <trkpt lat="48.35001" lon="2.74827">
        <ele>112.40000152588</ele>
        <time>2022-03-17T15:07:18Z</time>
      </trkpt>
      <trkpt lat="48.35001" lon="2.74825">
        <ele>112.40000152588</ele>
        <time>2022-03-17T15:07:23Z</time>
      </trkpt>
      <trkpt lat="48.35003" lon="2.74822">
        <ele>112.40000152588</ele>
        <time>2022-03-17T15:07:28Z</time>
      </trkpt>
      <trkpt lat="48.35003" lon="2.74823">
        <ele>112.40000152588</ele>
        <time>2022-03-17T15:07:33Z</time>
      </trkpt>
      <trkpt lat="48.35005" lon="2.74823">
        <ele>112.40000152588</ele>
        <time>2022-03-17T15:07:38Z</time>
      </trkpt>
      <trkpt lat="48.35006" lon="2.74823">
        <ele>112.40000152588</ele>
        <time>2022-03-17T15:07:43Z</time>
      </trkpt>
      <trkpt lat="48.35007" lon="2.74823">
        <ele>112.40000152588</ele>
        <time>2022-03-17T15:07:48Z</time>
      </trkpt>
      <trkpt lat="48.35008" lon="2.74824">
        <ele>112.40000152588</ele>
        <time>2022-03-17T15:07:53Z</time>
      </trkpt>
      <trkpt lat="48.3501" lon="2.74826">
        <ele>112.40000152588</ele>
        <time>2022-03-17T15:07:58Z</time>
      </trkpt>
      <trkpt lat="48.3501" lon="2.74827">
        <ele>112.40000152588</ele>
        <time>2022-03-17T15:08:03Z</time>
      </trkpt>
      <trkpt lat="48.35011" lon="2.74828">
        <ele>112.40000152588</ele>
        <time>2022-03-17T15:08:08Z</time>
      </trkpt>
      <trkpt lat="48.35012" lon="2.7483">
        <ele>112.40000152588</ele>
        <time>2022-03-17T15:08:13Z</time>
      </trkpt>
      <trkpt lat="48.35013" lon="2.74831">
        <ele>112.40000152588</ele>
        <time>2022-03-17T15:08:18Z</time>
      </trkpt>
      <trkpt lat="48.35014" lon="2.74833">
        <ele>112.40000152588</ele>
        <time>2022-03-17T15:08:23Z</time>
      </trkpt>
      <trkpt lat="48.35016" lon="2.74834">
        <ele>112.40000152588</ele>
        <time>2022-03-17T15:08:28Z</time>
      </trkpt>
      <trkpt lat="48.35017" lon="2.74834">
        <ele>112.40000152588</ele>
        <time>2022-03-17T15:08:33Z</time>
      </trkpt>
      <trkpt lat="48.35017" lon="2.74832">
        <ele>112.40000152588</ele>
        <time>2022-03-17T15:08:38Z</time>
      </trkpt>
      <trkpt lat="48.35018" lon="2.74824">
        <ele>112.40000152588</ele>
        <time>2022-03-17T15:08:43Z</time>
      </trkpt>
      <trkpt lat="48.35019" lon="2.74819">
        <ele>112.40000152588</ele>
        <time>2022-03-17T15:08:48Z</time>
      </trkpt>
      <trkpt lat="48.35021" lon="2.74815">
        <ele>112.40000152588</ele>
        <time>2022-03-17T15:08:53Z</time>
      </trkpt>
      <trkpt lat="48.35023" lon="2.74809">
        <ele>112.40000152588</ele>
        <time>2022-03-17T15:08:58Z</time>
      </trkpt>
      <trkpt lat="48.35026" lon="2.74804">
        <ele>112.40000152588</ele>
        <time>2022-03-17T15:09:03Z</time>
      </trkpt>
      <trkpt lat="48.35029" lon="2.74799">
        <ele>112.40000152588</ele>
        <time>2022-03-17T15:09:08Z</time>
      </trkpt>
      <trkpt lat="48.35032" lon="2.74795">
        <ele>112.40000152588</ele>
        <time>2022-03-17T15:09:13Z</time>
      </trkpt>
      <trkpt lat="48.35035" lon="2.74794">
        <ele>112.40000152588</ele>
        <time>2022-03-17T15:09:18Z</time>
      </trkpt>
      <trkpt lat="48.35038" lon="2.74792">
        <ele>112.40000152588</ele>
        <time>2022-03-17T15:09:23Z</time>
      </trkpt>
      <trkpt lat="48.35043" lon="2.74791">
        <ele>112.40000152588</ele>
        <time>2022-03-17T15:09:28Z</time>
      </trkpt>
      <trkpt lat="48.35049" lon="2.74789">
        <ele>112.40000152588</ele>
        <time>2022-03-17T15:09:33Z</time>
      </trkpt>
      <trkpt lat="48.35054" lon="2.74786">
        <ele>112.40000152588</ele>
        <time>2022-03-17T15:09:38Z</time>
      </trkpt>
      <trkpt lat="48.3506" lon="2.74785">
        <ele>112.40000152588</ele>
        <time>2022-03-17T15:09:43Z</time>
      </trkpt>
      <trkpt lat="48.35066" lon="2.74784">
        <ele>112.40000152588</ele>
        <time>2022-03-17T15:09:48Z</time>
      </trkpt>
      <trkpt lat="48.35071" lon="2.74783">
        <ele>112.59999847412</ele>
        <time>2022-03-17T15:09:53Z</time>
      </trkpt>
      <trkpt lat="48.35077" lon="2.74783">
        <ele>112.80000305176</ele>
        <time>2022-03-17T15:09:58Z</time>
      </trkpt>
      <trkpt lat="48.35081" lon="2.74785">
        <ele>112.80000305176</ele>
        <time>2022-03-17T15:10:03Z</time>
      </trkpt>
      <trkpt lat="48.35086" lon="2.74788">
        <ele>112.59999847412</ele>
        <time>2022-03-17T15:10:08Z</time>
      </trkpt>
      <trkpt lat="48.3509" lon="2.74793">
        <ele>112.59999847412</ele>
        <time>2022-03-17T15:10:13Z</time>
      </trkpt>
      <trkpt lat="48.35093" lon="2.748">
        <ele>112.40000152588</ele>
        <time>2022-03-17T15:10:18Z</time>
      </trkpt>
      <trkpt lat="48.35096" lon="2.74808">
        <ele>112.19999694824</ele>
        <time>2022-03-17T15:10:23Z</time>
      </trkpt>
      <trkpt lat="48.35099" lon="2.74815">
        <ele>112.19999694824</ele>
        <time>2022-03-17T15:10:28Z</time>
      </trkpt>
      <trkpt lat="48.35102" lon="2.7482">
        <ele>112.19999694824</ele>
        <time>2022-03-17T15:10:33Z</time>
      </trkpt>
      <trkpt lat="48.35106" lon="2.74826">
        <ele>112.19999694824</ele>
        <time>2022-03-17T15:10:38Z</time>
      </trkpt>
      <trkpt lat="48.3511" lon="2.74831">
        <ele>112.40000152588</ele>
        <time>2022-03-17T15:10:43Z</time>
      </trkpt>
      <trkpt lat="48.35114" lon="2.74835">
        <ele>112.40000152588</ele>
        <time>2022-03-17T15:10:48Z</time>
      </trkpt>
      <trkpt lat="48.35118" lon="2.7484">
        <ele>112.40000152588</ele>
        <time>2022-03-17T15:10:53Z</time>
      </trkpt>
      <trkpt lat="48.35122" lon="2.74845">
        <ele>112.59999847412</ele>
        <time>2022-03-17T15:10:58Z</time>
      </trkpt>
      <trkpt lat="48.35124" lon="2.74851">
        <ele>112.80000305176</ele>
        <time>2022-03-17T15:11:03Z</time>
      </trkpt>
      <trkpt lat="48.35127" lon="2.74859">
        <ele>112.80000305176</ele>
        <time>2022-03-17T15:11:08Z</time>
      </trkpt>
      <trkpt lat="48.35129" lon="2.74867">
        <ele>112.59999847412</ele>
        <time>2022-03-17T15:11:13Z</time>
      </trkpt>
      <trkpt lat="48.35132" lon="2.74873">
        <ele>112.80000305176</ele>
        <time>2022-03-17T15:11:18Z</time>
      </trkpt>
      <trkpt lat="48.35135" lon="2.74879">
        <ele>112.80000305176</ele>
        <time>2022-03-17T15:11:23Z</time>
      </trkpt>
      <trkpt lat="48.35137" lon="2.74884">
        <ele>112.80000305176</ele>
        <time>2022-03-17T15:11:28Z</time>
      </trkpt>
      <trkpt lat="48.35139" lon="2.74891">
        <ele>112.80000305176</ele>
        <time>2022-03-17T15:11:33Z</time>
      </trkpt>
      <trkpt lat="48.3514" lon="2.74893">
        <ele>112.80000305176</ele>
        <time>2022-03-17T15:11:38Z</time>
      </trkpt>
      <trkpt lat="48.35141" lon="2.74899">
        <ele>112.80000305176</ele>
        <time>2022-03-17T15:11:43Z</time>
      </trkpt>
      <trkpt lat="48.35144" lon="2.74907">
        <ele>113</ele>
        <time>2022-03-17T15:11:48Z</time>
      </trkpt>
      <trkpt lat="48.35145" lon="2.74916">
        <ele>113</ele>
        <time>2022-03-17T15:11:53Z</time>
      </trkpt>
      <trkpt lat="48.35149" lon="2.74922">
        <ele>113.40000152588</ele>
        <time>2022-03-17T15:11:58Z</time>
      </trkpt>
      <trkpt lat="48.35152" lon="2.74929">
        <ele>114</ele>
        <time>2022-03-17T15:12:03Z</time>
      </trkpt>
      <trkpt lat="48.35154" lon="2.74938">
        <ele>114.40000152588</ele>
        <time>2022-03-17T15:12:08Z</time>
      </trkpt>
      <trkpt lat="48.35156" lon="2.74945">
        <ele>114.59999847412</ele>
        <time>2022-03-17T15:12:13Z</time>
      </trkpt>
      <trkpt lat="48.35161" lon="2.7495">
        <ele>114.80000305176</ele>
        <time>2022-03-17T15:12:18Z</time>
      </trkpt>
      <trkpt lat="48.35166" lon="2.74955">
        <ele>115</ele>
        <time>2022-03-17T15:12:23Z</time>
      </trkpt>
      <trkpt lat="48.35169" lon="2.74959">
        <ele>115.40000152588</ele>
        <time>2022-03-17T15:12:28Z</time>
      </trkpt>
      <trkpt lat="48.35174" lon="2.74964">
        <ele>115.80000305176</ele>
        <time>2022-03-17T15:12:33Z</time>
      </trkpt>
      <trkpt lat="48.35179" lon="2.7497">
        <ele>116.19999694824</ele>
        <time>2022-03-17T15:12:38Z</time>
      </trkpt>
      <trkpt lat="48.35184" lon="2.74973">
        <ele>116.19999694824</ele>
        <time>2022-03-17T15:12:43Z</time>
      </trkpt>
      <trkpt lat="48.35187" lon="2.74977">
        <ele>116.59999847412</ele>
        <time>2022-03-17T15:12:48Z</time>
      </trkpt>
      <trkpt lat="48.35189" lon="2.74983">
        <ele>116.80000305176</ele>
        <time>2022-03-17T15:12:53Z</time>
      </trkpt>
      <trkpt lat="48.35189" lon="2.74988">
        <ele>117</ele>
        <time>2022-03-17T15:12:58Z</time>
      </trkpt>
      <trkpt lat="48.3519" lon="2.74989">
        <ele>117</ele>
        <time>2022-03-17T15:13:03Z</time>
      </trkpt>
      <trkpt lat="48.3519" lon="2.74991">
        <ele>117.19999694824</ele>
        <time>2022-03-17T15:13:08Z</time>
      </trkpt>
      <trkpt lat="48.35189" lon="2.74998">
        <ele>117.19999694824</ele>
        <time>2022-03-17T15:13:13Z</time>
      </trkpt>
      <trkpt lat="48.35186" lon="2.75007">
        <ele>117.40000152588</ele>
        <time>2022-03-17T15:13:18Z</time>
      </trkpt>
      <trkpt lat="48.35184" lon="2.75014">
        <ele>117.80000305176</ele>
        <time>2022-03-17T15:13:23Z</time>
      </trkpt>
      <trkpt lat="48.35184" lon="2.75023">
        <ele>118.19999694824</ele>
        <time>2022-03-17T15:13:28Z</time>
      </trkpt>
      <trkpt lat="48.35185" lon="2.75028">
        <ele>118.40000152588</ele>
        <time>2022-03-17T15:13:33Z</time>
      </trkpt>
      <trkpt lat="48.35185" lon="2.75032">
        <ele>118.59999847412</ele>
        <time>2022-03-17T15:13:38Z</time>
      </trkpt>
      <trkpt lat="48.35186" lon="2.75035">
        <ele>118.59999847412</ele>
        <time>2022-03-17T15:13:43Z</time>
      </trkpt>
      <trkpt lat="48.35187" lon="2.75039">
        <ele>118.59999847412</ele>
        <time>2022-03-17T15:13:48Z</time>
      </trkpt>
      <trkpt lat="48.35187" lon="2.75043">
        <ele>118.59999847412</ele>
        <time>2022-03-17T15:13:53Z</time>
      </trkpt>
      <trkpt lat="48.35187" lon="2.75045">
        <ele>118.59999847412</ele>
        <time>2022-03-17T15:13:58Z</time>
      </trkpt>
      <trkpt lat="48.35186" lon="2.75049">
        <ele>118.40000152588</ele>
        <time>2022-03-17T15:14:03Z</time>
      </trkpt>
      <trkpt lat="48.35186" lon="2.75052">
        <ele>118.59999847412</ele>
        <time>2022-03-17T15:14:08Z</time>
      </trkpt>
      <trkpt lat="48.35186" lon="2.75054">
        <ele>118.40000152588</ele>
        <time>2022-03-17T15:14:13Z</time>
      </trkpt>
      <trkpt lat="48.35187" lon="2.75059">
        <ele>118.40000152588</ele>
        <time>2022-03-17T15:14:18Z</time>
      </trkpt>
      <trkpt lat="48.35186" lon="2.75069">
        <ele>118.59999847412</ele>
        <time>2022-03-17T15:14:23Z</time>
      </trkpt>
      <trkpt lat="48.35185" lon="2.75078">
        <ele>118.80000305176</ele>
        <time>2022-03-17T15:14:28Z</time>
      </trkpt>
      <trkpt lat="48.35184" lon="2.75085">
        <ele>119.40000152588</ele>
        <time>2022-03-17T15:14:33Z</time>
      </trkpt>
      <trkpt lat="48.35184" lon="2.75093">
        <ele>120</ele>
        <time>2022-03-17T15:14:38Z</time>
      </trkpt>
      <trkpt lat="48.35185" lon="2.75101">
        <ele>120.40000152588</ele>
        <time>2022-03-17T15:14:43Z</time>
      </trkpt>
      <trkpt lat="48.35186" lon="2.75107">
        <ele>121</ele>
        <time>2022-03-17T15:14:48Z</time>
      </trkpt>
      <trkpt lat="48.35186" lon="2.75109">
        <ele>121.59999847412</ele>
        <time>2022-03-17T15:14:53Z</time>
      </trkpt>
      <trkpt lat="48.35188" lon="2.75112">
        <ele>122.59999847412</ele>
        <time>2022-03-17T15:14:58Z</time>
      </trkpt>
      <trkpt lat="48.35188" lon="2.75116">
        <ele>122.59999847412</ele>
        <time>2022-03-17T15:15:03Z</time>
      </trkpt>
      <trkpt lat="48.35188" lon="2.75124">
        <ele>123.40000152588</ele>
        <time>2022-03-17T15:15:08Z</time>
      </trkpt>
      <trkpt lat="48.3519" lon="2.75131">
        <ele>124</ele>
        <time>2022-03-17T15:15:13Z</time>
      </trkpt>
      <trkpt lat="48.35192" lon="2.75135">
        <ele>124.80000305176</ele>
        <time>2022-03-17T15:15:18Z</time>
      </trkpt>
      <trkpt lat="48.35192" lon="2.75136">
        <ele>125</ele>
        <time>2022-03-17T15:15:23Z</time>
      </trkpt>
      <trkpt lat="48.3519" lon="2.75138">
        <ele>125.19999694824</ele>
        <time>2022-03-17T15:15:28Z</time>
      </trkpt>
      <trkpt lat="48.35187" lon="2.75142">
        <ele>125.80000305176</ele>
        <time>2022-03-17T15:15:33Z</time>
      </trkpt>
      <trkpt lat="48.35186" lon="2.75146">
        <ele>126.80000305176</ele>
        <time>2022-03-17T15:15:38Z</time>
      </trkpt>
      <trkpt lat="48.35185" lon="2.75149">
        <ele>127.59999847412</ele>
        <time>2022-03-17T15:15:43Z</time>
      </trkpt>
      <trkpt lat="48.35184" lon="2.75154">
        <ele>128.39999389648</ele>
        <time>2022-03-17T15:15:48Z</time>
      </trkpt>
      <trkpt lat="48.35184" lon="2.75157">
        <ele>129.19999694824</ele>
        <time>2022-03-17T15:15:53Z</time>
      </trkpt>
      <trkpt lat="48.35183" lon="2.75161">
        <ele>129.80000305176</ele>
        <time>2022-03-17T15:15:58Z</time>
      </trkpt>
      <trkpt lat="48.35182" lon="2.75169">
        <ele>130</ele>
        <time>2022-03-17T15:16:03Z</time>
      </trkpt>
      <trkpt lat="48.35181" lon="2.75175">
        <ele>129.80000305176</ele>
        <time>2022-03-17T15:16:08Z</time>
      </trkpt>
      <trkpt lat="48.35181" lon="2.75181">
        <ele>129.80000305176</ele>
        <time>2022-03-17T15:16:13Z</time>
      </trkpt>
      <trkpt lat="48.35182" lon="2.75188">
        <ele>130</ele>
        <time>2022-03-17T15:16:18Z</time>
      </trkpt>
      <trkpt lat="48.35183" lon="2.75194">
        <ele>130.19999694824</ele>
        <time>2022-03-17T15:16:23Z</time>
      </trkpt>
      <trkpt lat="48.35184" lon="2.752">
        <ele>130.60000610352</ele>
        <time>2022-03-17T15:16:28Z</time>
      </trkpt>
      <trkpt lat="48.35182" lon="2.75205">
        <ele>131.39999389648</ele>
        <time>2022-03-17T15:16:33Z</time>
      </trkpt>
      <trkpt lat="48.3518" lon="2.75211">
        <ele>132.19999694824</ele>
        <time>2022-03-17T15:16:38Z</time>
      </trkpt>
      <trkpt lat="48.35177" lon="2.75216">
        <ele>132.80000305176</ele>
        <time>2022-03-17T15:16:43Z</time>
      </trkpt>
      <trkpt lat="48.35177" lon="2.7522">
        <ele>133.60000610352</ele>
        <time>2022-03-17T15:16:48Z</time>
      </trkpt>
      <trkpt lat="48.35177" lon="2.75223">
        <ele>134.39999389648</ele>
        <time>2022-03-17T15:16:53Z</time>
      </trkpt>
      <trkpt lat="48.35173" lon="2.75227">
        <ele>134.60000610352</ele>
        <time>2022-03-17T15:16:58Z</time>
      </trkpt>
      <trkpt lat="48.35171" lon="2.75232">
        <ele>134.19999694824</ele>
        <time>2022-03-17T15:17:03Z</time>
      </trkpt>
      <trkpt lat="48.3517" lon="2.75235">
        <ele>134</ele>
        <time>2022-03-17T15:17:08Z</time>
      </trkpt>
      <trkpt lat="48.3517" lon="2.75237">
        <ele>134</ele>
        <time>2022-03-17T15:17:13Z</time>
      </trkpt>
      <trkpt lat="48.35168" lon="2.75239">
        <ele>134.39999389648</ele>
        <time>2022-03-17T15:17:18Z</time>
      </trkpt>
      <trkpt lat="48.35167" lon="2.75242">
        <ele>134.80000305176</ele>
        <time>2022-03-17T15:17:23Z</time>
      </trkpt>
      <trkpt lat="48.35166" lon="2.75244">
        <ele>134.80000305176</ele>
        <time>2022-03-17T15:17:28Z</time>
      </trkpt>
      <trkpt lat="48.35166" lon="2.75249">
        <ele>134.80000305176</ele>
        <time>2022-03-17T15:17:33Z</time>
      </trkpt>
      <trkpt lat="48.35166" lon="2.75251">
        <ele>134.80000305176</ele>
        <time>2022-03-17T15:17:38Z</time>
      </trkpt>
      <trkpt lat="48.35167" lon="2.75254">
        <ele>135</ele>
        <time>2022-03-17T15:17:43Z</time>
      </trkpt>
      <trkpt lat="48.35165" lon="2.75262">
        <ele>135</ele>
        <time>2022-03-17T15:17:48Z</time>
      </trkpt>
      <trkpt lat="48.35161" lon="2.75264">
        <ele>135.39999389648</ele>
        <time>2022-03-17T15:17:53Z</time>
      </trkpt>
      <trkpt lat="48.35157" lon="2.75269">
        <ele>135.19999694824</ele>
        <time>2022-03-17T15:17:58Z</time>
      </trkpt>
      <trkpt lat="48.35155" lon="2.75273">
        <ele>135.19999694824</ele>
        <time>2022-03-17T15:18:03Z</time>
      </trkpt>
      <trkpt lat="48.35154" lon="2.75275">
        <ele>135</ele>
        <time>2022-03-17T15:18:08Z</time>
      </trkpt>
      <trkpt lat="48.35153" lon="2.75277">
        <ele>135</ele>
        <time>2022-03-17T15:18:13Z</time>
      </trkpt>
      <trkpt lat="48.35152" lon="2.75281">
        <ele>134.60000610352</ele>
        <time>2022-03-17T15:18:18Z</time>
      </trkpt>
      <trkpt lat="48.35148" lon="2.75297">
        <ele>134.39999389648</ele>
        <time>2022-03-17T15:18:23Z</time>
      </trkpt>
      <trkpt lat="48.35148" lon="2.75304">
        <ele>134.19999694824</ele>
        <time>2022-03-17T15:18:28Z</time>
      </trkpt>
      <trkpt lat="48.35148" lon="2.75307">
        <ele>134.19999694824</ele>
        <time>2022-03-17T15:18:33Z</time>
      </trkpt>
      <trkpt lat="48.3515" lon="2.75314">
        <ele>134.39999389648</ele>
        <time>2022-03-17T15:18:38Z</time>
      </trkpt>
      <trkpt lat="48.35151" lon="2.75322">
        <ele>134.19999694824</ele>
        <time>2022-03-17T15:18:43Z</time>
      </trkpt>
      <trkpt lat="48.35154" lon="2.75327">
        <ele>134.19999694824</ele>
        <time>2022-03-17T15:18:48Z</time>
      </trkpt>
      <trkpt lat="48.35156" lon="2.75331">
        <ele>134.19999694824</ele>
        <time>2022-03-17T15:18:53Z</time>
      </trkpt>
      <trkpt lat="48.35159" lon="2.75334">
        <ele>134.80000305176</ele>
        <time>2022-03-17T15:18:58Z</time>
      </trkpt>
      <trkpt lat="48.3516" lon="2.75338">
        <ele>134.80000305176</ele>
        <time>2022-03-17T15:19:03Z</time>
      </trkpt>
      <trkpt lat="48.3516" lon="2.7534">
        <ele>134.60000610352</ele>
        <time>2022-03-17T15:19:08Z</time>
      </trkpt>
      <trkpt lat="48.35161" lon="2.75347">
        <ele>134.60000610352</ele>
        <time>2022-03-17T15:19:13Z</time>
      </trkpt>
      <trkpt lat="48.35163" lon="2.75353">
        <ele>134.60000610352</ele>
        <time>2022-03-17T15:19:18Z</time>
      </trkpt>
      <trkpt lat="48.35163" lon="2.75356">
        <ele>134.60000610352</ele>
        <time>2022-03-17T15:19:23Z</time>
      </trkpt>
      <trkpt lat="48.3516" lon="2.75361">
        <ele>134.60000610352</ele>
        <time>2022-03-17T15:19:28Z</time>
      </trkpt>
      <trkpt lat="48.35159" lon="2.75363">
        <ele>134.60000610352</ele>
        <time>2022-03-17T15:19:33Z</time>
      </trkpt>
      <trkpt lat="48.35159" lon="2.75367">
        <ele>134.60000610352</ele>
        <time>2022-03-17T15:19:38Z</time>
      </trkpt>
      <trkpt lat="48.35158" lon="2.75378">
        <ele>134.60000610352</ele>
        <time>2022-03-17T15:19:43Z</time>
      </trkpt>
      <trkpt lat="48.35159" lon="2.75385">
        <ele>134.60000610352</ele>
        <time>2022-03-17T15:19:48Z</time>
      </trkpt>
      <trkpt lat="48.35161" lon="2.75388">
        <ele>134.60000610352</ele>
        <time>2022-03-17T15:19:53Z</time>
      </trkpt>
      <trkpt lat="48.3516" lon="2.75389">
        <ele>134.60000610352</ele>
        <time>2022-03-17T15:19:58Z</time>
      </trkpt>
      <trkpt lat="48.3516" lon="2.75391">
        <ele>134.60000610352</ele>
        <time>2022-03-17T15:20:03Z</time>
      </trkpt>
      <trkpt lat="48.35158" lon="2.75396">
        <ele>134.60000610352</ele>
        <time>2022-03-17T15:20:08Z</time>
      </trkpt>
      <trkpt lat="48.35157" lon="2.75403">
        <ele>134.60000610352</ele>
        <time>2022-03-17T15:20:13Z</time>
      </trkpt>
      <trkpt lat="48.35157" lon="2.75406">
        <ele>134.60000610352</ele>
        <time>2022-03-17T15:20:18Z</time>
      </trkpt>
      <trkpt lat="48.35157" lon="2.75416">
        <ele>134.60000610352</ele>
        <time>2022-03-17T15:20:23Z</time>
      </trkpt>
      <trkpt lat="48.35157" lon="2.75425">
        <ele>134.60000610352</ele>
        <time>2022-03-17T15:20:28Z</time>
      </trkpt>
      <trkpt lat="48.35157" lon="2.75432">
        <ele>134.60000610352</ele>
        <time>2022-03-17T15:20:33Z</time>
      </trkpt>
      <trkpt lat="48.35158" lon="2.75437">
        <ele>134.60000610352</ele>
        <time>2022-03-17T15:20:38Z</time>
      </trkpt>
      <trkpt lat="48.35157" lon="2.7544">
        <ele>134.60000610352</ele>
        <time>2022-03-17T15:20:43Z</time>
      </trkpt>
      <trkpt lat="48.35154" lon="2.75443">
        <ele>134.60000610352</ele>
        <time>2022-03-17T15:20:48Z</time>
      </trkpt>
      <trkpt lat="48.35152" lon="2.75442">
        <ele>134.60000610352</ele>
        <time>2022-03-17T15:20:53Z</time>
      </trkpt>
      <trkpt lat="48.35149" lon="2.75441">
        <ele>134.60000610352</ele>
        <time>2022-03-17T15:20:58Z</time>
      </trkpt>
      <trkpt lat="48.35146" lon="2.75444">
        <ele>134.60000610352</ele>
        <time>2022-03-17T15:21:03Z</time>
      </trkpt>
      <trkpt lat="48.35145" lon="2.75447">
        <ele>134.60000610352</ele>
        <time>2022-03-17T15:21:08Z</time>
      </trkpt>
      <trkpt lat="48.35142" lon="2.75459">
        <ele>134.60000610352</ele>
        <time>2022-03-17T15:21:13Z</time>
      </trkpt>
      <trkpt lat="48.3514" lon="2.75461">
        <ele>134.60000610352</ele>
        <time>2022-03-17T15:21:18Z</time>
      </trkpt>
      <trkpt lat="48.3514" lon="2.75464">
        <ele>134.60000610352</ele>
        <time>2022-03-17T15:21:23Z</time>
      </trkpt>
      <trkpt lat="48.35139" lon="2.75468">
        <ele>134.60000610352</ele>
        <time>2022-03-17T15:21:28Z</time>
      </trkpt>
      <trkpt lat="48.35137" lon="2.75471">
        <ele>134.60000610352</ele>
        <time>2022-03-17T15:21:33Z</time>
      </trkpt>
      <trkpt lat="48.35134" lon="2.75477">
        <ele>134.60000610352</ele>
        <time>2022-03-17T15:21:38Z</time>
      </trkpt>
      <trkpt lat="48.35133" lon="2.75492">
        <ele>134.60000610352</ele>
        <time>2022-03-17T15:21:43Z</time>
      </trkpt>
      <trkpt lat="48.35132" lon="2.75501">
        <ele>134.60000610352</ele>
        <time>2022-03-17T15:21:48Z</time>
      </trkpt>
      <trkpt lat="48.35131" lon="2.75509">
        <ele>134.60000610352</ele>
        <time>2022-03-17T15:21:53Z</time>
      </trkpt>
      <trkpt lat="48.35132" lon="2.75515">
        <ele>134.60000610352</ele>
        <time>2022-03-17T15:21:58Z</time>
      </trkpt>
      <trkpt lat="48.35134" lon="2.75522">
        <ele>134.60000610352</ele>
        <time>2022-03-17T15:22:03Z</time>
      </trkpt>
      <trkpt lat="48.35136" lon="2.75527">
        <ele>132.19999694824</ele>
        <time>2022-03-17T15:22:08Z</time>
      </trkpt>
      <trkpt lat="48.3514" lon="2.7553">
        <ele>131.60000610352</ele>
        <time>2022-03-17T15:22:13Z</time>
      </trkpt>
      <trkpt lat="48.35139" lon="2.75531">
        <ele>131.39999389648</ele>
        <time>2022-03-17T15:22:18Z</time>
      </trkpt>
      <trkpt lat="48.35139" lon="2.75533">
        <ele>131</ele>
        <time>2022-03-17T15:22:23Z</time>
      </trkpt>
      <trkpt lat="48.35138" lon="2.75537">
        <ele>130.60000610352</ele>
        <time>2022-03-17T15:22:28Z</time>
      </trkpt>
      <trkpt lat="48.35138" lon="2.7554">
        <ele>129.60000610352</ele>
        <time>2022-03-17T15:22:33Z</time>
      </trkpt>
      <trkpt lat="48.35137" lon="2.75549">
        <ele>128.39999389648</ele>
        <time>2022-03-17T15:22:38Z</time>
      </trkpt>
      <trkpt lat="48.35137" lon="2.75563">
        <ele>128</ele>
        <time>2022-03-17T15:22:43Z</time>
      </trkpt>
      <trkpt lat="48.35139" lon="2.75567">
        <ele>128</ele>
        <time>2022-03-17T15:22:48Z</time>
      </trkpt>
      <trkpt lat="48.35143" lon="2.75568">
        <ele>128.39999389648</ele>
        <time>2022-03-17T15:22:53Z</time>
      </trkpt>
      <trkpt lat="48.35146" lon="2.7557">
        <ele>128.39999389648</ele>
        <time>2022-03-17T15:22:58Z</time>
      </trkpt>
      <trkpt lat="48.35147" lon="2.75571">
        <ele>128.19999694824</ele>
        <time>2022-03-17T15:23:03Z</time>
      </trkpt>
      <trkpt lat="48.35147" lon="2.75572">
        <ele>128.19999694824</ele>
        <time>2022-03-17T15:23:08Z</time>
      </trkpt>
      <trkpt lat="48.35148" lon="2.75575">
        <ele>128</ele>
        <time>2022-03-17T15:23:13Z</time>
      </trkpt>
      <trkpt lat="48.3515" lon="2.75579">
        <ele>127.80000305176</ele>
        <time>2022-03-17T15:23:18Z</time>
      </trkpt>
      <trkpt lat="48.35152" lon="2.75584">
        <ele>127.19999694824</ele>
        <time>2022-03-17T15:23:23Z</time>
      </trkpt>
      <trkpt lat="48.35153" lon="2.75586">
        <ele>126.80000305176</ele>
        <time>2022-03-17T15:23:28Z</time>
      </trkpt>
      <trkpt lat="48.35153" lon="2.75588">
        <ele>126.40000152588</ele>
        <time>2022-03-17T15:23:33Z</time>
      </trkpt>
      <trkpt lat="48.35154" lon="2.75595">
        <ele>125.80000305176</ele>
        <time>2022-03-17T15:23:38Z</time>
      </trkpt>
      <trkpt lat="48.35154" lon="2.75601">
        <ele>125.59999847412</ele>
        <time>2022-03-17T15:23:43Z</time>
      </trkpt>
      <trkpt lat="48.35154" lon="2.75605">
        <ele>125.59999847412</ele>
        <time>2022-03-17T15:23:48Z</time>
      </trkpt>
      <trkpt lat="48.35155" lon="2.75607">
        <ele>125.40000152588</ele>
        <time>2022-03-17T15:23:53Z</time>
      </trkpt>
      <trkpt lat="48.35156" lon="2.75608">
        <ele>125.40000152588</ele>
        <time>2022-03-17T15:23:58Z</time>
      </trkpt>
      <trkpt lat="48.35156" lon="2.75608">
        <ele>125.40000152588</ele>
        <time>2022-03-17T15:24:03Z</time>
      </trkpt>
      <trkpt lat="48.35157" lon="2.75608">
        <ele>125.40000152588</ele>
        <time>2022-03-17T15:24:08Z</time>
      </trkpt>
      <trkpt lat="48.35157" lon="2.7561">
        <ele>125.40000152588</ele>
        <time>2022-03-17T15:24:13Z</time>
      </trkpt>
      <trkpt lat="48.35157" lon="2.75611">
        <ele>125.40000152588</ele>
        <time>2022-03-17T15:24:18Z</time>
      </trkpt>
      <trkpt lat="48.35155" lon="2.75613">
        <ele>125.19999694824</ele>
        <time>2022-03-17T15:24:23Z</time>
      </trkpt>
      <trkpt lat="48.35154" lon="2.75614">
        <ele>125.19999694824</ele>
        <time>2022-03-17T15:24:28Z</time>
      </trkpt>
      <trkpt lat="48.35154" lon="2.75615">
        <ele>125.40000152588</ele>
        <time>2022-03-17T15:24:33Z</time>
      </trkpt>
      <trkpt lat="48.35154" lon="2.75615">
        <ele>125.40000152588</ele>
        <time>2022-03-17T15:24:38Z</time>
      </trkpt>
      <trkpt lat="48.35155" lon="2.75615">
        <ele>125.40000152588</ele>
        <time>2022-03-17T15:24:43Z</time>
      </trkpt>
      <trkpt lat="48.35155" lon="2.75615">
        <ele>125.40000152588</ele>
        <time>2022-03-17T15:24:48Z</time>
      </trkpt>
      <trkpt lat="48.35156" lon="2.75617">
        <ele>125.19999694824</ele>
        <time>2022-03-17T15:24:53Z</time>
      </trkpt>
      <trkpt lat="48.35156" lon="2.7562">
        <ele>125.19999694824</ele>
        <time>2022-03-17T15:24:58Z</time>
      </trkpt>
      <trkpt lat="48.35155" lon="2.7562">
        <ele>125.19999694824</ele>
        <time>2022-03-17T15:25:03Z</time>
      </trkpt>
      <trkpt lat="48.35154" lon="2.75619">
        <ele>125.19999694824</ele>
        <time>2022-03-17T15:25:08Z</time>
      </trkpt>
      <trkpt lat="48.35154" lon="2.75619">
        <ele>125.40000152588</ele>
        <time>2022-03-17T15:25:13Z</time>
      </trkpt>
      <trkpt lat="48.35154" lon="2.75619">
        <ele>125.40000152588</ele>
        <time>2022-03-17T15:25:18Z</time>
      </trkpt>
      <trkpt lat="48.35155" lon="2.7562">
        <ele>125.40000152588</ele>
        <time>2022-03-17T15:25:23Z</time>
      </trkpt>
      <trkpt lat="48.35153" lon="2.75622">
        <ele>125.40000152588</ele>
        <time>2022-03-17T15:25:28Z</time>
      </trkpt>
      <trkpt lat="48.35151" lon="2.75623">
        <ele>125.40000152588</ele>
        <time>2022-03-17T15:25:33Z</time>
      </trkpt>
      <trkpt lat="48.35149" lon="2.75621">
        <ele>125.40000152588</ele>
        <time>2022-03-17T15:25:38Z</time>
      </trkpt>
      <trkpt lat="48.35149" lon="2.75621">
        <ele>125.40000152588</ele>
        <time>2022-03-17T15:25:43Z</time>
      </trkpt>
      <trkpt lat="48.35149" lon="2.7562">
        <ele>125.40000152588</ele>
        <time>2022-03-17T15:25:48Z</time>
      </trkpt>
      <trkpt lat="48.35149" lon="2.75621">
        <ele>125.40000152588</ele>
        <time>2022-03-17T15:25:53Z</time>
      </trkpt>
      <trkpt lat="48.35149" lon="2.75622">
        <ele>125.40000152588</ele>
        <time>2022-03-17T15:25:58Z</time>
      </trkpt>
      <trkpt lat="48.35147" lon="2.75623">
        <ele>125.40000152588</ele>
        <time>2022-03-17T15:26:03Z</time>
      </trkpt>
      <trkpt lat="48.35146" lon="2.75624">
        <ele>125.40000152588</ele>
        <time>2022-03-17T15:26:08Z</time>
      </trkpt>
      <trkpt lat="48.35145" lon="2.75625">
        <ele>125.40000152588</ele>
        <time>2022-03-17T15:26:13Z</time>
      </trkpt>
      <trkpt lat="48.35143" lon="2.75627">
        <ele>125.40000152588</ele>
        <time>2022-03-17T15:26:18Z</time>
      </trkpt>
      <trkpt lat="48.35141" lon="2.7563">
        <ele>125.40000152588</ele>
        <time>2022-03-17T15:26:23Z</time>
      </trkpt>
      <trkpt lat="48.35139" lon="2.75633">
        <ele>125.40000152588</ele>
        <time>2022-03-17T15:26:28Z</time>
      </trkpt>
      <trkpt lat="48.35137" lon="2.75635">
        <ele>125.40000152588</ele>
        <time>2022-03-17T15:26:33Z</time>
      </trkpt>
      <trkpt lat="48.35137" lon="2.75636">
        <ele>125.40000152588</ele>
        <time>2022-03-17T15:26:38Z</time>
      </trkpt>
      <trkpt lat="48.35137" lon="2.75636">
        <ele>125.40000152588</ele>
        <time>2022-03-17T15:26:43Z</time>
      </trkpt>
      <trkpt lat="48.35137" lon="2.75636">
        <ele>125.40000152588</ele>
        <time>2022-03-17T15:26:48Z</time>
      </trkpt>
      <trkpt lat="48.35139" lon="2.75636">
        <ele>125.40000152588</ele>
        <time>2022-03-17T15:26:53Z</time>
      </trkpt>
      <trkpt lat="48.35141" lon="2.75634">
        <ele>125.40000152588</ele>
        <time>2022-03-17T15:26:58Z</time>
      </trkpt>
      <trkpt lat="48.35142" lon="2.75633">
        <ele>125.40000152588</ele>
        <time>2022-03-17T15:27:03Z</time>
      </trkpt>
      <trkpt lat="48.35143" lon="2.75631">
        <ele>125.40000152588</ele>
        <time>2022-03-17T15:27:08Z</time>
      </trkpt>
      <trkpt lat="48.35144" lon="2.75632">
        <ele>125.40000152588</ele>
        <time>2022-03-17T15:27:13Z</time>
      </trkpt>
      <trkpt lat="48.35144" lon="2.75632">
        <ele>125.40000152588</ele>
        <time>2022-03-17T15:27:18Z</time>
      </trkpt>
      <trkpt lat="48.35143" lon="2.75633">
        <ele>125.40000152588</ele>
        <time>2022-03-17T15:27:23Z</time>
      </trkpt>
      <trkpt lat="48.35145" lon="2.75632">
        <ele>125.40000152588</ele>
        <time>2022-03-17T15:27:28Z</time>
      </trkpt>
      <trkpt lat="48.35145" lon="2.75633">
        <ele>125.40000152588</ele>
        <time>2022-03-17T15:27:33Z</time>
      </trkpt>
      <trkpt lat="48.35146" lon="2.75633">
        <ele>125.40000152588</ele>
        <time>2022-03-17T15:27:38Z</time>
      </trkpt>
      <trkpt lat="48.35147" lon="2.75633">
        <ele>125.40000152588</ele>
        <time>2022-03-17T15:27:43Z</time>
      </trkpt>
      <trkpt lat="48.35148" lon="2.75634">
        <ele>125.40000152588</ele>
        <time>2022-03-17T15:27:48Z</time>
      </trkpt>
      <trkpt lat="48.35149" lon="2.75635">
        <ele>125.40000152588</ele>
        <time>2022-03-17T15:27:53Z</time>
      </trkpt>
      <trkpt lat="48.3515" lon="2.75636">
        <ele>125.40000152588</ele>
        <time>2022-03-17T15:27:58Z</time>
      </trkpt>
      <trkpt lat="48.35151" lon="2.75635">
        <ele>125.40000152588</ele>
        <time>2022-03-17T15:28:03Z</time>
      </trkpt>
      <trkpt lat="48.35151" lon="2.75635">
        <ele>125.40000152588</ele>
        <time>2022-03-17T15:28:08Z</time>
      </trkpt>
      <trkpt lat="48.35151" lon="2.75634">
        <ele>125.40000152588</ele>
        <time>2022-03-17T15:28:13Z</time>
      </trkpt>
      <trkpt lat="48.3515" lon="2.75632">
        <ele>125.40000152588</ele>
        <time>2022-03-17T15:28:18Z</time>
      </trkpt>
      <trkpt lat="48.35149" lon="2.75631">
        <ele>125.40000152588</ele>
        <time>2022-03-17T15:28:23Z</time>
      </trkpt>
      <trkpt lat="48.35148" lon="2.75631">
        <ele>125.40000152588</ele>
        <time>2022-03-17T15:28:28Z</time>
      </trkpt>
      <trkpt lat="48.35148" lon="2.75631">
        <ele>125.40000152588</ele>
        <time>2022-03-17T15:28:33Z</time>
      </trkpt>
      <trkpt lat="48.35148" lon="2.75632">
        <ele>125.40000152588</ele>
        <time>2022-03-17T15:28:38Z</time>
      </trkpt>
      <trkpt lat="48.35147" lon="2.75633">
        <ele>125.40000152588</ele>
        <time>2022-03-17T15:28:43Z</time>
      </trkpt>
      <trkpt lat="48.35148" lon="2.75633">
        <ele>125.40000152588</ele>
        <time>2022-03-17T15:28:48Z</time>
      </trkpt>
      <trkpt lat="48.35148" lon="2.75634">
        <ele>125.40000152588</ele>
        <time>2022-03-17T15:28:53Z</time>
      </trkpt>
      <trkpt lat="48.35148" lon="2.75636">
        <ele>125.40000152588</ele>
        <time>2022-03-17T15:28:58Z</time>
      </trkpt>
      <trkpt lat="48.35146" lon="2.75641">
        <ele>125.40000152588</ele>
        <time>2022-03-17T15:29:03Z</time>
      </trkpt>
      <trkpt lat="48.35145" lon="2.75646">
        <ele>125.40000152588</ele>
        <time>2022-03-17T15:29:08Z</time>
      </trkpt>
      <trkpt lat="48.35143" lon="2.75651">
        <ele>125.40000152588</ele>
        <time>2022-03-17T15:29:13Z</time>
      </trkpt>
      <trkpt lat="48.35143" lon="2.75656">
        <ele>128.60000610352</ele>
        <time>2022-03-17T15:29:18Z</time>
      </trkpt>
      <trkpt lat="48.35143" lon="2.75659">
        <ele>129.19999694824</ele>
        <time>2022-03-17T15:29:23Z</time>
      </trkpt>
      <trkpt lat="48.35142" lon="2.75665">
        <ele>129.60000610352</ele>
        <time>2022-03-17T15:29:28Z</time>
      </trkpt>
      <trkpt lat="48.3514" lon="2.75673">
        <ele>130.39999389648</ele>
        <time>2022-03-17T15:29:33Z</time>
      </trkpt>
      <trkpt lat="48.35139" lon="2.75682">
        <ele>130.60000610352</ele>
        <time>2022-03-17T15:29:38Z</time>
      </trkpt>
      <trkpt lat="48.35138" lon="2.7569">
        <ele>130.80000305176</ele>
        <time>2022-03-17T15:29:43Z</time>
      </trkpt>
      <trkpt lat="48.35137" lon="2.75698">
        <ele>130.60000610352</ele>
        <time>2022-03-17T15:29:48Z</time>
      </trkpt>
      <trkpt lat="48.35138" lon="2.75704">
        <ele>130.39999389648</ele>
        <time>2022-03-17T15:29:53Z</time>
      </trkpt>
      <trkpt lat="48.35138" lon="2.75712">
        <ele>130.39999389648</ele>
        <time>2022-03-17T15:29:58Z</time>
      </trkpt>
      <trkpt lat="48.35136" lon="2.75718">
        <ele>130.60000610352</ele>
        <time>2022-03-17T15:30:03Z</time>
      </trkpt>
      <trkpt lat="48.35136" lon="2.75727">
        <ele>130.60000610352</ele>
        <time>2022-03-17T15:30:08Z</time>
      </trkpt>
      <trkpt lat="48.35137" lon="2.75734">
        <ele>130.80000305176</ele>
        <time>2022-03-17T15:30:13Z</time>
      </trkpt>
      <trkpt lat="48.35136" lon="2.75742">
        <ele>130.60000610352</ele>
        <time>2022-03-17T15:30:18Z</time>
      </trkpt>
      <trkpt lat="48.35134" lon="2.75749">
        <ele>130.60000610352</ele>
        <time>2022-03-17T15:30:23Z</time>
      </trkpt>
      <trkpt lat="48.35133" lon="2.75756">
        <ele>130.60000610352</ele>
        <time>2022-03-17T15:30:28Z</time>
      </trkpt>
      <trkpt lat="48.35132" lon="2.75759">
        <ele>130.39999389648</ele>
        <time>2022-03-17T15:30:33Z</time>
      </trkpt>
      <trkpt lat="48.35131" lon="2.75766">
        <ele>130.19999694824</ele>
        <time>2022-03-17T15:30:38Z</time>
      </trkpt>
      <trkpt lat="48.35129" lon="2.75773">
        <ele>130</ele>
        <time>2022-03-17T15:30:43Z</time>
      </trkpt>
      <trkpt lat="48.35128" lon="2.7578">
        <ele>129.80000305176</ele>
        <time>2022-03-17T15:30:48Z</time>
      </trkpt>
      <trkpt lat="48.35129" lon="2.75789">
        <ele>129.60000610352</ele>
        <time>2022-03-17T15:30:53Z</time>
      </trkpt>
      <trkpt lat="48.35127" lon="2.75799">
        <ele>129.39999389648</ele>
        <time>2022-03-17T15:30:58Z</time>
      </trkpt>
      <trkpt lat="48.35125" lon="2.75807">
        <ele>129.39999389648</ele>
        <time>2022-03-17T15:31:03Z</time>
      </trkpt>
      <trkpt lat="48.35124" lon="2.75813">
        <ele>129</ele>
        <time>2022-03-17T15:31:08Z</time>
      </trkpt>
      <trkpt lat="48.35122" lon="2.75821">
        <ele>128.39999389648</ele>
        <time>2022-03-17T15:31:13Z</time>
      </trkpt>
      <trkpt lat="48.35122" lon="2.75826">
        <ele>127.80000305176</ele>
        <time>2022-03-17T15:31:18Z</time>
      </trkpt>
      <trkpt lat="48.35121" lon="2.75829">
        <ele>127.40000152588</ele>
        <time>2022-03-17T15:31:23Z</time>
      </trkpt>
      <trkpt lat="48.35119" lon="2.75835">
        <ele>127</ele>
        <time>2022-03-17T15:31:28Z</time>
      </trkpt>
      <trkpt lat="48.35116" lon="2.75846">
        <ele>126.40000152588</ele>
        <time>2022-03-17T15:31:33Z</time>
      </trkpt>
      <trkpt lat="48.35113" lon="2.75855">
        <ele>126</ele>
        <time>2022-03-17T15:31:38Z</time>
      </trkpt>
      <trkpt lat="48.3511" lon="2.75864">
        <ele>125.40000152588</ele>
        <time>2022-03-17T15:31:43Z</time>
      </trkpt>
      <trkpt lat="48.35109" lon="2.75868">
        <ele>124.40000152588</ele>
        <time>2022-03-17T15:31:48Z</time>
      </trkpt>
      <trkpt lat="48.35106" lon="2.75876">
        <ele>123.59999847412</ele>
        <time>2022-03-17T15:31:53Z</time>
      </trkpt>
      <trkpt lat="48.35105" lon="2.75883">
        <ele>122.59999847412</ele>
        <time>2022-03-17T15:31:58Z</time>
      </trkpt>
      <trkpt lat="48.35103" lon="2.75891">
        <ele>122</ele>
        <time>2022-03-17T15:32:03Z</time>
      </trkpt>
      <trkpt lat="48.35101" lon="2.75897">
        <ele>121.59999847412</ele>
        <time>2022-03-17T15:32:08Z</time>
      </trkpt>
      <trkpt lat="48.351" lon="2.75901">
        <ele>120.80000305176</ele>
        <time>2022-03-17T15:32:13Z</time>
      </trkpt>
      <trkpt lat="48.35097" lon="2.75908">
        <ele>120.19999694824</ele>
        <time>2022-03-17T15:32:18Z</time>
      </trkpt>
      <trkpt lat="48.35097" lon="2.75912">
        <ele>119.59999847412</ele>
        <time>2022-03-17T15:32:23Z</time>
      </trkpt>
      <trkpt lat="48.35096" lon="2.75916">
        <ele>118.80000305176</ele>
        <time>2022-03-17T15:32:28Z</time>
      </trkpt>
      <trkpt lat="48.35095" lon="2.75918">
        <ele>118</ele>
        <time>2022-03-17T15:32:33Z</time>
      </trkpt>
      <trkpt lat="48.35092" lon="2.75926">
        <ele>118</ele>
        <time>2022-03-17T15:32:38Z</time>
      </trkpt>
      <trkpt lat="48.3509" lon="2.75933">
        <ele>117.59999847412</ele>
        <time>2022-03-17T15:32:43Z</time>
      </trkpt>
      <trkpt lat="48.35088" lon="2.75941">
        <ele>117.19999694824</ele>
        <time>2022-03-17T15:32:48Z</time>
      </trkpt>
      <trkpt lat="48.35085" lon="2.75952">
        <ele>116.80000305176</ele>
        <time>2022-03-17T15:32:53Z</time>
      </trkpt>
      <trkpt lat="48.35082" lon="2.75961">
        <ele>115.80000305176</ele>
        <time>2022-03-17T15:32:58Z</time>
      </trkpt>
      <trkpt lat="48.35078" lon="2.75967">
        <ele>114.40000152588</ele>
        <time>2022-03-17T15:33:03Z</time>
      </trkpt>
      <trkpt lat="48.35076" lon="2.75973">
        <ele>113.80000305176</ele>
        <time>2022-03-17T15:33:08Z</time>
      </trkpt>
      <trkpt lat="48.35074" lon="2.75981">
        <ele>112.80000305176</ele>
        <time>2022-03-17T15:33:13Z</time>
      </trkpt>
      <trkpt lat="48.35072" lon="2.75989">
        <ele>112.40000152588</ele>
        <time>2022-03-17T15:33:18Z</time>
      </trkpt>
      <trkpt lat="48.35069" lon="2.75997">
        <ele>111.80000305176</ele>
        <time>2022-03-17T15:33:23Z</time>
      </trkpt>
      <trkpt lat="48.35068" lon="2.76005">
        <ele>111.19999694824</ele>
        <time>2022-03-17T15:33:28Z</time>
      </trkpt>
      <trkpt lat="48.35064" lon="2.76012">
        <ele>110.80000305176</ele>
        <time>2022-03-17T15:33:33Z</time>
      </trkpt>
      <trkpt lat="48.35062" lon="2.76018">
        <ele>110.40000152588</ele>
        <time>2022-03-17T15:33:38Z</time>
      </trkpt>
      <trkpt lat="48.3506" lon="2.76026">
        <ele>109.80000305176</ele>
        <time>2022-03-17T15:33:43Z</time>
      </trkpt>
      <trkpt lat="48.35059" lon="2.76035">
        <ele>109.40000152588</ele>
        <time>2022-03-17T15:33:48Z</time>
      </trkpt>
      <trkpt lat="48.35056" lon="2.76041">
        <ele>109</ele>
        <time>2022-03-17T15:33:53Z</time>
      </trkpt>
      <trkpt lat="48.35054" lon="2.76048">
        <ele>108.40000152588</ele>
        <time>2022-03-17T15:33:58Z</time>
      </trkpt>
      <trkpt lat="48.35051" lon="2.76057">
        <ele>108</ele>
        <time>2022-03-17T15:34:03Z</time>
      </trkpt>
      <trkpt lat="48.35048" lon="2.76066">
        <ele>107.40000152588</ele>
        <time>2022-03-17T15:34:08Z</time>
      </trkpt>
      <trkpt lat="48.35045" lon="2.76074">
        <ele>107.19999694824</ele>
        <time>2022-03-17T15:34:13Z</time>
      </trkpt>
      <trkpt lat="48.35043" lon="2.76081">
        <ele>106.59999847412</ele>
        <time>2022-03-17T15:34:18Z</time>
      </trkpt>
      <trkpt lat="48.3504" lon="2.76088">
        <ele>106.19999694824</ele>
        <time>2022-03-17T15:34:23Z</time>
      </trkpt>
      <trkpt lat="48.35037" lon="2.76096">
        <ele>106</ele>
        <time>2022-03-17T15:34:28Z</time>
      </trkpt>
      <trkpt lat="48.35036" lon="2.76101">
        <ele>105.59999847412</ele>
        <time>2022-03-17T15:34:33Z</time>
      </trkpt>
      <trkpt lat="48.35034" lon="2.76105">
        <ele>105.40000152588</ele>
        <time>2022-03-17T15:34:38Z</time>
      </trkpt>
      <trkpt lat="48.35033" lon="2.76112">
        <ele>105</ele>
        <time>2022-03-17T15:34:43Z</time>
      </trkpt>
      <trkpt lat="48.3503" lon="2.76119">
        <ele>104.80000305176</ele>
        <time>2022-03-17T15:34:48Z</time>
      </trkpt>
      <trkpt lat="48.35027" lon="2.76127">
        <ele>104.40000152588</ele>
        <time>2022-03-17T15:34:53Z</time>
      </trkpt>
      <trkpt lat="48.35026" lon="2.76137">
        <ele>104.19999694824</ele>
        <time>2022-03-17T15:34:58Z</time>
      </trkpt>
      <trkpt lat="48.35022" lon="2.76146">
        <ele>103.80000305176</ele>
        <time>2022-03-17T15:35:03Z</time>
      </trkpt>
      <trkpt lat="48.3502" lon="2.76155">
        <ele>103.40000152588</ele>
        <time>2022-03-17T15:35:08Z</time>
      </trkpt>
      <trkpt lat="48.35018" lon="2.76162">
        <ele>103.40000152588</ele>
        <time>2022-03-17T15:35:13Z</time>
      </trkpt>
      <trkpt lat="48.35016" lon="2.76169">
        <ele>103.40000152588</ele>
        <time>2022-03-17T15:35:18Z</time>
      </trkpt>
      <trkpt lat="48.35014" lon="2.76176">
        <ele>103.40000152588</ele>
        <time>2022-03-17T15:35:23Z</time>
      </trkpt>
      <trkpt lat="48.35011" lon="2.76183">
        <ele>103</ele>
        <time>2022-03-17T15:35:28Z</time>
      </trkpt>
      <trkpt lat="48.35007" lon="2.76191">
        <ele>102.80000305176</ele>
        <time>2022-03-17T15:35:33Z</time>
      </trkpt>
      <trkpt lat="48.35005" lon="2.76199">
        <ele>102.40000152588</ele>
        <time>2022-03-17T15:35:38Z</time>
      </trkpt>
      <trkpt lat="48.35003" lon="2.76207">
        <ele>102</ele>
        <time>2022-03-17T15:35:43Z</time>
      </trkpt>
      <trkpt lat="48.35001" lon="2.76214">
        <ele>101.59999847412</ele>
        <time>2022-03-17T15:35:48Z</time>
      </trkpt>
      <trkpt lat="48.34999" lon="2.76221">
        <ele>101</ele>
        <time>2022-03-17T15:35:53Z</time>
      </trkpt>
      <trkpt lat="48.34998" lon="2.76227">
        <ele>100.80000305176</ele>
        <time>2022-03-17T15:35:58Z</time>
      </trkpt>
      <trkpt lat="48.34996" lon="2.76235">
        <ele>100.80000305176</ele>
        <time>2022-03-17T15:36:03Z</time>
      </trkpt>
      <trkpt lat="48.34996" lon="2.76242">
        <ele>101</ele>
        <time>2022-03-17T15:36:08Z</time>
      </trkpt>
      <trkpt lat="48.34995" lon="2.76249">
        <ele>100.80000305176</ele>
        <time>2022-03-17T15:36:13Z</time>
      </trkpt>
      <trkpt lat="48.34993" lon="2.76256">
        <ele>100.80000305176</ele>
        <time>2022-03-17T15:36:18Z</time>
      </trkpt>
      <trkpt lat="48.34989" lon="2.76264">
        <ele>100.19999694824</ele>
        <time>2022-03-17T15:36:23Z</time>
      </trkpt>
      <trkpt lat="48.34988" lon="2.76271">
        <ele>100</ele>
        <time>2022-03-17T15:36:28Z</time>
      </trkpt>
      <trkpt lat="48.34986" lon="2.7628">
        <ele>100</ele>
        <time>2022-03-17T15:36:33Z</time>
      </trkpt>
      <trkpt lat="48.34984" lon="2.76287">
        <ele>100</ele>
        <time>2022-03-17T15:36:38Z</time>
      </trkpt>
      <trkpt lat="48.34982" lon="2.76296">
        <ele>99.599998474121</ele>
        <time>2022-03-17T15:36:43Z</time>
      </trkpt>
      <trkpt lat="48.34979" lon="2.76302">
        <ele>99.599998474121</ele>
        <time>2022-03-17T15:36:48Z</time>
      </trkpt>
      <trkpt lat="48.34977" lon="2.76307">
        <ele>99.800003051758</ele>
        <time>2022-03-17T15:36:53Z</time>
      </trkpt>
      <trkpt lat="48.34975" lon="2.76314">
        <ele>99.599998474121</ele>
        <time>2022-03-17T15:36:58Z</time>
      </trkpt>
      <trkpt lat="48.34973" lon="2.76322">
        <ele>99.800003051758</ele>
        <time>2022-03-17T15:37:03Z</time>
      </trkpt>
      <trkpt lat="48.3497" lon="2.7633">
        <ele>100.19999694824</ele>
        <time>2022-03-17T15:37:08Z</time>
      </trkpt>
      <trkpt lat="48.34968" lon="2.76335">
        <ele>100.19999694824</ele>
        <time>2022-03-17T15:37:13Z</time>
      </trkpt>
      <trkpt lat="48.34967" lon="2.76343">
        <ele>100.19999694824</ele>
        <time>2022-03-17T15:37:18Z</time>
      </trkpt>
      <trkpt lat="48.34965" lon="2.7635">
        <ele>99.800003051758</ele>
        <time>2022-03-17T15:37:23Z</time>
      </trkpt>
      <trkpt lat="48.34961" lon="2.76358">
        <ele>99.800003051758</ele>
        <time>2022-03-17T15:37:28Z</time>
      </trkpt>
      <trkpt lat="48.34958" lon="2.76364">
        <ele>99.599998474121</ele>
        <time>2022-03-17T15:37:33Z</time>
      </trkpt>
      <trkpt lat="48.34955" lon="2.76372">
        <ele>99.800003051758</ele>
        <time>2022-03-17T15:37:38Z</time>
      </trkpt>
      <trkpt lat="48.34953" lon="2.7638">
        <ele>100.19999694824</ele>
        <time>2022-03-17T15:37:43Z</time>
      </trkpt>
      <trkpt lat="48.34952" lon="2.76387">
        <ele>100</ele>
        <time>2022-03-17T15:37:48Z</time>
      </trkpt>
      <trkpt lat="48.34953" lon="2.76394">
        <ele>99.400001525879</ele>
        <time>2022-03-17T15:37:53Z</time>
      </trkpt>
      <trkpt lat="48.34954" lon="2.76399">
        <ele>98.800003051758</ele>
        <time>2022-03-17T15:37:58Z</time>
      </trkpt>
      <trkpt lat="48.34952" lon="2.76406">
        <ele>97.800003051758</ele>
        <time>2022-03-17T15:38:03Z</time>
      </trkpt>
      <trkpt lat="48.34952" lon="2.76413">
        <ele>97</ele>
        <time>2022-03-17T15:38:08Z</time>
      </trkpt>
      <trkpt lat="48.34952" lon="2.76418">
        <ele>96.800003051758</ele>
        <time>2022-03-17T15:38:13Z</time>
      </trkpt>
      <trkpt lat="48.34954" lon="2.76427">
        <ele>96.599998474121</ele>
        <time>2022-03-17T15:38:18Z</time>
      </trkpt>
      <trkpt lat="48.34956" lon="2.76435">
        <ele>96</ele>
        <time>2022-03-17T15:38:23Z</time>
      </trkpt>
      <trkpt lat="48.3496" lon="2.76436">
        <ele>95.199996948242</ele>
        <time>2022-03-17T15:38:28Z</time>
      </trkpt>
      <trkpt lat="48.34964" lon="2.76437">
        <ele>94.400001525879</ele>
        <time>2022-03-17T15:38:33Z</time>
      </trkpt>
      <trkpt lat="48.34968" lon="2.76438">
        <ele>93.800003051758</ele>
        <time>2022-03-17T15:38:38Z</time>
      </trkpt>
      <trkpt lat="48.34973" lon="2.7644">
        <ele>93.800003051758</ele>
        <time>2022-03-17T15:38:43Z</time>
      </trkpt>
      <trkpt lat="48.34978" lon="2.76443">
        <ele>94</ele>
        <time>2022-03-17T15:38:48Z</time>
      </trkpt>
      <trkpt lat="48.3498" lon="2.76445">
        <ele>93.599998474121</ele>
        <time>2022-03-17T15:38:53Z</time>
      </trkpt>
      <trkpt lat="48.34983" lon="2.76448">
        <ele>92.800003051758</ele>
        <time>2022-03-17T15:38:58Z</time>
      </trkpt>
      <trkpt lat="48.34988" lon="2.76454">
        <ele>92</ele>
        <time>2022-03-17T15:39:03Z</time>
      </trkpt>
      <trkpt lat="48.34991" lon="2.76459">
        <ele>91.400001525879</ele>
        <time>2022-03-17T15:39:08Z</time>
      </trkpt>
      <trkpt lat="48.34999" lon="2.76462">
        <ele>91</ele>
        <time>2022-03-17T15:39:13Z</time>
      </trkpt>
      <trkpt lat="48.35004" lon="2.76465">
        <ele>90.800003051758</ele>
        <time>2022-03-17T15:39:18Z</time>
      </trkpt>
      <trkpt lat="48.35009" lon="2.76469">
        <ele>90.800003051758</ele>
        <time>2022-03-17T15:39:23Z</time>
      </trkpt>
      <trkpt lat="48.35013" lon="2.76474">
        <ele>90.800003051758</ele>
        <time>2022-03-17T15:39:28Z</time>
      </trkpt>
      <trkpt lat="48.35018" lon="2.76478">
        <ele>90.400001525879</ele>
        <time>2022-03-17T15:39:33Z</time>
      </trkpt>
      <trkpt lat="48.35022" lon="2.76481">
        <ele>90.400001525879</ele>
        <time>2022-03-17T15:39:38Z</time>
      </trkpt>
      <trkpt lat="48.35028" lon="2.76485">
        <ele>90</ele>
        <time>2022-03-17T15:39:43Z</time>
      </trkpt>
      <trkpt lat="48.35032" lon="2.76488">
        <ele>90</ele>
        <time>2022-03-17T15:39:48Z</time>
      </trkpt>
      <trkpt lat="48.35036" lon="2.76489">
        <ele>89.800003051758</ele>
        <time>2022-03-17T15:39:53Z</time>
      </trkpt>
      <trkpt lat="48.35039" lon="2.76492">
        <ele>89.599998474121</ele>
        <time>2022-03-17T15:39:58Z</time>
      </trkpt>
      <trkpt lat="48.35042" lon="2.76496">
        <ele>89.599998474121</ele>
        <time>2022-03-17T15:40:03Z</time>
      </trkpt>
      <trkpt lat="48.35046" lon="2.76501">
        <ele>89.800003051758</ele>
        <time>2022-03-17T15:40:08Z</time>
      </trkpt>
      <trkpt lat="48.35049" lon="2.76503">
        <ele>89.400001525879</ele>
        <time>2022-03-17T15:40:13Z</time>
      </trkpt>
      <trkpt lat="48.35054" lon="2.76505">
        <ele>89.199996948242</ele>
        <time>2022-03-17T15:40:18Z</time>
      </trkpt>
      <trkpt lat="48.35057" lon="2.76508">
        <ele>89.199996948242</ele>
        <time>2022-03-17T15:40:23Z</time>
      </trkpt>
      <trkpt lat="48.35061" lon="2.76512">
        <ele>89.199996948242</ele>
        <time>2022-03-17T15:40:28Z</time>
      </trkpt>
      <trkpt lat="48.35066" lon="2.76515">
        <ele>89.199996948242</ele>
        <time>2022-03-17T15:40:33Z</time>
      </trkpt>
      <trkpt lat="48.35069" lon="2.76517">
        <ele>89.199996948242</ele>
        <time>2022-03-17T15:40:38Z</time>
      </trkpt>
      <trkpt lat="48.35071" lon="2.76517">
        <ele>89.199996948242</ele>
        <time>2022-03-17T15:40:43Z</time>
      </trkpt>
      <trkpt lat="48.35072" lon="2.76517">
        <ele>89.199996948242</ele>
        <time>2022-03-17T15:40:48Z</time>
      </trkpt>
      <trkpt lat="48.35072" lon="2.76517">
        <ele>89.400001525879</ele>
        <time>2022-03-17T15:40:53Z</time>
      </trkpt>
      <trkpt lat="48.35072" lon="2.76517">
        <ele>89.599998474121</ele>
        <time>2022-03-17T15:40:58Z</time>
      </trkpt>
      <trkpt lat="48.35072" lon="2.76519">
        <ele>89.599998474121</ele>
        <time>2022-03-17T15:41:03Z</time>
      </trkpt>
      <trkpt lat="48.35074" lon="2.76519">
        <ele>89.599998474121</ele>
        <time>2022-03-17T15:41:08Z</time>
      </trkpt>
      <trkpt lat="48.35076" lon="2.76518">
        <ele>89.599998474121</ele>
        <time>2022-03-17T15:41:13Z</time>
      </trkpt>
      <trkpt lat="48.35076" lon="2.76518">
        <ele>89.599998474121</ele>
        <time>2022-03-17T15:41:18Z</time>
      </trkpt>
      <trkpt lat="48.35075" lon="2.76518">
        <ele>89</ele>
        <time>2022-03-17T15:41:23Z</time>
      </trkpt>
      <trkpt lat="48.35075" lon="2.76517">
        <ele>89</ele>
        <time>2022-03-17T15:41:28Z</time>
      </trkpt>
      <trkpt lat="48.35073" lon="2.76518">
        <ele>89</ele>
        <time>2022-03-17T15:41:33Z</time>
      </trkpt>
      <trkpt lat="48.35073" lon="2.76518">
        <ele>89</ele>
        <time>2022-03-17T15:41:34Z</time>
      </trkpt>
    </trkseg>
  </trk>
</gpx>